﻿<?xml version="1.0" encoding="utf-8"?><gpx creator="Garmin Desktop App" version="1.1" xsi:schemaLocation="http://www.topografix.com/GPX/1/1 http://www.topografix.com/GPX/1/1/gpx.xsd http://www.garmin.com/xmlschemas/WaypointExtension/v1 http://www8.garmin.com/xmlschemas/WaypointExtensionv1.xsd http://www.garmin.com/xmlschemas/TrackPointExtension/v1 http://www.garmin.com/xmlschemas/TrackPointExtensionv1.xsd http://www.garmin.com/xmlschemas/GpxExtensions/v3 http://www8.garmin.com/xmlschemas/GpxExtensionsv3.xsd http://www.garmin.com/xmlschemas/ActivityExtension/v1 http://www8.garmin.com/xmlschemas/ActivityExtensionv1.xsd http://www.garmin.com/xmlschemas/AdventuresExtensions/v1 http://www8.garmin.com/xmlschemas/AdventuresExtensionv1.xsd http://www.garmin.com/xmlschemas/PressureExtension/v1 http://www.garmin.com/xmlschemas/PressureExtensionv1.xsd http://www.garmin.com/xmlschemas/TripExtensions/v1 http://www.garmin.com/xmlschemas/TripExtensionsv1.xsd http://www.garmin.com/xmlschemas/TripMetaDataExtensions/v1 http://www.garmin.com/xmlschemas/TripMetaDataExtensionsv1.xsd http://www.garmin.com/xmlschemas/ViaPointTransportationModeExtensions/v1 http://www.garmin.com/xmlschemas/ViaPointTransportationModeExtensionsv1.xsd http://www.garmin.com/xmlschemas/CreationTimeExtension/v1 http://www.garmin.com/xmlschemas/CreationTimeExtensionsv1.xsd http://www.garmin.com/xmlschemas/AccelerationExtension/v1 http://www.garmin.com/xmlschemas/AccelerationExtensionv1.xsd http://www.garmin.com/xmlschemas/PowerExtension/v1 http://www.garmin.com/xmlschemas/PowerExtensionv1.xsd http://www.garmin.com/xmlschemas/VideoExtension/v1 http://www.garmin.com/xmlschemas/VideoExtensionv1.xsd" xmlns="http://www.topografix.com/GPX/1/1" xmlns:xsi="http://www.w3.org/2001/XMLSchema-instance" xmlns:wptx1="http://www.garmin.com/xmlschemas/WaypointExtension/v1" xmlns:gpxtrx="http://www.garmin.com/xmlschemas/GpxExtensions/v3" xmlns:gpxtpx="http://www.garmin.com/xmlschemas/TrackPointExtension/v1" xmlns:gpxx="http://www.garmin.com/xmlschemas/GpxExtensions/v3" xmlns:trp="http://www.garmin.com/xmlschemas/TripExtensions/v1" xmlns:adv="http://www.garmin.com/xmlschemas/AdventuresExtensions/v1" xmlns:prs="http://www.garmin.com/xmlschemas/PressureExtension/v1" xmlns:tmd="http://www.garmin.com/xmlschemas/TripMetaDataExtensions/v1" xmlns:vptm="http://www.garmin.com/xmlschemas/ViaPointTransportationModeExtensions/v1" xmlns:ctx="http://www.garmin.com/xmlschemas/CreationTimeExtension/v1" xmlns:gpxacc="http://www.garmin.com/xmlschemas/AccelerationExtension/v1" xmlns:gpxpx="http://www.garmin.com/xmlschemas/PowerExtension/v1" xmlns:vidx1="http://www.garmin.com/xmlschemas/VideoExtension/v1">

  <metadata>
    <link href="http://www.garmin.com">
      <text>Garmin International</text>
    </link>
    <time>2017-11-27T17:11:52Z</time>
    <bounds maxlat="46.337827350944281" maxlon="8.283312376588583" minlat="46.313874218612909" minlon="8.252369491383433" />
  </metadata>

  <trk>
    <name>alpe-devero26 NOV 2017 09:11</name>
    <extensions>
      <gpxx:TrackExtension>
        <gpxx:DisplayColor>Yellow</gpxx:DisplayColor>
      </gpxx:TrackExtension>
      <gpxtrkx:TrackStatsExtension xmlns:gpxtrkx="http://www.garmin.com/xmlschemas/TrackStatsExtension/v1">
        <gpxtrkx:Distance>10536</gpxtrkx:Distance>
        <gpxtrkx:TotalElapsedTime>117933</gpxtrkx:TotalElapsedTime>
        <gpxtrkx:MovingTime>11250</gpxtrkx:MovingTime>
        <gpxtrkx:StoppedTime>2023</gpxtrkx:StoppedTime>
        <gpxtrkx:MovingSpeed>1</gpxtrkx:MovingSpeed>
        <gpxtrkx:MaxSpeed>2</gpxtrkx:MaxSpeed>
        <gpxtrkx:MaxElevation>1888</gpxtrkx:MaxElevation>
        <gpxtrkx:MinElevation>306</gpxtrkx:MinElevation>
        <gpxtrkx:Ascent>435</gpxtrkx:Ascent>
        <gpxtrkx:Descent>418</gpxtrkx:Descent>
        <gpxtrkx:AvgAscentRate>0</gpxtrkx:AvgAscentRate>
        <gpxtrkx:MaxAscentRate>1</gpxtrkx:MaxAscentRate>
        <gpxtrkx:AvgDescentRate>0</gpxtrkx:AvgDescentRate>
        <gpxtrkx:MaxDescentRate>-1</gpxtrkx:MaxDescentRate>
      </gpxtrkx:TrackStatsExtension>
    </extensions>
    <trkseg>
      <trkpt lat="46.313926856964827" lon="8.261140566319227">
        <ele>1677.1600000000001</ele>
        <time>2017-11-26T08:11:30Z</time>
      </trkpt>
      <trkpt lat="46.31392459385097" lon="8.261137381196022">
        <ele>1677.1600000000001</ele>
        <time>2017-11-26T08:11:31Z</time>
      </trkpt>
      <trkpt lat="46.313914619386196" lon="8.261128664016724">
        <ele>1628.1300000000001</ele>
        <time>2017-11-26T08:11:35Z</time>
      </trkpt>
      <trkpt lat="46.313914116472006" lon="8.261127071455121">
        <ele>1628.1300000000001</ele>
        <time>2017-11-26T08:11:36Z</time>
      </trkpt>
      <trkpt lat="46.313917636871338" lon="8.261128328740597">
        <ele>1631.49</ele>
        <time>2017-11-26T08:11:42Z</time>
      </trkpt>
      <trkpt lat="46.313917972147465" lon="8.261120365932584">
        <ele>1630.05</ele>
        <time>2017-11-26T08:11:43Z</time>
      </trkpt>
      <trkpt lat="46.313916882500052" lon="8.261082815006375">
        <ele>1629.0899999999999</ele>
        <time>2017-11-26T08:11:55Z</time>
      </trkpt>
      <trkpt lat="46.313906405121088" lon="8.261069403961301">
        <ele>1627.6500000000001</ele>
        <time>2017-11-26T08:12:15Z</time>
      </trkpt>
      <trkpt lat="46.313896682113409" lon="8.261090191081166">
        <ele>1628.1300000000001</ele>
        <time>2017-11-26T08:12:34Z</time>
      </trkpt>
      <trkpt lat="46.313905147835612" lon="8.261129083111882">
        <ele>1628.1300000000001</ele>
        <time>2017-11-26T08:12:44Z</time>
      </trkpt>
      <trkpt lat="46.313918642699718" lon="8.261125143617392">
        <ele>1629.0899999999999</ele>
        <time>2017-11-26T08:12:54Z</time>
      </trkpt>
      <trkpt lat="46.313905147835612" lon="8.261120533570647">
        <ele>1629.5699999999999</ele>
        <time>2017-11-26T08:13:03Z</time>
      </trkpt>
      <trkpt lat="46.313909757882357" lon="8.261117767542601">
        <ele>1630.53</ele>
        <time>2017-11-26T08:13:10Z</time>
      </trkpt>
      <trkpt lat="46.313895173370838" lon="8.261089352890849">
        <ele>1631.49</ele>
        <time>2017-11-26T08:13:24Z</time>
      </trkpt>
      <trkpt lat="46.313895089551806" lon="8.261101841926575">
        <ele>1631.49</ele>
        <time>2017-11-26T08:13:40Z</time>
      </trkpt>
      <trkpt lat="46.313890311866999" lon="8.261081892997026">
        <ele>1631.49</ele>
        <time>2017-11-26T08:13:52Z</time>
      </trkpt>
      <trkpt lat="46.31389475427568" lon="8.261103015393019">
        <ele>1631.01</ele>
        <time>2017-11-26T08:14:04Z</time>
      </trkpt>
      <trkpt lat="46.313883606344461" lon="8.261120952665806">
        <ele>1631.01</ele>
        <time>2017-11-26T08:14:15Z</time>
      </trkpt>
      <trkpt lat="46.313888635486364" lon="8.261112989857793">
        <ele>1631.01</ele>
        <time>2017-11-26T08:14:28Z</time>
      </trkpt>
      <trkpt lat="46.313886540010571" lon="8.261093543842435">
        <ele>1630.53</ele>
        <time>2017-11-26T08:14:39Z</time>
      </trkpt>
      <trkpt lat="46.313878409564495" lon="8.261097483336926">
        <ele>1630.53</ele>
        <time>2017-11-26T08:14:57Z</time>
      </trkpt>
      <trkpt lat="46.313895173370838" lon="8.261107541620731">
        <ele>1629.5699999999999</ele>
        <time>2017-11-26T08:15:05Z</time>
      </trkpt>
      <trkpt lat="46.313895508646965" lon="8.261124137789011">
        <ele>1629.5699999999999</ele>
        <time>2017-11-26T08:15:14Z</time>
      </trkpt>
      <trkpt lat="46.313886288553476" lon="8.261105446144939">
        <ele>1629.0899999999999</ele>
        <time>2017-11-26T08:15:28Z</time>
      </trkpt>
      <trkpt lat="46.313881510868669" lon="8.261110475286841">
        <ele>1628.1300000000001</ele>
        <time>2017-11-26T08:15:42Z</time>
      </trkpt>
      <trkpt lat="46.31388888694346" lon="8.261150289326906">
        <ele>1627.6500000000001</ele>
        <time>2017-11-26T08:15:55Z</time>
      </trkpt>
      <trkpt lat="46.313920067623258" lon="8.261150373145938">
        <ele>1628.1300000000001</ele>
        <time>2017-11-26T08:16:08Z</time>
      </trkpt>
      <trkpt lat="46.313930796459317" lon="8.261134615167975">
        <ele>1628.6099999999999</ele>
        <time>2017-11-26T08:16:20Z</time>
      </trkpt>
      <trkpt lat="46.313899951055646" lon="8.261118857190013">
        <ele>1629.5699999999999</ele>
        <time>2017-11-26T08:16:34Z</time>
      </trkpt>
      <trkpt lat="46.313874218612909" lon="8.261090023443103">
        <ele>1629.5699999999999</ele>
        <time>2017-11-26T08:16:45Z</time>
      </trkpt>
      <trkpt lat="46.313932724297047" lon="8.260918278247118">
        <ele>1630.53</ele>
        <time>2017-11-26T08:16:56Z</time>
      </trkpt>
      <trkpt lat="46.313999611884356" lon="8.260810319334269">
        <ele>1631.01</ele>
        <time>2017-11-26T08:17:07Z</time>
      </trkpt>
      <trkpt lat="46.314025344327092" lon="8.260782407596707">
        <ele>1631.49</ele>
        <time>2017-11-26T08:17:16Z</time>
      </trkpt>
      <trkpt lat="46.314021488651633" lon="8.260775953531265">
        <ele>1631.49</ele>
        <time>2017-11-26T08:17:28Z</time>
      </trkpt>
      <trkpt lat="46.314034145325422" lon="8.260716190561652">
        <ele>1631.01</ele>
        <time>2017-11-26T08:17:35Z</time>
      </trkpt>
      <trkpt lat="46.314097428694367" lon="8.260660534724593">
        <ele>1630.53</ele>
        <time>2017-11-26T08:17:40Z</time>
      </trkpt>
      <trkpt lat="46.314130704849958" lon="8.2606256660074">
        <ele>1630.53</ele>
        <time>2017-11-26T08:17:43Z</time>
      </trkpt>
      <trkpt lat="46.314200023189187" lon="8.260576380416751">
        <ele>1631.49</ele>
        <time>2017-11-26T08:17:50Z</time>
      </trkpt>
      <trkpt lat="46.314311334863305" lon="8.260678388178349">
        <ele>1631.98</ele>
        <time>2017-11-26T08:18:01Z</time>
      </trkpt>
      <trkpt lat="46.314352490007877" lon="8.260751813650131">
        <ele>1632.9400000000001</ele>
        <time>2017-11-26T08:18:09Z</time>
      </trkpt>
      <trkpt lat="46.314393728971481" lon="8.260816857218742">
        <ele>1634.3800000000001</ele>
        <time>2017-11-26T08:18:18Z</time>
      </trkpt>
      <trkpt lat="46.314417282119393" lon="8.260844685137272">
        <ele>1635.3399999999999</ele>
        <time>2017-11-26T08:18:21Z</time>
      </trkpt>
      <trkpt lat="46.314500849694014" lon="8.260924145579338">
        <ele>1636.3</ele>
        <time>2017-11-26T08:18:31Z</time>
      </trkpt>
      <trkpt lat="46.314508812502027" lon="8.260925821959972">
        <ele>1636.78</ele>
        <time>2017-11-26T08:18:32Z</time>
      </trkpt>
      <trkpt lat="46.314530605450273" lon="8.260917440056801">
        <ele>1637.26</ele>
        <time>2017-11-26T08:18:35Z</time>
      </trkpt>
      <trkpt lat="46.314551895484328" lon="8.260897574946284">
        <ele>1637.74</ele>
        <time>2017-11-26T08:18:38Z</time>
      </trkpt>
      <trkpt lat="46.314621968194842" lon="8.260834040120244">
        <ele>1640.6300000000001</ele>
        <time>2017-11-26T08:18:47Z</time>
      </trkpt>
      <trkpt lat="46.314684581011534" lon="8.260789280757308">
        <ele>1638.7</ele>
        <time>2017-11-26T08:18:54Z</time>
      </trkpt>
      <trkpt lat="46.314834533259273" lon="8.260796321555972">
        <ele>1638.22</ele>
        <time>2017-11-26T08:19:08Z</time>
      </trkpt>
      <trkpt lat="46.314926650375128" lon="8.260813504457474">
        <ele>1637.74</ele>
        <time>2017-11-26T08:19:17Z</time>
      </trkpt>
      <trkpt lat="46.314949532970786" lon="8.260818533599377">
        <ele>1637.74</ele>
        <time>2017-11-26T08:19:19Z</time>
      </trkpt>
      <trkpt lat="46.314978199079633" lon="8.2608363032341">
        <ele>1637.26</ele>
        <time>2017-11-26T08:19:22Z</time>
      </trkpt>
      <trkpt lat="46.315014827996492" lon="8.26084460131824">
        <ele>1639.1900000000001</ele>
        <time>2017-11-26T08:19:26Z</time>
      </trkpt>
      <trkpt lat="46.315075261518359" lon="8.260836387053132">
        <ele>1640.6300000000001</ele>
        <time>2017-11-26T08:19:33Z</time>
      </trkpt>
      <trkpt lat="46.315101999789476" lon="8.260825406759977">
        <ele>1640.6300000000001</ele>
        <time>2017-11-26T08:19:36Z</time>
      </trkpt>
      <trkpt lat="46.315184477716684" lon="8.260747622698546">
        <ele>1641.1099999999999</ele>
        <time>2017-11-26T08:19:48Z</time>
      </trkpt>
      <trkpt lat="46.31521750241518" lon="8.260699929669499">
        <ele>1643.03</ele>
        <time>2017-11-26T08:19:57Z</time>
      </trkpt>
      <trkpt lat="46.315248012542725" lon="8.260703030973673">
        <ele>1642.0699999999999</ele>
        <time>2017-11-26T08:20:04Z</time>
      </trkpt>
      <trkpt lat="46.31537432782352" lon="8.260730942711234">
        <ele>1643.03</ele>
        <time>2017-11-26T08:20:15Z</time>
      </trkpt>
      <trkpt lat="46.315506342798471" lon="8.26076882891357">
        <ele>1643.03</ele>
        <time>2017-11-26T08:20:27Z</time>
      </trkpt>
      <trkpt lat="46.315549677237868" lon="8.260792130604386">
        <ele>1643.03</ele>
        <time>2017-11-26T08:20:36Z</time>
      </trkpt>
      <trkpt lat="46.315532326698303" lon="8.260807804763317">
        <ele>1643.03</ele>
        <time>2017-11-26T08:20:48Z</time>
      </trkpt>
      <trkpt lat="46.315536433830857" lon="8.260821383446455">
        <ele>1642.55</ele>
        <time>2017-11-26T08:20:59Z</time>
      </trkpt>
      <trkpt lat="46.315534673631191" lon="8.260826244950295">
        <ele>1642.0699999999999</ele>
        <time>2017-11-26T08:21:10Z</time>
      </trkpt>
      <trkpt lat="46.315553952008486" lon="8.260839069262147">
        <ele>1642.55</ele>
        <time>2017-11-26T08:21:19Z</time>
      </trkpt>
      <trkpt lat="46.315559986978769" lon="8.26085776090622">
        <ele>1642.55</ele>
        <time>2017-11-26T08:21:28Z</time>
      </trkpt>
      <trkpt lat="46.315563507378101" lon="8.260858934372664">
        <ele>1642.55</ele>
        <time>2017-11-26T08:21:38Z</time>
      </trkpt>
      <trkpt lat="46.315539954230189" lon="8.260829765349627">
        <ele>1642.55</ele>
        <time>2017-11-26T08:21:49Z</time>
      </trkpt>
      <trkpt lat="46.315568117424846" lon="8.260869747027755">
        <ele>1642.0699999999999</ele>
        <time>2017-11-26T08:22:01Z</time>
      </trkpt>
      <trkpt lat="46.315536350011826" lon="8.260834123939276">
        <ele>1642.0699999999999</ele>
        <time>2017-11-26T08:22:10Z</time>
      </trkpt>
      <trkpt lat="46.315522771328688" lon="8.260849127545953">
        <ele>1642.55</ele>
        <time>2017-11-26T08:22:24Z</time>
      </trkpt>
      <trkpt lat="46.315513802692294" lon="8.260827166959643">
        <ele>1642.55</ele>
        <time>2017-11-26T08:22:32Z</time>
      </trkpt>
      <trkpt lat="46.315515143796802" lon="8.260840242728591">
        <ele>1641.5899999999999</ele>
        <time>2017-11-26T08:22:48Z</time>
      </trkpt>
      <trkpt lat="46.315479772165418" lon="8.260826412588358">
        <ele>1641.5899999999999</ele>
        <time>2017-11-26T08:22:58Z</time>
      </trkpt>
      <trkpt lat="46.315474156290293" lon="8.260787520557642">
        <ele>1641.1099999999999</ele>
        <time>2017-11-26T08:23:07Z</time>
      </trkpt>
      <trkpt lat="46.315478263422847" lon="8.260804619640112">
        <ele>1641.5899999999999</ele>
        <time>2017-11-26T08:23:19Z</time>
      </trkpt>
      <trkpt lat="46.315502319484949" lon="8.260807888582349">
        <ele>1642.0699999999999</ele>
        <time>2017-11-26T08:23:27Z</time>
      </trkpt>
      <trkpt lat="46.315566273406148" lon="8.260847954079509">
        <ele>1642.0699999999999</ele>
        <time>2017-11-26T08:23:36Z</time>
      </trkpt>
      <trkpt lat="46.315600890666246" lon="8.260821048170328">
        <ele>1642.0699999999999</ele>
        <time>2017-11-26T08:23:44Z</time>
      </trkpt>
      <trkpt lat="46.315631316974759" lon="8.260795064270496">
        <ele>1642.55</ele>
        <time>2017-11-26T08:23:52Z</time>
      </trkpt>
      <trkpt lat="46.315647661685944" lon="8.260773522779346">
        <ele>1643.03</ele>
        <time>2017-11-26T08:23:56Z</time>
      </trkpt>
      <trkpt lat="46.315675070509315" lon="8.260754914954305">
        <ele>1643.99</ele>
        <time>2017-11-26T08:24:00Z</time>
      </trkpt>
      <trkpt lat="46.315693007782102" lon="8.260760195553303">
        <ele>1643.99</ele>
        <time>2017-11-26T08:24:06Z</time>
      </trkpt>
      <trkpt lat="46.315577169880271" lon="8.260812750086188">
        <ele>1643.03</ele>
        <time>2017-11-26T08:24:18Z</time>
      </trkpt>
      <trkpt lat="46.31556199863553" lon="8.26081819832325">
        <ele>1643.03</ele>
        <time>2017-11-26T08:24:27Z</time>
      </trkpt>
      <trkpt lat="46.315548419952393" lon="8.260827418416739">
        <ele>1643.03</ele>
        <time>2017-11-26T08:24:44Z</time>
      </trkpt>
      <trkpt lat="46.315570464357734" lon="8.260827921330929">
        <ele>1643.03</ele>
        <time>2017-11-26T08:24:55Z</time>
      </trkpt>
      <trkpt lat="46.315524447709322" lon="8.260804284363985">
        <ele>1643.03</ele>
        <time>2017-11-26T08:25:09Z</time>
      </trkpt>
      <trkpt lat="46.315465103834867" lon="8.260818952694535">
        <ele>1643.03</ele>
        <time>2017-11-26T08:25:16Z</time>
      </trkpt>
      <trkpt lat="46.315419590100646" lon="8.260795483365655">
        <ele>1643.99</ele>
        <time>2017-11-26T08:25:25Z</time>
      </trkpt>
      <trkpt lat="46.31547155790031" lon="8.260802440345287">
        <ele>1643.51</ele>
        <time>2017-11-26T08:25:34Z</time>
      </trkpt>
      <trkpt lat="46.315482622012496" lon="8.260805374011397">
        <ele>1643.51</ele>
        <time>2017-11-26T08:25:41Z</time>
      </trkpt>
      <trkpt lat="46.315544564276934" lon="8.260840997099876">
        <ele>1643.03</ele>
        <time>2017-11-26T08:25:53Z</time>
      </trkpt>
      <trkpt lat="46.315570883452892" lon="8.260849881917238">
        <ele>1643.51</ele>
        <time>2017-11-26T08:26:03Z</time>
      </trkpt>
      <trkpt lat="46.315591167658567" lon="8.26086999848485">
        <ele>1643.51</ele>
        <time>2017-11-26T08:26:14Z</time>
      </trkpt>
      <trkpt lat="46.315575242042542" lon="8.26090076006949">
        <ele>1643.99</ele>
        <time>2017-11-26T08:26:25Z</time>
      </trkpt>
      <trkpt lat="46.315567195415497" lon="8.260882571339607">
        <ele>1643.51</ele>
        <time>2017-11-26T08:26:44Z</time>
      </trkpt>
      <trkpt lat="46.315564764663577" lon="8.260901598259807">
        <ele>1643.51</ele>
        <time>2017-11-26T08:26:56Z</time>
      </trkpt>
      <trkpt lat="46.315592341125011" lon="8.260887013748288">
        <ele>1643.03</ele>
        <time>2017-11-26T08:27:12Z</time>
      </trkpt>
      <trkpt lat="46.315619247034192" lon="8.260914757847786">
        <ele>1643.03</ele>
        <time>2017-11-26T08:27:21Z</time>
      </trkpt>
      <trkpt lat="46.315650846809149" lon="8.26095256023109">
        <ele>1642.55</ele>
        <time>2017-11-26T08:27:37Z</time>
      </trkpt>
      <trkpt lat="46.315724020823836" lon="8.261007461696863">
        <ele>1642.55</ele>
        <time>2017-11-26T08:27:45Z</time>
      </trkpt>
      <trkpt lat="46.315734917297959" lon="8.261017017066479">
        <ele>1642.55</ele>
        <time>2017-11-26T08:27:46Z</time>
      </trkpt>
      <trkpt lat="46.315760817378759" lon="8.261030009016395">
        <ele>1642.55</ele>
        <time>2017-11-26T08:27:48Z</time>
      </trkpt>
      <trkpt lat="46.315806582570076" lon="8.261122712865472">
        <ele>1643.03</ele>
        <time>2017-11-26T08:27:58Z</time>
      </trkpt>
      <trkpt lat="46.315771294757724" lon="8.261252464726567">
        <ele>1645.4300000000001</ele>
        <time>2017-11-26T08:28:08Z</time>
      </trkpt>
      <trkpt lat="46.315728547051549" lon="8.261348521336913">
        <ele>1645.4300000000001</ele>
        <time>2017-11-26T08:28:16Z</time>
      </trkpt>
      <trkpt lat="46.315707759931684" lon="8.261472908779979">
        <ele>1644.47</ele>
        <time>2017-11-26T08:28:27Z</time>
      </trkpt>
      <trkpt lat="46.315665431320667" lon="8.261550525203347">
        <ele>1645.9100000000001</ele>
        <time>2017-11-26T08:28:39Z</time>
      </trkpt>
      <trkpt lat="46.315646069124341" lon="8.261634092777968">
        <ele>1646.8800000000001</ele>
        <time>2017-11-26T08:28:47Z</time>
      </trkpt>
      <trkpt lat="46.315636932849884" lon="8.261770801618695">
        <ele>1647.8399999999999</ele>
        <time>2017-11-26T08:28:57Z</time>
      </trkpt>
      <trkpt lat="46.315680434927344" lon="8.261874653398991">
        <ele>1649.76</ele>
        <time>2017-11-26T08:29:07Z</time>
      </trkpt>
      <trkpt lat="46.315755369141698" lon="8.261901056393981">
        <ele>1651.2</ele>
        <time>2017-11-26T08:29:16Z</time>
      </trkpt>
      <trkpt lat="46.315828710794449" lon="8.261915976181626">
        <ele>1652.1600000000001</ele>
        <time>2017-11-26T08:29:25Z</time>
      </trkpt>
      <trkpt lat="46.315910434350371" lon="8.262042542919517">
        <ele>1652.6400000000001</ele>
        <time>2017-11-26T08:29:37Z</time>
      </trkpt>
      <trkpt lat="46.315934993326664" lon="8.262147987261415">
        <ele>1653.1199999999999</ele>
        <time>2017-11-26T08:29:46Z</time>
      </trkpt>
      <trkpt lat="46.315982434898615" lon="8.262278158217669">
        <ele>1653.1199999999999</ele>
        <time>2017-11-26T08:29:57Z</time>
      </trkpt>
      <trkpt lat="46.316002635285258" lon="8.262382429093123">
        <ele>1653.5999999999999</ele>
        <time>2017-11-26T08:30:07Z</time>
      </trkpt>
      <trkpt lat="46.316038928925991" lon="8.262478653341532">
        <ele>1654.0899999999999</ele>
        <time>2017-11-26T08:30:16Z</time>
      </trkpt>
      <trkpt lat="46.316044796258211" lon="8.262491980567575">
        <ele>1654.0899999999999</ele>
        <time>2017-11-26T08:30:17Z</time>
      </trkpt>
      <trkpt lat="46.316060302779078" lon="8.262527855113149">
        <ele>1654.5699999999999</ele>
        <time>2017-11-26T08:30:20Z</time>
      </trkpt>
      <trkpt lat="46.316090477630496" lon="8.262613182887435">
        <ele>1654.5699999999999</ele>
        <time>2017-11-26T08:30:27Z</time>
      </trkpt>
      <trkpt lat="46.316133895888925" lon="8.262756345793605">
        <ele>1655.05</ele>
        <time>2017-11-26T08:30:38Z</time>
      </trkpt>
      <trkpt lat="46.316144205629826" lon="8.262782916426659">
        <ele>1655.53</ele>
        <time>2017-11-26T08:30:40Z</time>
      </trkpt>
      <trkpt lat="46.316179074347019" lon="8.262899005785584">
        <ele>1656.49</ele>
        <time>2017-11-26T08:30:50Z</time>
      </trkpt>
      <trkpt lat="46.316201621666551" lon="8.263064799830318">
        <ele>1658.4100000000001</ele>
        <time>2017-11-26T08:31:03Z</time>
      </trkpt>
      <trkpt lat="46.316256271675229" lon="8.263120874762535">
        <ele>1659.8499999999999</ele>
        <time>2017-11-26T08:31:13Z</time>
      </trkpt>
      <trkpt lat="46.316325757652521" lon="8.263162951916456">
        <ele>1661.78</ele>
        <time>2017-11-26T08:31:24Z</time>
      </trkpt>
      <trkpt lat="46.316344700753689" lon="8.263172758743167">
        <ele>1662.26</ele>
        <time>2017-11-26T08:31:26Z</time>
      </trkpt>
      <trkpt lat="46.316440757364035" lon="8.263259846717119">
        <ele>1662.74</ele>
        <time>2017-11-26T08:31:37Z</time>
      </trkpt>
      <trkpt lat="46.316465064883232" lon="8.26337224803865">
        <ele>1664.6600000000001</ele>
        <time>2017-11-26T08:31:48Z</time>
      </trkpt>
      <trkpt lat="46.316473530605435" lon="8.26343678869307">
        <ele>1666.5799999999999</ele>
        <time>2017-11-26T08:31:54Z</time>
      </trkpt>
      <trkpt lat="46.316483337432146" lon="8.26352764852345">
        <ele>1668.02</ele>
        <time>2017-11-26T08:32:03Z</time>
      </trkpt>
      <trkpt lat="46.316492473706603" lon="8.263618424534798">
        <ele>1668.51</ele>
        <time>2017-11-26T08:32:10Z</time>
      </trkpt>
      <trkpt lat="46.316507561132312" lon="8.263712218031287">
        <ele>1669.47</ele>
        <time>2017-11-26T08:32:17Z</time>
      </trkpt>
      <trkpt lat="46.316514601930976" lon="8.263759072870016">
        <ele>1669.95</ele>
        <time>2017-11-26T08:32:21Z</time>
      </trkpt>
      <trkpt lat="46.316517619416118" lon="8.263798048719764">
        <ele>1669.95</ele>
        <time>2017-11-26T08:32:24Z</time>
      </trkpt>
      <trkpt lat="46.316522900015116" lon="8.263892848044634">
        <ele>1670.4300000000001</ele>
        <time>2017-11-26T08:32:32Z</time>
      </trkpt>
      <trkpt lat="46.316555254161358" lon="8.264013212174177">
        <ele>1670.9100000000001</ele>
        <time>2017-11-26T08:32:41Z</time>
      </trkpt>
      <trkpt lat="46.316571766510606" lon="8.26412184163928">
        <ele>1671.3900000000001</ele>
        <time>2017-11-26T08:32:49Z</time>
      </trkpt>
      <trkpt lat="46.316604120656848" lon="8.264272380620241">
        <ele>1671.8699999999999</ele>
        <time>2017-11-26T08:33:00Z</time>
      </trkpt>
      <trkpt lat="46.316626751795411" lon="8.264406239613891">
        <ele>1672.3499999999999</ele>
        <time>2017-11-26T08:33:11Z</time>
      </trkpt>
      <trkpt lat="46.316671846434474" lon="8.264490896835923">
        <ele>1672.8299999999999</ele>
        <time>2017-11-26T08:33:21Z</time>
      </trkpt>
      <trkpt lat="46.316766310483217" lon="8.264488633722067">
        <ele>1674.27</ele>
        <time>2017-11-26T08:33:32Z</time>
      </trkpt>
      <trkpt lat="46.31681777536869" lon="8.26461436226964">
        <ele>1674.75</ele>
        <time>2017-11-26T08:33:43Z</time>
      </trkpt>
      <trkpt lat="46.316867815330625" lon="8.264698600396514">
        <ele>1675.72</ele>
        <time>2017-11-26T08:33:52Z</time>
      </trkpt>
      <trkpt lat="46.316919783130288" lon="8.264791052788496">
        <ele>1676.2</ele>
        <time>2017-11-26T08:34:02Z</time>
      </trkpt>
      <trkpt lat="46.316982731223106" lon="8.264890462160111">
        <ele>1677.1600000000001</ele>
        <time>2017-11-26T08:34:13Z</time>
      </trkpt>
      <trkpt lat="46.317030340433121" lon="8.264964390546084">
        <ele>1677.6400000000001</ele>
        <time>2017-11-26T08:34:21Z</time>
      </trkpt>
      <trkpt lat="46.317086080089211" lon="8.265044521540403">
        <ele>1678.1199999999999</ele>
        <time>2017-11-26T08:34:30Z</time>
      </trkpt>
      <trkpt lat="46.317170318216085" lon="8.265168908983469">
        <ele>1678.1199999999999</ele>
        <time>2017-11-26T08:34:42Z</time>
      </trkpt>
      <trkpt lat="46.317184399813414" lon="8.265193132683635">
        <ele>1678.1199999999999</ele>
        <time>2017-11-26T08:34:44Z</time>
      </trkpt>
      <trkpt lat="46.317223375663161" lon="8.265291703864932">
        <ele>1678.5999999999999</ele>
        <time>2017-11-26T08:34:55Z</time>
      </trkpt>
      <trkpt lat="46.31724969483912" lon="8.265403434634209">
        <ele>1678.5999999999999</ele>
        <time>2017-11-26T08:35:05Z</time>
      </trkpt>
      <trkpt lat="46.317254472523928" lon="8.265415923669934">
        <ele>1678.5999999999999</ele>
        <time>2017-11-26T08:35:06Z</time>
      </trkpt>
      <trkpt lat="46.317284479737282" lon="8.265556488186121">
        <ele>1678.5999999999999</ele>
        <time>2017-11-26T08:35:17Z</time>
      </trkpt>
      <trkpt lat="46.317291352897882" lon="8.265577107667923">
        <ele>1678.5999999999999</ele>
        <time>2017-11-26T08:35:19Z</time>
      </trkpt>
      <trkpt lat="46.317305685952306" lon="8.265699399635196">
        <ele>1678.5999999999999</ele>
        <time>2017-11-26T08:35:30Z</time>
      </trkpt>
      <trkpt lat="46.317316498607397" lon="8.265793025493622">
        <ele>1679.0799999999999</ele>
        <time>2017-11-26T08:35:38Z</time>
      </trkpt>
      <trkpt lat="46.317348014563322" lon="8.265929147601128">
        <ele>1680.52</ele>
        <time>2017-11-26T08:35:49Z</time>
      </trkpt>
      <trkpt lat="46.317346254363656" lon="8.265944654121995">
        <ele>1680.52</ele>
        <time>2017-11-26T08:35:50Z</time>
      </trkpt>
      <trkpt lat="46.317333932965994" lon="8.266066107898951">
        <ele>1681.48</ele>
        <time>2017-11-26T08:36:00Z</time>
      </trkpt>
      <trkpt lat="46.317301327362657" lon="8.266180520877242">
        <ele>1682.9300000000001</ele>
        <time>2017-11-26T08:36:10Z</time>
      </trkpt>
      <trkpt lat="46.317293783649802" lon="8.266268698498607">
        <ele>1683.4100000000001</ele>
        <time>2017-11-26T08:36:18Z</time>
      </trkpt>
      <trkpt lat="46.317340638488531" lon="8.266369700431824">
        <ele>1684.3699999999999</ele>
        <time>2017-11-26T08:36:29Z</time>
      </trkpt>
      <trkpt lat="46.317383972927928" lon="8.266479587182403">
        <ele>1683.8900000000001</ele>
        <time>2017-11-26T08:36:38Z</time>
      </trkpt>
      <trkpt lat="46.317384308204055" lon="8.266504146158695">
        <ele>1684.3699999999999</ele>
        <time>2017-11-26T08:36:40Z</time>
      </trkpt>
      <trkpt lat="46.317425798624754" lon="8.266624510288239">
        <ele>1684.3699999999999</ele>
        <time>2017-11-26T08:36:50Z</time>
      </trkpt>
      <trkpt lat="46.317480783909559" lon="8.266717968508601">
        <ele>1685.8099999999999</ele>
        <time>2017-11-26T08:36:59Z</time>
      </trkpt>
      <trkpt lat="46.317507438361645" lon="8.266810504719615">
        <ele>1686.29</ele>
        <time>2017-11-26T08:37:07Z</time>
      </trkpt>
      <trkpt lat="46.317559657618403" lon="8.266904130578041">
        <ele>1686.77</ele>
        <time>2017-11-26T08:37:16Z</time>
      </trkpt>
      <trkpt lat="46.317614475265145" lon="8.267001276835799">
        <ele>1687.25</ele>
        <time>2017-11-26T08:37:25Z</time>
      </trkpt>
      <trkpt lat="46.317660072818398" lon="8.267112001776695">
        <ele>1685.8099999999999</ele>
        <time>2017-11-26T08:37:35Z</time>
      </trkpt>
      <trkpt lat="46.317736348137259" lon="8.267209148034453">
        <ele>1685.3299999999999</ele>
        <time>2017-11-26T08:37:45Z</time>
      </trkpt>
      <trkpt lat="46.317813880741596" lon="8.267319202423096">
        <ele>1685.8099999999999</ele>
        <time>2017-11-26T08:37:56Z</time>
      </trkpt>
      <trkpt lat="46.317839864641428" lon="8.267356669530273">
        <ele>1686.29</ele>
        <time>2017-11-26T08:38:00Z</time>
      </trkpt>
      <trkpt lat="46.31790591403842" lon="8.267488433048129">
        <ele>1686.29</ele>
        <time>2017-11-26T08:38:11Z</time>
      </trkpt>
      <trkpt lat="46.317963330075145" lon="8.26760963536799">
        <ele>1686.77</ele>
        <time>2017-11-26T08:38:22Z</time>
      </trkpt>
      <trkpt lat="46.31796894595027" lon="8.267623716965318">
        <ele>1686.77</ele>
        <time>2017-11-26T08:38:23Z</time>
      </trkpt>
      <trkpt lat="46.318038180470467" lon="8.267782721668482">
        <ele>1686.77</ele>
        <time>2017-11-26T08:38:36Z</time>
      </trkpt>
      <trkpt lat="46.318105906248093" lon="8.267933344468474">
        <ele>1687.25</ele>
        <time>2017-11-26T08:38:48Z</time>
      </trkpt>
      <trkpt lat="46.31811847910285" lon="8.267965195700526">
        <ele>1687.25</ele>
        <time>2017-11-26T08:38:51Z</time>
      </trkpt>
      <trkpt lat="46.318190479651093" lon="8.268075250089169">
        <ele>1688.21</ele>
        <time>2017-11-26T08:39:02Z</time>
      </trkpt>
      <trkpt lat="46.318201376125216" lon="8.268153956159949">
        <ele>1688.21</ele>
        <time>2017-11-26T08:39:09Z</time>
      </trkpt>
      <trkpt lat="46.318194586783648" lon="8.268210617825389">
        <ele>1688.21</ele>
        <time>2017-11-26T08:39:17Z</time>
      </trkpt>
      <trkpt lat="46.318222498521209" lon="8.268298460170627">
        <ele>1688.6900000000001</ele>
        <time>2017-11-26T08:39:24Z</time>
      </trkpt>
      <trkpt lat="46.318235993385315" lon="8.268458638340235">
        <ele>1687.73</ele>
        <time>2017-11-26T08:39:36Z</time>
      </trkpt>
      <trkpt lat="46.318253930658102" lon="8.268580175936222">
        <ele>1689.1700000000001</ele>
        <time>2017-11-26T08:39:46Z</time>
      </trkpt>
      <trkpt lat="46.318264743313193" lon="8.268621079623699">
        <ele>1690.1400000000001</ele>
        <time>2017-11-26T08:39:50Z</time>
      </trkpt>
      <trkpt lat="46.318286703899503" lon="8.268746891990304">
        <ele>1690.1400000000001</ele>
        <time>2017-11-26T08:40:00Z</time>
      </trkpt>
      <trkpt lat="46.318298606202006" lon="8.268791902810335">
        <ele>1689.6500000000001</ele>
        <time>2017-11-26T08:40:03Z</time>
      </trkpt>
      <trkpt lat="46.318313023075461" lon="8.268825011327863">
        <ele>1689.1700000000001</ele>
        <time>2017-11-26T08:40:05Z</time>
      </trkpt>
      <trkpt lat="46.31831587292254" lon="8.268982591107488">
        <ele>1689.1700000000001</ele>
        <time>2017-11-26T08:40:16Z</time>
      </trkpt>
      <trkpt lat="46.318312436342239" lon="8.269102117046714">
        <ele>1689.1700000000001</ele>
        <time>2017-11-26T08:40:26Z</time>
      </trkpt>
      <trkpt lat="46.318356106057763" lon="8.269208902493119">
        <ele>1689.6500000000001</ele>
        <time>2017-11-26T08:40:36Z</time>
      </trkpt>
      <trkpt lat="46.318398267030716" lon="8.269303617998958">
        <ele>1690.1400000000001</ele>
        <time>2017-11-26T08:40:45Z</time>
      </trkpt>
      <trkpt lat="46.318395920097828" lon="8.269397160038352">
        <ele>1691.5799999999999</ele>
        <time>2017-11-26T08:40:53Z</time>
      </trkpt>
      <trkpt lat="46.318373205140233" lon="8.269460191950202">
        <ele>1693.02</ele>
        <time>2017-11-26T08:41:00Z</time>
      </trkpt>
      <trkpt lat="46.31833297200501" lon="8.269541328772903">
        <ele>1693.98</ele>
        <time>2017-11-26T08:41:10Z</time>
      </trkpt>
      <trkpt lat="46.318390807136893" lon="8.269590782001615">
        <ele>1695.4200000000001</ele>
        <time>2017-11-26T08:41:20Z</time>
      </trkpt>
      <trkpt lat="46.318447720259428" lon="8.269652891904116">
        <ele>1696.3800000000001</ele>
        <time>2017-11-26T08:41:30Z</time>
      </trkpt>
      <trkpt lat="46.318488204851747" lon="8.269687425345182">
        <ele>1696.8599999999999</ele>
        <time>2017-11-26T08:41:35Z</time>
      </trkpt>
      <trkpt lat="46.31856020539999" lon="8.269773004576564">
        <ele>1697.3399999999999</ele>
        <time>2017-11-26T08:41:45Z</time>
      </trkpt>
      <trkpt lat="46.318610664457083" lon="8.269869983196259">
        <ele>1697.3399999999999</ele>
        <time>2017-11-26T08:41:54Z</time>
      </trkpt>
      <trkpt lat="46.31863497197628" lon="8.269988503307104">
        <ele>1698.3099999999999</ele>
        <time>2017-11-26T08:42:04Z</time>
      </trkpt>
      <trkpt lat="46.318647125735879" lon="8.270099647343159">
        <ele>1698.79</ele>
        <time>2017-11-26T08:42:14Z</time>
      </trkpt>
      <trkpt lat="46.318681659176946" lon="8.270205343142152">
        <ele>1699.27</ele>
        <time>2017-11-26T08:42:23Z</time>
      </trkpt>
      <trkpt lat="46.318717952817678" lon="8.270298717543483">
        <ele>1699.75</ele>
        <time>2017-11-26T08:42:31Z</time>
      </trkpt>
      <trkpt lat="46.318753408268094" lon="8.270356636494398">
        <ele>1699.75</ele>
        <time>2017-11-26T08:42:37Z</time>
      </trkpt>
      <trkpt lat="46.318759275600314" lon="8.270380944013596">
        <ele>1699.75</ele>
        <time>2017-11-26T08:42:39Z</time>
      </trkpt>
      <trkpt lat="46.318815099075437" lon="8.270498374477029">
        <ele>1699.75</ele>
        <time>2017-11-26T08:42:49Z</time>
      </trkpt>
      <trkpt lat="46.31882012821734" lon="8.270523687824607">
        <ele>1699.75</ele>
        <time>2017-11-26T08:42:51Z</time>
      </trkpt>
      <trkpt lat="46.318861786276102" lon="8.270630221813917">
        <ele>1699.75</ele>
        <time>2017-11-26T08:43:00Z</time>
      </trkpt>
      <trkpt lat="46.318896654993296" lon="8.270737342536449">
        <ele>1700.23</ele>
        <time>2017-11-26T08:43:10Z</time>
      </trkpt>
      <trkpt lat="46.318922638893127" lon="8.27080087736249">
        <ele>1700.71</ele>
        <time>2017-11-26T08:43:16Z</time>
      </trkpt>
      <trkpt lat="46.318946359679103" lon="8.270939262583852">
        <ele>1701.1900000000001</ele>
        <time>2017-11-26T08:43:27Z</time>
      </trkpt>
      <trkpt lat="46.318959183990955" lon="8.271059207618237">
        <ele>1701.1900000000001</ele>
        <time>2017-11-26T08:43:36Z</time>
      </trkpt>
      <trkpt lat="46.31897309795022" lon="8.271135650575161">
        <ele>1701.6700000000001</ele>
        <time>2017-11-26T08:43:43Z</time>
      </trkpt>
      <trkpt lat="46.319029675796628" lon="8.271217038854957">
        <ele>1702.1500000000001</ele>
        <time>2017-11-26T08:43:53Z</time>
      </trkpt>
      <trkpt lat="46.319037890061736" lon="8.271240927278996">
        <ele>1702.1500000000001</ele>
        <time>2017-11-26T08:43:55Z</time>
      </trkpt>
      <trkpt lat="46.319085750728846" lon="8.271356681361795">
        <ele>1702.1500000000001</ele>
        <time>2017-11-26T08:44:04Z</time>
      </trkpt>
      <trkpt lat="46.319112237542868" lon="8.271483331918716">
        <ele>1703.1099999999999</ele>
        <time>2017-11-26T08:44:14Z</time>
      </trkpt>
      <trkpt lat="46.319127324968576" lon="8.271586429327726">
        <ele>1704.55</ele>
        <time>2017-11-26T08:44:24Z</time>
      </trkpt>
      <trkpt lat="46.319138305261731" lon="8.271612580865622">
        <ele>1705.52</ele>
        <time>2017-11-26T08:44:28Z</time>
      </trkpt>
      <trkpt lat="46.319148866459727" lon="8.271730430424213">
        <ele>1707.9200000000001</ele>
        <time>2017-11-26T08:44:39Z</time>
      </trkpt>
      <trkpt lat="46.319183567538857" lon="8.271832438185811">
        <ele>1709.3599999999999</ele>
        <time>2017-11-26T08:44:49Z</time>
      </trkpt>
      <trkpt lat="46.319202929735184" lon="8.271929249167442">
        <ele>1709.3599999999999</ele>
        <time>2017-11-26T08:44:59Z</time>
      </trkpt>
      <trkpt lat="46.319263530895114" lon="8.272004351019859">
        <ele>1710.8</ele>
        <time>2017-11-26T08:45:09Z</time>
      </trkpt>
      <trkpt lat="46.319312648847699" lon="8.272073836997151">
        <ele>1710.3199999999999</ele>
        <time>2017-11-26T08:45:18Z</time>
      </trkpt>
      <trkpt lat="46.319329831749201" lon="8.272084817290306">
        <ele>1710.8</ele>
        <time>2017-11-26T08:45:20Z</time>
      </trkpt>
      <trkpt lat="46.319355899468064" lon="8.272123457863927">
        <ele>1710.8</ele>
        <time>2017-11-26T08:45:23Z</time>
      </trkpt>
      <trkpt lat="46.319406358525157" lon="8.272221107035875">
        <ele>1710.8</ele>
        <time>2017-11-26T08:45:31Z</time>
      </trkpt>
      <trkpt lat="46.319458410143852" lon="8.272363683208823">
        <ele>1710.3199999999999</ele>
        <time>2017-11-26T08:45:43Z</time>
      </trkpt>
      <trkpt lat="46.319505181163549" lon="8.272479437291622">
        <ele>1710.8</ele>
        <time>2017-11-26T08:45:53Z</time>
      </trkpt>
      <trkpt lat="46.319495709612966" lon="8.272591000422835">
        <ele>1711.28</ele>
        <time>2017-11-26T08:46:02Z</time>
      </trkpt>
      <trkpt lat="46.319505516439676" lon="8.272640118375421">
        <ele>1710.8</ele>
        <time>2017-11-26T08:46:06Z</time>
      </trkpt>
      <trkpt lat="46.319537535309792" lon="8.272768948227167">
        <ele>1711.28</ele>
        <time>2017-11-26T08:46:17Z</time>
      </trkpt>
      <trkpt lat="46.319542899727821" lon="8.272778503596783">
        <ele>1711.28</ele>
        <time>2017-11-26T08:46:18Z</time>
      </trkpt>
      <trkpt lat="46.319567877799273" lon="8.272901130840182">
        <ele>1712.25</ele>
        <time>2017-11-26T08:46:29Z</time>
      </trkpt>
      <trkpt lat="46.319599226117134" lon="8.273009173572063">
        <ele>1713.6900000000001</ele>
        <time>2017-11-26T08:46:38Z</time>
      </trkpt>
      <trkpt lat="46.319637196138501" lon="8.273077066987753">
        <ele>1714.6500000000001</ele>
        <time>2017-11-26T08:46:47Z</time>
      </trkpt>
      <trkpt lat="46.319682290777564" lon="8.273087209090591">
        <ele>1715.6099999999999</ele>
        <time>2017-11-26T08:46:53Z</time>
      </trkpt>
      <trkpt lat="46.319712717086077" lon="8.27316876500845">
        <ele>1716.5699999999999</ele>
        <time>2017-11-26T08:47:03Z</time>
      </trkpt>
      <trkpt lat="46.319753956049681" lon="8.273166418075562">
        <ele>1718.49</ele>
        <time>2017-11-26T08:47:15Z</time>
      </trkpt>
      <trkpt lat="46.319783879444003" lon="8.273233054205775">
        <ele>1719.9400000000001</ele>
        <time>2017-11-26T08:47:25Z</time>
      </trkpt>
      <trkpt lat="46.319805840030313" lon="8.273284183815122">
        <ele>1721.3800000000001</ele>
        <time>2017-11-26T08:47:34Z</time>
      </trkpt>
      <trkpt lat="46.319807600229979" lon="8.273372864350677">
        <ele>1723.78</ele>
        <time>2017-11-26T08:47:45Z</time>
      </trkpt>
      <trkpt lat="46.319805672392249" lon="8.27346246689558">
        <ele>1724.74</ele>
        <time>2017-11-26T08:47:55Z</time>
      </trkpt>
      <trkpt lat="46.319842804223299" lon="8.273504544049501">
        <ele>1726.1800000000001</ele>
        <time>2017-11-26T08:48:04Z</time>
      </trkpt>
      <trkpt lat="46.319854622706771" lon="8.27354796230793">
        <ele>1726.6700000000001</ele>
        <time>2017-11-26T08:48:11Z</time>
      </trkpt>
      <trkpt lat="46.319867949932814" lon="8.27362859621644">
        <ele>1728.1099999999999</ele>
        <time>2017-11-26T08:48:20Z</time>
      </trkpt>
      <trkpt lat="46.319902567192912" lon="8.273700764402747">
        <ele>1730.51</ele>
        <time>2017-11-26T08:48:32Z</time>
      </trkpt>
      <trkpt lat="46.319933412596583" lon="8.273781733587384">
        <ele>1732.4300000000001</ele>
        <time>2017-11-26T08:48:44Z</time>
      </trkpt>
      <trkpt lat="46.319958725944161" lon="8.273863373324275">
        <ele>1732.4300000000001</ele>
        <time>2017-11-26T08:48:55Z</time>
      </trkpt>
      <trkpt lat="46.319995187222958" lon="8.273914502933621">
        <ele>1733.8800000000001</ele>
        <time>2017-11-26T08:49:04Z</time>
      </trkpt>
      <trkpt lat="46.320019830018282" lon="8.273975187912583">
        <ele>1735.8</ele>
        <time>2017-11-26T08:49:13Z</time>
      </trkpt>
      <trkpt lat="46.320058722048998" lon="8.274022294208407">
        <ele>1736.76</ele>
        <time>2017-11-26T08:49:24Z</time>
      </trkpt>
      <trkpt lat="46.320110103115439" lon="8.274072082713246">
        <ele>1738.6800000000001</ele>
        <time>2017-11-26T08:49:35Z</time>
      </trkpt>
      <trkpt lat="46.320164753124118" lon="8.274099910631776">
        <ele>1740.5999999999999</ele>
        <time>2017-11-26T08:49:45Z</time>
      </trkpt>
      <trkpt lat="46.320206327363849" lon="8.274155398830771">
        <ele>1742.05</ele>
        <time>2017-11-26T08:49:54Z</time>
      </trkpt>
      <trkpt lat="46.320193503051996" lon="8.274207366630435">
        <ele>1742.05</ele>
        <time>2017-11-26T08:50:02Z</time>
      </trkpt>
      <trkpt lat="46.320165591314435" lon="8.274185741320252">
        <ele>1742.53</ele>
        <time>2017-11-26T08:50:22Z</time>
      </trkpt>
      <trkpt lat="46.320170285180211" lon="8.274180209264159">
        <ele>1742.05</ele>
        <time>2017-11-26T08:50:42Z</time>
      </trkpt>
      <trkpt lat="46.320177158340812" lon="8.274193787947297">
        <ele>1742.05</ele>
        <time>2017-11-26T08:50:57Z</time>
      </trkpt>
      <trkpt lat="46.320191323757172" lon="8.274184903129935">
        <ele>1742.53</ele>
        <time>2017-11-26T08:51:00Z</time>
      </trkpt>
      <trkpt lat="46.320234909653664" lon="8.274259166792035">
        <ele>1742.53</ele>
        <time>2017-11-26T08:51:06Z</time>
      </trkpt>
      <trkpt lat="46.32027137093246" lon="8.274292778223753">
        <ele>1743.49</ele>
        <time>2017-11-26T08:51:11Z</time>
      </trkpt>
      <trkpt lat="46.320355106145144" lon="8.274390259757638">
        <ele>1744.45</ele>
        <time>2017-11-26T08:51:22Z</time>
      </trkpt>
      <trkpt lat="46.320370109751821" lon="8.274451615288854">
        <ele>1743.97</ele>
        <time>2017-11-26T08:51:30Z</time>
      </trkpt>
      <trkpt lat="46.320410259068012" lon="8.274512970820069">
        <ele>1743.97</ele>
        <time>2017-11-26T08:51:42Z</time>
      </trkpt>
      <trkpt lat="46.320462562143803" lon="8.274622689932585">
        <ele>1743.97</ele>
        <time>2017-11-26T08:51:52Z</time>
      </trkpt>
      <trkpt lat="46.320462226867676" lon="8.27463760972023">
        <ele>1743.49</ele>
        <time>2017-11-26T08:51:55Z</time>
      </trkpt>
      <trkpt lat="46.320488126948476" lon="8.274764511734247">
        <ele>1746.3699999999999</ele>
        <time>2017-11-26T08:52:04Z</time>
      </trkpt>
      <trkpt lat="46.320525174960494" lon="8.274883702397347">
        <ele>1744.45</ele>
        <time>2017-11-26T08:52:13Z</time>
      </trkpt>
      <trkpt lat="46.320547806099057" lon="8.274965677410364">
        <ele>1745.4100000000001</ele>
        <time>2017-11-26T08:52:22Z</time>
      </trkpt>
      <trkpt lat="46.320580495521426" lon="8.275019321590662">
        <ele>1745.4100000000001</ele>
        <time>2017-11-26T08:52:29Z</time>
      </trkpt>
      <trkpt lat="46.320656100288033" lon="8.275091489776969">
        <ele>1746.3699999999999</ele>
        <time>2017-11-26T08:52:41Z</time>
      </trkpt>
      <trkpt lat="46.320718880742788" lon="8.275168184190989">
        <ele>1747.3299999999999</ele>
        <time>2017-11-26T08:52:51Z</time>
      </trkpt>
      <trkpt lat="46.320780152454972" lon="8.275264324620366">
        <ele>1748.29</ele>
        <time>2017-11-26T08:53:01Z</time>
      </trkpt>
      <trkpt lat="46.320791887119412" lon="8.275276059284806">
        <ele>1747.8099999999999</ele>
        <time>2017-11-26T08:53:03Z</time>
      </trkpt>
      <trkpt lat="46.32084016688168" lon="8.275352334603667">
        <ele>1748.78</ele>
        <time>2017-11-26T08:53:11Z</time>
      </trkpt>
      <trkpt lat="46.320850141346455" lon="8.275381503626704">
        <ele>1749.26</ele>
        <time>2017-11-26T08:53:14Z</time>
      </trkpt>
      <trkpt lat="46.320874532684684" lon="8.275446044281125">
        <ele>1750.7</ele>
        <time>2017-11-26T08:53:19Z</time>
      </trkpt>
      <trkpt lat="46.320909317582846" lon="8.275504382327199">
        <ele>1751.1800000000001</ele>
        <time>2017-11-26T08:53:24Z</time>
      </trkpt>
      <trkpt lat="46.321002943441272" lon="8.275613263249397">
        <ele>1749.74</ele>
        <time>2017-11-26T08:53:35Z</time>
      </trkpt>
      <trkpt lat="46.321063628420234" lon="8.275726921856403">
        <ele>1748.78</ele>
        <time>2017-11-26T08:53:44Z</time>
      </trkpt>
      <trkpt lat="46.321081733331084" lon="8.275903444737196">
        <ele>1747.3299999999999</ele>
        <time>2017-11-26T08:53:55Z</time>
      </trkpt>
      <trkpt lat="46.321128839626908" lon="8.276000255718827">
        <ele>1747.8099999999999</ele>
        <time>2017-11-26T08:54:04Z</time>
      </trkpt>
      <trkpt lat="46.321126660332084" lon="8.276070076972246">
        <ele>1747.8099999999999</ele>
        <time>2017-11-26T08:54:15Z</time>
      </trkpt>
      <trkpt lat="46.3211430888623" lon="8.276157081127167">
        <ele>1746.8499999999999</ele>
        <time>2017-11-26T08:54:26Z</time>
      </trkpt>
      <trkpt lat="46.321231182664633" lon="8.276279624551535">
        <ele>1747.8099999999999</ele>
        <time>2017-11-26T08:54:38Z</time>
      </trkpt>
      <trkpt lat="46.321309134364128" lon="8.276378866285086">
        <ele>1748.78</ele>
        <time>2017-11-26T08:54:49Z</time>
      </trkpt>
      <trkpt lat="46.321380715817213" lon="8.276421446353197">
        <ele>1749.74</ele>
        <time>2017-11-26T08:54:59Z</time>
      </trkpt>
      <trkpt lat="46.321465959772468" lon="8.276467630639672">
        <ele>1750.7</ele>
        <time>2017-11-26T08:55:11Z</time>
      </trkpt>
      <trkpt lat="46.321488507091999" lon="8.276468804106116">
        <ele>1751.1800000000001</ele>
        <time>2017-11-26T08:55:21Z</time>
      </trkpt>
      <trkpt lat="46.32147828117013" lon="8.276496296748519">
        <ele>1751.6600000000001</ele>
        <time>2017-11-26T08:55:33Z</time>
      </trkpt>
      <trkpt lat="46.321490267291665" lon="8.276497637853026">
        <ele>1751.6600000000001</ele>
        <time>2017-11-26T08:55:41Z</time>
      </trkpt>
      <trkpt lat="46.321545755490661" lon="8.276436869055033">
        <ele>1752.1400000000001</ele>
        <time>2017-11-26T08:55:51Z</time>
      </trkpt>
      <trkpt lat="46.321545084938407" lon="8.276425218209624">
        <ele>1752.1400000000001</ele>
        <time>2017-11-26T08:55:52Z</time>
      </trkpt>
      <trkpt lat="46.321587413549423" lon="8.276329161599279">
        <ele>1754.0599999999999</ele>
        <time>2017-11-26T08:56:03Z</time>
      </trkpt>
      <trkpt lat="46.321605183184147" lon="8.276301249861717">
        <ele>1755.5</ele>
        <time>2017-11-26T08:56:07Z</time>
      </trkpt>
      <trkpt lat="46.321710711345077" lon="8.276350619271398">
        <ele>1755.02</ele>
        <time>2017-11-26T08:56:16Z</time>
      </trkpt>
      <trkpt lat="46.321729402989149" lon="8.276375597342849">
        <ele>1754.54</ele>
        <time>2017-11-26T08:56:18Z</time>
      </trkpt>
      <trkpt lat="46.321823699399829" lon="8.27649193815887">
        <ele>1754.0599999999999</ele>
        <time>2017-11-26T08:56:29Z</time>
      </trkpt>
      <trkpt lat="46.321873739361763" lon="8.276637531816959">
        <ele>1754.0599999999999</ele>
        <time>2017-11-26T08:56:40Z</time>
      </trkpt>
      <trkpt lat="46.321926545351744" lon="8.276751022785902">
        <ele>1754.0599999999999</ele>
        <time>2017-11-26T08:56:50Z</time>
      </trkpt>
      <trkpt lat="46.321933167055249" lon="8.276773737743497">
        <ele>1754.0599999999999</ele>
        <time>2017-11-26T08:56:52Z</time>
      </trkpt>
      <trkpt lat="46.32194884121418" lon="8.276803074404597">
        <ele>1754.0599999999999</ele>
        <time>2017-11-26T08:56:55Z</time>
      </trkpt>
      <trkpt lat="46.321972478181124" lon="8.276822436600924">
        <ele>1754.0599999999999</ele>
        <time>2017-11-26T08:56:58Z</time>
      </trkpt>
      <trkpt lat="46.322035929188132" lon="8.276832662522793">
        <ele>1755.02</ele>
        <time>2017-11-26T08:57:07Z</time>
      </trkpt>
      <trkpt lat="46.322082364931703" lon="8.276822604238987">
        <ele>1755.02</ele>
        <time>2017-11-26T08:57:12Z</time>
      </trkpt>
      <trkpt lat="46.322114132344723" lon="8.276805588975549">
        <ele>1755.02</ele>
        <time>2017-11-26T08:57:16Z</time>
      </trkpt>
      <trkpt lat="46.322189401835203" lon="8.276803242042661">
        <ele>1755.5</ele>
        <time>2017-11-26T08:57:26Z</time>
      </trkpt>
      <trkpt lat="46.322209350764751" lon="8.27681690454483">
        <ele>1756.47</ele>
        <time>2017-11-26T08:57:36Z</time>
      </trkpt>
      <trkpt lat="46.322265509516001" lon="8.276821095496416">
        <ele>1757.4300000000001</ele>
        <time>2017-11-26T08:57:51Z</time>
      </trkpt>
      <trkpt lat="46.322350585833192" lon="8.276851186528802">
        <ele>1758.8699999999999</ele>
        <time>2017-11-26T08:58:02Z</time>
      </trkpt>
      <trkpt lat="46.32237346842885" lon="8.276878762990236">
        <ele>1758.8699999999999</ele>
        <time>2017-11-26T08:58:05Z</time>
      </trkpt>
      <trkpt lat="46.322418814525008" lon="8.276958726346493">
        <ele>1758.3900000000001</ele>
        <time>2017-11-26T08:58:12Z</time>
      </trkpt>
      <trkpt lat="46.322459299117327" lon="8.277013543993235">
        <ele>1757.9100000000001</ele>
        <time>2017-11-26T08:58:18Z</time>
      </trkpt>
      <trkpt lat="46.322488551959395" lon="8.2770377676934">
        <ele>1758.3900000000001</ele>
        <time>2017-11-26T08:58:21Z</time>
      </trkpt>
      <trkpt lat="46.322563905268908" lon="8.277114713564515">
        <ele>1758.3900000000001</ele>
        <time>2017-11-26T08:58:31Z</time>
      </trkpt>
      <trkpt lat="46.322645712643862" lon="8.277170956134796">
        <ele>1758.3900000000001</ele>
        <time>2017-11-26T08:58:42Z</time>
      </trkpt>
      <trkpt lat="46.322696004062891" lon="8.277232479304075">
        <ele>1760.79</ele>
        <time>2017-11-26T08:58:53Z</time>
      </trkpt>
      <trkpt lat="46.322743445634842" lon="8.277270030230284">
        <ele>1762.23</ele>
        <time>2017-11-26T08:59:04Z</time>
      </trkpt>
      <trkpt lat="46.322760879993439" lon="8.277284614741802">
        <ele>1763.2</ele>
        <time>2017-11-26T08:59:09Z</time>
      </trkpt>
      <trkpt lat="46.322859032079577" lon="8.277304982766509">
        <ele>1763.2</ele>
        <time>2017-11-26T08:59:19Z</time>
      </trkpt>
      <trkpt lat="46.322929775342345" lon="8.277359548956156">
        <ele>1764.6400000000001</ele>
        <time>2017-11-26T08:59:29Z</time>
      </trkpt>
      <trkpt lat="46.322988113388419" lon="8.277393747121096">
        <ele>1765.1199999999999</ele>
        <time>2017-11-26T08:59:38Z</time>
      </trkpt>
      <trkpt lat="46.323050726205111" lon="8.277440518140793">
        <ele>1766.0799999999999</ele>
        <time>2017-11-26T08:59:47Z</time>
      </trkpt>
      <trkpt lat="46.323117278516293" lon="8.277478236705065">
        <ele>1766.5599999999999</ele>
        <time>2017-11-26T08:59:55Z</time>
      </trkpt>
      <trkpt lat="46.323196571320295" lon="8.277533138170838">
        <ele>1768</ele>
        <time>2017-11-26T09:00:05Z</time>
      </trkpt>
      <trkpt lat="46.323263878002763" lon="8.277595080435276">
        <ele>1768.96</ele>
        <time>2017-11-26T09:00:15Z</time>
      </trkpt>
      <trkpt lat="46.323343170806766" lon="8.277668757364154">
        <ele>1770.4100000000001</ele>
        <time>2017-11-26T09:00:26Z</time>
      </trkpt>
      <trkpt lat="46.323413411155343" lon="8.277676301077008">
        <ele>1771.3699999999999</ele>
        <time>2017-11-26T09:00:36Z</time>
      </trkpt>
      <trkpt lat="46.323415674269199" lon="8.277647802606225">
        <ele>1772.3299999999999</ele>
        <time>2017-11-26T09:00:46Z</time>
      </trkpt>
      <trkpt lat="46.323418188840151" lon="8.277570437639952">
        <ele>1772.8099999999999</ele>
        <time>2017-11-26T09:00:54Z</time>
      </trkpt>
      <trkpt lat="46.323445346206427" lon="8.277531713247299">
        <ele>1772.8099999999999</ele>
        <time>2017-11-26T09:00:57Z</time>
      </trkpt>
      <trkpt lat="46.323562692850828" lon="8.277577478438616">
        <ele>1771.3699999999999</ele>
        <time>2017-11-26T09:01:08Z</time>
      </trkpt>
      <trkpt lat="46.323586832731962" lon="8.277586782351136">
        <ele>1770.8900000000001</ele>
        <time>2017-11-26T09:01:19Z</time>
      </trkpt>
      <trkpt lat="46.323551461100578" lon="8.277587871998549">
        <ele>1771.3699999999999</ele>
        <time>2017-11-26T09:01:32Z</time>
      </trkpt>
      <trkpt lat="46.323571829125285" lon="8.277644785121083">
        <ele>1771.3699999999999</ele>
        <time>2017-11-26T09:01:42Z</time>
      </trkpt>
      <trkpt lat="46.323614325374365" lon="8.277709744870663">
        <ele>1771.8499999999999</ele>
        <time>2017-11-26T09:01:51Z</time>
      </trkpt>
      <trkpt lat="46.323634861037135" lon="8.277702452614904">
        <ele>1771.8499999999999</ele>
        <time>2017-11-26T09:01:59Z</time>
      </trkpt>
      <trkpt lat="46.323661180213094" lon="8.277712510898709">
        <ele>1771.8499999999999</ele>
        <time>2017-11-26T09:02:03Z</time>
      </trkpt>
      <trkpt lat="46.323728486895561" lon="8.277768082916737">
        <ele>1771.8499999999999</ele>
        <time>2017-11-26T09:02:12Z</time>
      </trkpt>
      <trkpt lat="46.323798643425107" lon="8.277826169505715">
        <ele>1771.3699999999999</ele>
        <time>2017-11-26T09:02:22Z</time>
      </trkpt>
      <trkpt lat="46.323794955387712" lon="8.27780881896615">
        <ele>1771.3699999999999</ele>
        <time>2017-11-26T09:02:33Z</time>
      </trkpt>
      <trkpt lat="46.323868967592716" lon="8.277901438996196">
        <ele>1770.4100000000001</ele>
        <time>2017-11-26T09:02:44Z</time>
      </trkpt>
      <trkpt lat="46.323926718905568" lon="8.277985844761133">
        <ele>1771.8499999999999</ele>
        <time>2017-11-26T09:02:53Z</time>
      </trkpt>
      <trkpt lat="46.323968293145299" lon="8.278031358495355">
        <ele>1771.3699999999999</ele>
        <time>2017-11-26T09:03:00Z</time>
      </trkpt>
      <trkpt lat="46.324045909568667" lon="8.278139652684331">
        <ele>1770.4100000000001</ele>
        <time>2017-11-26T09:03:12Z</time>
      </trkpt>
      <trkpt lat="46.324101313948631" lon="8.27820360660553">
        <ele>1770.4100000000001</ele>
        <time>2017-11-26T09:03:22Z</time>
      </trkpt>
      <trkpt lat="46.324152443557978" lon="8.278271500021219">
        <ele>1771.8499999999999</ele>
        <time>2017-11-26T09:03:31Z</time>
      </trkpt>
      <trkpt lat="46.32413643412292" lon="8.278238140046597">
        <ele>1772.3299999999999</ele>
        <time>2017-11-26T09:03:43Z</time>
      </trkpt>
      <trkpt lat="46.324110450223088" lon="8.278218191117048">
        <ele>1772.3299999999999</ele>
        <time>2017-11-26T09:03:59Z</time>
      </trkpt>
      <trkpt lat="46.324127549305558" lon="8.278198158368468">
        <ele>1772.3299999999999</ele>
        <time>2017-11-26T09:04:16Z</time>
      </trkpt>
      <trkpt lat="46.324092345312238" lon="8.278200086206198">
        <ele>1772.8099999999999</ele>
        <time>2017-11-26T09:04:35Z</time>
      </trkpt>
      <trkpt lat="46.324112210422754" lon="8.278224477544427">
        <ele>1772.8099999999999</ele>
        <time>2017-11-26T09:04:47Z</time>
      </trkpt>
      <trkpt lat="46.324125370010734" lon="8.278207797557116">
        <ele>1772.8099999999999</ele>
        <time>2017-11-26T09:05:00Z</time>
      </trkpt>
      <trkpt lat="46.324137356132269" lon="8.278200086206198">
        <ele>1772.8099999999999</ele>
        <time>2017-11-26T09:05:16Z</time>
      </trkpt>
      <trkpt lat="46.324158562347293" lon="8.278253981843591">
        <ele>1772.3299999999999</ele>
        <time>2017-11-26T09:05:32Z</time>
      </trkpt>
      <trkpt lat="46.324243135750294" lon="8.278416506946087">
        <ele>1772.3299999999999</ele>
        <time>2017-11-26T09:05:45Z</time>
      </trkpt>
      <trkpt lat="46.324303904548287" lon="8.278495883569121">
        <ele>1772.3299999999999</ele>
        <time>2017-11-26T09:05:57Z</time>
      </trkpt>
      <trkpt lat="46.32433190010488" lon="8.278538966551423">
        <ele>1772.3299999999999</ele>
        <time>2017-11-26T09:06:07Z</time>
      </trkpt>
      <trkpt lat="46.324366182088852" lon="8.27859646640718">
        <ele>1774.25</ele>
        <time>2017-11-26T09:06:18Z</time>
      </trkpt>
      <trkpt lat="46.324391076341271" lon="8.278644746169448">
        <ele>1775.6900000000001</ele>
        <time>2017-11-26T09:06:28Z</time>
      </trkpt>
      <trkpt lat="46.324405493214726" lon="8.278695456683636">
        <ele>1777.1300000000001</ele>
        <time>2017-11-26T09:06:38Z</time>
      </trkpt>
      <trkpt lat="46.324394093826413" lon="8.278709119185805">
        <ele>1777.1300000000001</ele>
        <time>2017-11-26T09:06:50Z</time>
      </trkpt>
      <trkpt lat="46.32442569360137" lon="8.278729235753417">
        <ele>1778.5799999999999</ele>
        <time>2017-11-26T09:07:00Z</time>
      </trkpt>
      <trkpt lat="46.324372887611389" lon="8.278747508302331">
        <ele>1779.0599999999999</ele>
        <time>2017-11-26T09:07:10Z</time>
      </trkpt>
      <trkpt lat="46.324376072734594" lon="8.278735438361764">
        <ele>1778.5799999999999</ele>
        <time>2017-11-26T09:07:22Z</time>
      </trkpt>
      <trkpt lat="46.324423179030418" lon="8.278756309300661">
        <ele>1778.5799999999999</ele>
        <time>2017-11-26T09:07:32Z</time>
      </trkpt>
      <trkpt lat="46.324453437700868" lon="8.278750274330378">
        <ele>1780.5</ele>
        <time>2017-11-26T09:07:42Z</time>
      </trkpt>
      <trkpt lat="46.324446564540267" lon="8.278750525787473">
        <ele>1780.02</ele>
        <time>2017-11-26T09:07:49Z</time>
      </trkpt>
      <trkpt lat="46.324425358325243" lon="8.278734935447574">
        <ele>1780.98</ele>
        <time>2017-11-26T09:08:02Z</time>
      </trkpt>
      <trkpt lat="46.324441116303205" lon="8.278746670112014">
        <ele>1781.46</ele>
        <time>2017-11-26T09:08:11Z</time>
      </trkpt>
      <trkpt lat="46.324405912309885" lon="8.278764020651579">
        <ele>1780.02</ele>
        <time>2017-11-26T09:08:20Z</time>
      </trkpt>
      <trkpt lat="46.324353106319904" lon="8.278762931004167">
        <ele>1778.5799999999999</ele>
        <time>2017-11-26T09:08:30Z</time>
      </trkpt>
      <trkpt lat="46.324338773265481" lon="8.278700653463602">
        <ele>1777.1300000000001</ele>
        <time>2017-11-26T09:08:38Z</time>
      </trkpt>
      <trkpt lat="46.324346400797367" lon="8.278651451691985">
        <ele>1775.6900000000001</ele>
        <time>2017-11-26T09:08:44Z</time>
      </trkpt>
      <trkpt lat="46.324326787143946" lon="8.278615660965443">
        <ele>1774.25</ele>
        <time>2017-11-26T09:08:48Z</time>
      </trkpt>
      <trkpt lat="46.324285715818405" lon="8.278521532192826">
        <ele>1771.3699999999999</ele>
        <time>2017-11-26T09:08:59Z</time>
      </trkpt>
      <trkpt lat="46.324298288673162" lon="8.278494877740741">
        <ele>1770.4100000000001</ele>
        <time>2017-11-26T09:09:02Z</time>
      </trkpt>
      <trkpt lat="46.324316896498203" lon="8.278492614626885">
        <ele>1770.4100000000001</ele>
        <time>2017-11-26T09:09:10Z</time>
      </trkpt>
      <trkpt lat="46.324223605915904" lon="8.278407538309693">
        <ele>1769.9200000000001</ele>
        <time>2017-11-26T09:09:21Z</time>
      </trkpt>
      <trkpt lat="46.324153449386358" lon="8.27831651084125">
        <ele>1770.4100000000001</ele>
        <time>2017-11-26T09:09:32Z</time>
      </trkpt>
      <trkpt lat="46.324071306735277" lon="8.278184914961457">
        <ele>1768.96</ele>
        <time>2017-11-26T09:09:44Z</time>
      </trkpt>
      <trkpt lat="46.32398740388453" lon="8.278129426762462">
        <ele>1768.48</ele>
        <time>2017-11-26T09:09:54Z</time>
      </trkpt>
      <trkpt lat="46.323923449963331" lon="8.278073687106371">
        <ele>1769.4400000000001</ele>
        <time>2017-11-26T09:10:02Z</time>
      </trkpt>
      <trkpt lat="46.32390190847218" lon="8.278049882501364">
        <ele>1769.4400000000001</ele>
        <time>2017-11-26T09:10:05Z</time>
      </trkpt>
      <trkpt lat="46.3238784391433" lon="8.278017863631249">
        <ele>1769.4400000000001</ele>
        <time>2017-11-26T09:10:08Z</time>
      </trkpt>
      <trkpt lat="46.323806354776025" lon="8.277895655483007">
        <ele>1768.96</ele>
        <time>2017-11-26T09:10:19Z</time>
      </trkpt>
      <trkpt lat="46.32377777248621" lon="8.277797754853964">
        <ele>1769.4400000000001</ele>
        <time>2017-11-26T09:10:28Z</time>
      </trkpt>
      <trkpt lat="46.323790764436126" lon="8.277729274705052">
        <ele>1768</ele>
        <time>2017-11-26T09:10:32Z</time>
      </trkpt>
      <trkpt lat="46.323800068348646" lon="8.277671104297042">
        <ele>1766.5599999999999</ele>
        <time>2017-11-26T09:10:35Z</time>
      </trkpt>
      <trkpt lat="46.323806690052152" lon="8.277646210044622">
        <ele>1766.5599999999999</ele>
        <time>2017-11-26T09:10:37Z</time>
      </trkpt>
      <trkpt lat="46.323844911530614" lon="8.277587369084358">
        <ele>1765.5999999999999</ele>
        <time>2017-11-26T09:10:42Z</time>
      </trkpt>
      <trkpt lat="46.323945410549641" lon="8.277388969436288">
        <ele>1764.6400000000001</ele>
        <time>2017-11-26T09:10:55Z</time>
      </trkpt>
      <trkpt lat="46.323951948434114" lon="8.277323003858328">
        <ele>1763.6800000000001</ele>
        <time>2017-11-26T09:10:59Z</time>
      </trkpt>
      <trkpt lat="46.323896460235119" lon="8.277155617251992">
        <ele>1761.75</ele>
        <time>2017-11-26T09:11:11Z</time>
      </trkpt>
      <trkpt lat="46.323895957320929" lon="8.277154192328453">
        <ele>1762.23</ele>
        <time>2017-11-26T09:11:12Z</time>
      </trkpt>
      <trkpt lat="46.323893358930945" lon="8.277133153751493">
        <ele>1762.23</ele>
        <time>2017-11-26T09:11:14Z</time>
      </trkpt>
      <trkpt lat="46.32394197396934" lon="8.276993846520782">
        <ele>1762.23</ele>
        <time>2017-11-26T09:11:24Z</time>
      </trkpt>
      <trkpt lat="46.323965778574347" lon="8.276941794902086">
        <ele>1763.2</ele>
        <time>2017-11-26T09:11:29Z</time>
      </trkpt>
      <trkpt lat="46.324003161862493" lon="8.276862418279052">
        <ele>1764.6400000000001</ele>
        <time>2017-11-26T09:11:38Z</time>
      </trkpt>
      <trkpt lat="46.324009280651808" lon="8.276858143508434">
        <ele>1764.6400000000001</ele>
        <time>2017-11-26T09:11:39Z</time>
      </trkpt>
      <trkpt lat="46.324038868770003" lon="8.276860574260354">
        <ele>1765.1199999999999</ele>
        <time>2017-11-26T09:11:43Z</time>
      </trkpt>
      <trkpt lat="46.324064182117581" lon="8.276895275339484">
        <ele>1765.1199999999999</ele>
        <time>2017-11-26T09:11:54Z</time>
      </trkpt>
      <trkpt lat="46.324071642011404" lon="8.276901058852673">
        <ele>1765.1199999999999</ele>
        <time>2017-11-26T09:12:00Z</time>
      </trkpt>
      <trkpt lat="46.324082957580686" lon="8.276906926184893">
        <ele>1765.5999999999999</ele>
        <time>2017-11-26T09:12:02Z</time>
      </trkpt>
      <trkpt lat="46.324106343090534" lon="8.276913464069367">
        <ele>1765.5999999999999</ele>
        <time>2017-11-26T09:12:04Z</time>
      </trkpt>
      <trkpt lat="46.324111539870501" lon="8.276947243139148">
        <ele>1765.1199999999999</ele>
        <time>2017-11-26T09:12:14Z</time>
      </trkpt>
      <trkpt lat="46.324093351140618" lon="8.276962079107761">
        <ele>1765.5999999999999</ele>
        <time>2017-11-26T09:12:26Z</time>
      </trkpt>
      <trkpt lat="46.324099050834775" lon="8.276952691376209">
        <ele>1764.6400000000001</ele>
        <time>2017-11-26T09:12:44Z</time>
      </trkpt>
      <trkpt lat="46.324105337262154" lon="8.276978591457009">
        <ele>1764.1600000000001</ele>
        <time>2017-11-26T09:12:59Z</time>
      </trkpt>
      <trkpt lat="46.324104331433773" lon="8.276951685547829">
        <ele>1764.1600000000001</ele>
        <time>2017-11-26T09:13:10Z</time>
      </trkpt>
      <trkpt lat="46.324119921773672" lon="8.276957971975207">
        <ele>1764.1600000000001</ele>
        <time>2017-11-26T09:13:12Z</time>
      </trkpt>
      <trkpt lat="46.324245650321245" lon="8.277041791006923">
        <ele>1764.1600000000001</ele>
        <time>2017-11-26T09:13:25Z</time>
      </trkpt>
      <trkpt lat="46.324277417734265" lon="8.277068780735135">
        <ele>1764.1600000000001</ele>
        <time>2017-11-26T09:13:30Z</time>
      </trkpt>
      <trkpt lat="46.32431480102241" lon="8.277104822918773">
        <ele>1764.1600000000001</ele>
        <time>2017-11-26T09:13:34Z</time>
      </trkpt>
      <trkpt lat="46.324403565376997" lon="8.277182020246983">
        <ele>1764.6400000000001</ele>
        <time>2017-11-26T09:13:44Z</time>
      </trkpt>
      <trkpt lat="46.324493000283837" lon="8.277244130149484">
        <ele>1764.6400000000001</ele>
        <time>2017-11-26T09:13:54Z</time>
      </trkpt>
      <trkpt lat="46.324567683041096" lon="8.277283776551485">
        <ele>1764.6400000000001</ele>
        <time>2017-11-26T09:14:02Z</time>
      </trkpt>
      <trkpt lat="46.324583692476153" lon="8.277297522872686">
        <ele>1764.6400000000001</ele>
        <time>2017-11-26T09:14:04Z</time>
      </trkpt>
      <trkpt lat="46.324631553143263" lon="8.277338929474354">
        <ele>1764.6400000000001</ele>
        <time>2017-11-26T09:14:09Z</time>
      </trkpt>
      <trkpt lat="46.32469198666513" lon="8.277392908930779">
        <ele>1764.6400000000001</ele>
        <time>2017-11-26T09:14:18Z</time>
      </trkpt>
      <trkpt lat="46.324786953628063" lon="8.277497766539455">
        <ele>1765.5999999999999</ele>
        <time>2017-11-26T09:14:28Z</time>
      </trkpt>
      <trkpt lat="46.324797514826059" lon="8.277513440698385">
        <ele>1765.5999999999999</ele>
        <time>2017-11-26T09:14:29Z</time>
      </trkpt>
      <trkpt lat="46.324852332472801" lon="8.277585273608565">
        <ele>1766.0799999999999</ele>
        <time>2017-11-26T09:14:36Z</time>
      </trkpt>
      <trkpt lat="46.324944533407688" lon="8.277695327997208">
        <ele>1765.1199999999999</ele>
        <time>2017-11-26T09:14:47Z</time>
      </trkpt>
      <trkpt lat="46.325018126517534" lon="8.277801778167486">
        <ele>1764.1600000000001</ele>
        <time>2017-11-26T09:14:57Z</time>
      </trkpt>
      <trkpt lat="46.325052408501506" lon="8.277860786765814">
        <ele>1764.6400000000001</ele>
        <time>2017-11-26T09:15:01Z</time>
      </trkpt>
      <trkpt lat="46.325078811496496" lon="8.277905713766813">
        <ele>1764.1600000000001</ele>
        <time>2017-11-26T09:15:05Z</time>
      </trkpt>
      <trkpt lat="46.325086355209351" lon="8.2779426779598">
        <ele>1765.1199999999999</ele>
        <time>2017-11-26T09:15:08Z</time>
      </trkpt>
      <trkpt lat="46.325131030753255" lon="8.277994310483336">
        <ele>1764.1600000000001</ele>
        <time>2017-11-26T09:15:14Z</time>
      </trkpt>
      <trkpt lat="46.325174868106842" lon="8.27806337736547">
        <ele>1764.1600000000001</ele>
        <time>2017-11-26T09:15:20Z</time>
      </trkpt>
      <trkpt lat="46.325202360749245" lon="8.278149124234915">
        <ele>1765.1199999999999</ele>
        <time>2017-11-26T09:15:29Z</time>
      </trkpt>
      <trkpt lat="46.325246030464768" lon="8.278216179460287">
        <ele>1764.6400000000001</ele>
        <time>2017-11-26T09:15:36Z</time>
      </trkpt>
      <trkpt lat="46.325313756242394" lon="8.278332017362118">
        <ele>1764.6400000000001</ele>
        <time>2017-11-26T09:15:47Z</time>
      </trkpt>
      <trkpt lat="46.32533990778029" lon="8.278357163071632">
        <ele>1765.1199999999999</ele>
        <time>2017-11-26T09:15:51Z</time>
      </trkpt>
      <trkpt lat="46.325364131480455" lon="8.278384823352099">
        <ele>1765.1199999999999</ele>
        <time>2017-11-26T09:15:54Z</time>
      </trkpt>
      <trkpt lat="46.325425487011671" lon="8.278500745072961">
        <ele>1765.5999999999999</ele>
        <time>2017-11-26T09:16:05Z</time>
      </trkpt>
      <trkpt lat="46.325465133413672" lon="8.278606943786144">
        <ele>1765.1199999999999</ele>
        <time>2017-11-26T09:16:14Z</time>
      </trkpt>
      <trkpt lat="46.325488267466426" lon="8.278711885213852">
        <ele>1765.1199999999999</ele>
        <time>2017-11-26T09:16:22Z</time>
      </trkpt>
      <trkpt lat="46.32548994384706" lon="8.278726134449244">
        <ele>1765.1199999999999</ele>
        <time>2017-11-26T09:16:23Z</time>
      </trkpt>
      <trkpt lat="46.325535541400313" lon="8.278848007321358">
        <ele>1764.6400000000001</ele>
        <time>2017-11-26T09:16:33Z</time>
      </trkpt>
      <trkpt lat="46.325603518635035" lon="8.278967533260584">
        <ele>1766.5599999999999</ele>
        <time>2017-11-26T09:16:43Z</time>
      </trkpt>
      <trkpt lat="46.325637465342879" lon="8.279028553515673">
        <ele>1765.1199999999999</ele>
        <time>2017-11-26T09:16:50Z</time>
      </trkpt>
      <trkpt lat="46.32566973567009" lon="8.279084963724017">
        <ele>1767.52</ele>
        <time>2017-11-26T09:16:55Z</time>
      </trkpt>
      <trkpt lat="46.325734108686447" lon="8.279187474399805">
        <ele>1766.5599999999999</ele>
        <time>2017-11-26T09:17:05Z</time>
      </trkpt>
      <trkpt lat="46.325759924948215" lon="8.279214883223176">
        <ele>1767.52</ele>
        <time>2017-11-26T09:17:09Z</time>
      </trkpt>
      <trkpt lat="46.32577333599329" lon="8.279261318966746">
        <ele>1767.52</ele>
        <time>2017-11-26T09:17:16Z</time>
      </trkpt>
      <trkpt lat="46.325841816142201" lon="8.27932502143085">
        <ele>1766.5599999999999</ele>
        <time>2017-11-26T09:17:25Z</time>
      </trkpt>
      <trkpt lat="46.325907530263066" lon="8.27942174859345">
        <ele>1767.04</ele>
        <time>2017-11-26T09:17:35Z</time>
      </trkpt>
      <trkpt lat="46.325922282412648" lon="8.279467010870576">
        <ele>1767.52</ele>
        <time>2017-11-26T09:17:39Z</time>
      </trkpt>
      <trkpt lat="46.325941141694784" lon="8.279512692242861">
        <ele>1767.04</ele>
        <time>2017-11-26T09:17:43Z</time>
      </trkpt>
      <trkpt lat="46.325966035947204" lon="8.27958301641047">
        <ele>1769.4400000000001</ele>
        <time>2017-11-26T09:17:55Z</time>
      </trkpt>
      <trkpt lat="46.326003922149539" lon="8.27960254624486">
        <ele>1769.9200000000001</ele>
        <time>2017-11-26T09:18:06Z</time>
      </trkpt>
      <trkpt lat="46.326088747009635" lon="8.279638672247529">
        <ele>1770.4100000000001</ele>
        <time>2017-11-26T09:18:17Z</time>
      </trkpt>
      <trkpt lat="46.326094195246696" lon="8.279660549014807">
        <ele>1770.4100000000001</ele>
        <time>2017-11-26T09:18:26Z</time>
      </trkpt>
      <trkpt lat="46.326096290722489" lon="8.279640851542354">
        <ele>1769.9200000000001</ele>
        <time>2017-11-26T09:18:41Z</time>
      </trkpt>
      <trkpt lat="46.326103247702122" lon="8.279649065807462">
        <ele>1770.4100000000001</ele>
        <time>2017-11-26T09:19:02Z</time>
      </trkpt>
      <trkpt lat="46.326183462515473" lon="8.279649149626494">
        <ele>1770.4100000000001</ele>
        <time>2017-11-26T09:19:13Z</time>
      </trkpt>
      <trkpt lat="46.326257223263383" lon="8.279634732753038">
        <ele>1770.4100000000001</ele>
        <time>2017-11-26T09:19:22Z</time>
      </trkpt>
      <trkpt lat="46.326341964304447" lon="8.279598774388433">
        <ele>1770.8900000000001</ele>
        <time>2017-11-26T09:19:32Z</time>
      </trkpt>
      <trkpt lat="46.326351268216968" lon="8.27959475107491">
        <ele>1770.8900000000001</ele>
        <time>2017-11-26T09:19:33Z</time>
      </trkpt>
      <trkpt lat="46.326436595991254" lon="8.279622914269567">
        <ele>1770.4100000000001</ele>
        <time>2017-11-26T09:19:45Z</time>
      </trkpt>
      <trkpt lat="46.326450426131487" lon="8.279624758288264">
        <ele>1770.4100000000001</ele>
        <time>2017-11-26T09:19:47Z</time>
      </trkpt>
      <trkpt lat="46.326546482741833" lon="8.279668176546693">
        <ele>1771.3699999999999</ele>
        <time>2017-11-26T09:19:57Z</time>
      </trkpt>
      <trkpt lat="46.326591242104769" lon="8.27971201390028">
        <ele>1772.3299999999999</ele>
        <time>2017-11-26T09:20:02Z</time>
      </trkpt>
      <trkpt lat="46.326645137742162" lon="8.279795749112964">
        <ele>1770.4100000000001</ele>
        <time>2017-11-26T09:20:13Z</time>
      </trkpt>
      <trkpt lat="46.326642790809274" lon="8.279798263683915">
        <ele>1769.9200000000001</ele>
        <time>2017-11-26T09:20:14Z</time>
      </trkpt>
      <trkpt lat="46.326690064743161" lon="8.279833467677236">
        <ele>1770.4100000000001</ele>
        <time>2017-11-26T09:20:26Z</time>
      </trkpt>
      <trkpt lat="46.326676234602928" lon="8.279872443526983">
        <ele>1772.8099999999999</ele>
        <time>2017-11-26T09:20:35Z</time>
      </trkpt>
      <trkpt lat="46.326669277623296" lon="8.279872024431825">
        <ele>1770.4100000000001</ele>
        <time>2017-11-26T09:20:37Z</time>
      </trkpt>
      <trkpt lat="46.326727699488401" lon="8.279899349436164">
        <ele>1768.96</ele>
        <time>2017-11-26T09:20:47Z</time>
      </trkpt>
      <trkpt lat="46.326846638694406" lon="8.279902702197433">
        <ele>1771.3699999999999</ele>
        <time>2017-11-26T09:20:58Z</time>
      </trkpt>
      <trkpt lat="46.326932301744819" lon="8.279902366921306">
        <ele>1772.3299999999999</ele>
        <time>2017-11-26T09:21:08Z</time>
      </trkpt>
      <trkpt lat="46.326984940096736" lon="8.279903372749686">
        <ele>1773.29</ele>
        <time>2017-11-26T09:21:13Z</time>
      </trkpt>
      <trkpt lat="46.327010504901409" lon="8.279902283102274">
        <ele>1773.29</ele>
        <time>2017-11-26T09:21:16Z</time>
      </trkpt>
      <trkpt lat="46.327085522934794" lon="8.279892727732658">
        <ele>1774.25</ele>
        <time>2017-11-26T09:21:26Z</time>
      </trkpt>
      <trkpt lat="46.327122654765844" lon="8.279893063008785">
        <ele>1774.25</ele>
        <time>2017-11-26T09:21:30Z</time>
      </trkpt>
      <trkpt lat="46.327149644494057" lon="8.279912425205112">
        <ele>1774.25</ele>
        <time>2017-11-26T09:21:40Z</time>
      </trkpt>
      <trkpt lat="46.327184429392219" lon="8.279894655570388">
        <ele>1774.25</ele>
        <time>2017-11-26T09:21:51Z</time>
      </trkpt>
      <trkpt lat="46.327186105772853" lon="8.279868252575398">
        <ele>1773.29</ele>
        <time>2017-11-26T09:22:01Z</time>
      </trkpt>
      <trkpt lat="46.327185519039631" lon="8.279847968369722">
        <ele>1773.29</ele>
        <time>2017-11-26T09:22:11Z</time>
      </trkpt>
      <trkpt lat="46.327182166278362" lon="8.27980924397707">
        <ele>1773.29</ele>
        <time>2017-11-26T09:22:23Z</time>
      </trkpt>
      <trkpt lat="46.327191302552819" lon="8.279848471283913">
        <ele>1772.8099999999999</ele>
        <time>2017-11-26T09:22:31Z</time>
      </trkpt>
      <trkpt lat="46.327194822952151" lon="8.279907647520304">
        <ele>1773.29</ele>
        <time>2017-11-26T09:22:53Z</time>
      </trkpt>
      <trkpt lat="46.327199265360832" lon="8.279927764087915">
        <ele>1772.3299999999999</ele>
        <time>2017-11-26T09:23:09Z</time>
      </trkpt>
      <trkpt lat="46.32721183821559" lon="8.279921561479569">
        <ele>1771.8499999999999</ele>
        <time>2017-11-26T09:23:22Z</time>
      </trkpt>
      <trkpt lat="46.327193984761834" lon="8.279900439083576">
        <ele>1773.77</ele>
        <time>2017-11-26T09:23:34Z</time>
      </trkpt>
      <trkpt lat="46.32720991037786" lon="8.279900774359703">
        <ele>1771.3699999999999</ele>
        <time>2017-11-26T09:23:43Z</time>
      </trkpt>
      <trkpt lat="46.32724117487669" lon="8.279867582023144">
        <ele>1772.3299999999999</ele>
        <time>2017-11-26T09:23:58Z</time>
      </trkpt>
      <trkpt lat="46.327258022502065" lon="8.279836066067219">
        <ele>1772.3299999999999</ele>
        <time>2017-11-26T09:24:13Z</time>
      </trkpt>
      <trkpt lat="46.327240252867341" lon="8.279830198734999">
        <ele>1772.8099999999999</ele>
        <time>2017-11-26T09:24:27Z</time>
      </trkpt>
      <trkpt lat="46.327270176261663" lon="8.279822571203113">
        <ele>1773.29</ele>
        <time>2017-11-26T09:24:32Z</time>
      </trkpt>
      <trkpt lat="46.327306721359491" lon="8.279755264520645">
        <ele>1773.29</ele>
        <time>2017-11-26T09:24:41Z</time>
      </trkpt>
      <trkpt lat="46.327358018606901" lon="8.279686365276575">
        <ele>1773.29</ele>
        <time>2017-11-26T09:24:51Z</time>
      </trkpt>
      <trkpt lat="46.32741074077785" lon="8.279623501002789">
        <ele>1773.77</ele>
        <time>2017-11-26T09:25:01Z</time>
      </trkpt>
      <trkpt lat="46.327432366088033" lon="8.279586201533675">
        <ele>1773.77</ele>
        <time>2017-11-26T09:25:06Z</time>
      </trkpt>
      <trkpt lat="46.327500008046627" lon="8.27952241525054">
        <ele>1773.77</ele>
        <time>2017-11-26T09:25:16Z</time>
      </trkpt>
      <trkpt lat="46.327578881755471" lon="8.279473045840859">
        <ele>1774.25</ele>
        <time>2017-11-26T09:25:26Z</time>
      </trkpt>
      <trkpt lat="46.32761056534946" lon="8.279457958415151">
        <ele>1774.25</ele>
        <time>2017-11-26T09:25:31Z</time>
      </trkpt>
      <trkpt lat="46.327626155689359" lon="8.279461227357388">
        <ele>1774.25</ele>
        <time>2017-11-26T09:25:34Z</time>
      </trkpt>
      <trkpt lat="46.327658845111728" lon="8.279463825747371">
        <ele>1774.25</ele>
        <time>2017-11-26T09:25:42Z</time>
      </trkpt>
      <trkpt lat="46.327692875638604" lon="8.279495844617486">
        <ele>1775.21</ele>
        <time>2017-11-26T09:25:53Z</time>
      </trkpt>
      <trkpt lat="46.327756494283676" lon="8.279516715556383">
        <ele>1775.21</ele>
        <time>2017-11-26T09:26:03Z</time>
      </trkpt>
      <trkpt lat="46.327850539237261" lon="8.27953121624887">
        <ele>1775.6900000000001</ele>
        <time>2017-11-26T09:26:14Z</time>
      </trkpt>
      <trkpt lat="46.327885994687676" lon="8.279528869315982">
        <ele>1776.1700000000001</ele>
        <time>2017-11-26T09:26:18Z</time>
      </trkpt>
      <trkpt lat="46.327909044921398" lon="8.279502047225833">
        <ele>1776.1700000000001</ele>
        <time>2017-11-26T09:26:23Z</time>
      </trkpt>
      <trkpt lat="46.327946595847607" lon="8.279396099969745">
        <ele>1776.1700000000001</ele>
        <time>2017-11-26T09:26:32Z</time>
      </trkpt>
      <trkpt lat="46.328033935278654" lon="8.279415797442198">
        <ele>1774.73</ele>
        <time>2017-11-26T09:26:41Z</time>
      </trkpt>
      <trkpt lat="46.328067295253277" lon="8.279423676431179">
        <ele>1776.1700000000001</ele>
        <time>2017-11-26T09:26:44Z</time>
      </trkpt>
      <trkpt lat="46.328094452619553" lon="8.27943348325789">
        <ele>1776.1700000000001</ele>
        <time>2017-11-26T09:26:47Z</time>
      </trkpt>
      <trkpt lat="46.328121107071638" lon="8.279442451894283">
        <ele>1776.1700000000001</ele>
        <time>2017-11-26T09:26:50Z</time>
      </trkpt>
      <trkpt lat="46.32819545455277" lon="8.27947405166924">
        <ele>1776.1700000000001</ele>
        <time>2017-11-26T09:26:59Z</time>
      </trkpt>
      <trkpt lat="46.32829125970602" lon="8.279502298682928">
        <ele>1778.5799999999999</ele>
        <time>2017-11-26T09:27:09Z</time>
      </trkpt>
      <trkpt lat="46.328376671299338" lon="8.279521660879254">
        <ele>1778.0999999999999</ele>
        <time>2017-11-26T09:27:18Z</time>
      </trkpt>
      <trkpt lat="46.328455042093992" lon="8.27954588457942">
        <ele>1777.1300000000001</ele>
        <time>2017-11-26T09:27:26Z</time>
      </trkpt>
      <trkpt lat="46.328516816720366" lon="8.279583435505629">
        <ele>1779.0599999999999</ele>
        <time>2017-11-26T09:27:34Z</time>
      </trkpt>
      <trkpt lat="46.32856534793973" lon="8.279627021402121">
        <ele>1778.5799999999999</ele>
        <time>2017-11-26T09:27:40Z</time>
      </trkpt>
      <trkpt lat="46.328642461448908" lon="8.279711343348026">
        <ele>1778.5799999999999</ele>
        <time>2017-11-26T09:27:50Z</time>
      </trkpt>
      <trkpt lat="46.328717982396483" lon="8.279788959771395">
        <ele>1779.0599999999999</ele>
        <time>2017-11-26T09:28:00Z</time>
      </trkpt>
      <trkpt lat="46.32879551500082" lon="8.279846543446183">
        <ele>1779.0599999999999</ele>
        <time>2017-11-26T09:28:09Z</time>
      </trkpt>
      <trkpt lat="46.328858630731702" lon="8.279911335557699">
        <ele>1780.5</ele>
        <time>2017-11-26T09:28:18Z</time>
      </trkpt>
      <trkpt lat="46.328913196921349" lon="8.279963890090585">
        <ele>1781.46</ele>
        <time>2017-11-26T09:28:25Z</time>
      </trkpt>
      <trkpt lat="46.329014198854566" lon="8.280006721615791">
        <ele>1780.98</ele>
        <time>2017-11-26T09:28:36Z</time>
      </trkpt>
      <trkpt lat="46.329105645418167" lon="8.280011583119631">
        <ele>1781.46</ele>
        <time>2017-11-26T09:28:46Z</time>
      </trkpt>
      <trkpt lat="46.329184686765075" lon="8.279992137104273">
        <ele>1781.9400000000001</ele>
        <time>2017-11-26T09:28:56Z</time>
      </trkpt>
      <trkpt lat="46.329282587394118" lon="8.279971517622471">
        <ele>1782.9000000000001</ele>
        <time>2017-11-26T09:29:08Z</time>
      </trkpt>
      <trkpt lat="46.329327933490276" lon="8.279948970302939">
        <ele>1783.3800000000001</ele>
        <time>2017-11-26T09:29:13Z</time>
      </trkpt>
      <trkpt lat="46.329410243779421" lon="8.279927428811789">
        <ele>1784.3399999999999</ele>
        <time>2017-11-26T09:29:23Z</time>
      </trkpt>
      <trkpt lat="46.329458858817816" lon="8.279903708025813">
        <ele>1783.8599999999999</ele>
        <time>2017-11-26T09:29:32Z</time>
      </trkpt>
      <trkpt lat="46.329540582373738" lon="8.279840005561709">
        <ele>1784.3399999999999</ele>
        <time>2017-11-26T09:29:42Z</time>
      </trkpt>
      <trkpt lat="46.329619036987424" lon="8.279807902872562">
        <ele>1785.3099999999999</ele>
        <time>2017-11-26T09:29:51Z</time>
      </trkpt>
      <trkpt lat="46.329709477722645" lon="8.279767669737339">
        <ele>1786.27</ele>
        <time>2017-11-26T09:30:01Z</time>
      </trkpt>
      <trkpt lat="46.329761277884245" lon="8.279772698879242">
        <ele>1787.23</ele>
        <time>2017-11-26T09:30:07Z</time>
      </trkpt>
      <trkpt lat="46.329795643687248" lon="8.279767585918307">
        <ele>1787.71</ele>
        <time>2017-11-26T09:30:10Z</time>
      </trkpt>
      <trkpt lat="46.329877786338329" lon="8.279717043042183">
        <ele>1789.6300000000001</ele>
        <time>2017-11-26T09:30:20Z</time>
      </trkpt>
      <trkpt lat="46.329954313114285" lon="8.279688209295273">
        <ele>1790.5899999999999</ele>
        <time>2017-11-26T09:30:30Z</time>
      </trkpt>
      <trkpt lat="46.33003176189959" lon="8.279672032222152">
        <ele>1791.0699999999999</ele>
        <time>2017-11-26T09:30:39Z</time>
      </trkpt>
      <trkpt lat="46.330040814355016" lon="8.279671026393771">
        <ele>1791.0699999999999</ele>
        <time>2017-11-26T09:30:40Z</time>
      </trkpt>
      <trkpt lat="46.330109210684896" lon="8.279676642268896">
        <ele>1791.55</ele>
        <time>2017-11-26T09:30:47Z</time>
      </trkpt>
      <trkpt lat="46.330199064686894" lon="8.279742524027824">
        <ele>1791.55</ele>
        <time>2017-11-26T09:30:57Z</time>
      </trkpt>
      <trkpt lat="46.330278525128961" lon="8.27978284098208">
        <ele>1792.03</ele>
        <time>2017-11-26T09:31:06Z</time>
      </trkpt>
      <trkpt lat="46.330357398837805" lon="8.279792312532663">
        <ele>1793</ele>
        <time>2017-11-26T09:31:14Z</time>
      </trkpt>
      <trkpt lat="46.330423532053828" lon="8.279796000570059">
        <ele>1794.4400000000001</ele>
        <time>2017-11-26T09:31:22Z</time>
      </trkpt>
      <trkpt lat="46.330445744097233" lon="8.279810920357704">
        <ele>1793.96</ele>
        <time>2017-11-26T09:31:26Z</time>
      </trkpt>
      <trkpt lat="46.330508105456829" lon="8.279825085774064">
        <ele>1793.96</ele>
        <time>2017-11-26T09:31:36Z</time>
      </trkpt>
      <trkpt lat="46.330562504008412" lon="8.279855763539672">
        <ele>1794.4400000000001</ele>
        <time>2017-11-26T09:31:45Z</time>
      </trkpt>
      <trkpt lat="46.330571975558996" lon="8.279855763539672">
        <ele>1795.4000000000001</ele>
        <time>2017-11-26T09:31:47Z</time>
      </trkpt>
      <trkpt lat="46.330632492899895" lon="8.27990697696805">
        <ele>1797.3199999999999</ele>
        <time>2017-11-26T09:31:57Z</time>
      </trkpt>
      <trkpt lat="46.330699548125267" lon="8.279936397448182">
        <ele>1797.8</ele>
        <time>2017-11-26T09:32:07Z</time>
      </trkpt>
      <trkpt lat="46.330763334408402" lon="8.279950395226479">
        <ele>1798.76</ele>
        <time>2017-11-26T09:32:17Z</time>
      </trkpt>
      <trkpt lat="46.330804992467165" lon="8.27996464446187">
        <ele>1800.21</ele>
        <time>2017-11-26T09:32:25Z</time>
      </trkpt>
      <trkpt lat="46.330859726294875" lon="8.280001524835825">
        <ele>1801.6500000000001</ele>
        <time>2017-11-26T09:32:34Z</time>
      </trkpt>
      <trkpt lat="46.330914963036776" lon="8.280020635575056">
        <ele>1803.0899999999999</ele>
        <time>2017-11-26T09:32:44Z</time>
      </trkpt>
      <trkpt lat="46.330978665500879" lon="8.280050558969379">
        <ele>1804.53</ele>
        <time>2017-11-26T09:32:54Z</time>
      </trkpt>
      <trkpt lat="46.331026274710894" lon="8.280052822083235">
        <ele>1805.97</ele>
        <time>2017-11-26T09:33:04Z</time>
      </trkpt>
      <trkpt lat="46.331088719889522" lon="8.280062042176724">
        <ele>1807.9000000000001</ele>
        <time>2017-11-26T09:33:13Z</time>
      </trkpt>
      <trkpt lat="46.331154685467482" lon="8.280075704678893">
        <ele>1809.8199999999999</ele>
        <time>2017-11-26T09:33:23Z</time>
      </trkpt>
      <trkpt lat="46.331225596368313" lon="8.280108561739326">
        <ele>1809.8199999999999</ele>
        <time>2017-11-26T09:33:33Z</time>
      </trkpt>
      <trkpt lat="46.331295669078827" lon="8.28011610545218">
        <ele>1811.26</ele>
        <time>2017-11-26T09:33:43Z</time>
      </trkpt>
      <trkpt lat="46.331351241096854" lon="8.28014250844717">
        <ele>1813.1800000000001</ele>
        <time>2017-11-26T09:33:53Z</time>
      </trkpt>
      <trkpt lat="46.331421481445432" lon="8.280156003311276">
        <ele>1812.7</ele>
        <time>2017-11-26T09:34:02Z</time>
      </trkpt>
      <trkpt lat="46.331465570256114" lon="8.280146112665534">
        <ele>1813.1800000000001</ele>
        <time>2017-11-26T09:34:11Z</time>
      </trkpt>
      <trkpt lat="46.331521729007363" lon="8.280170084908605">
        <ele>1814.1500000000001</ele>
        <time>2017-11-26T09:34:21Z</time>
      </trkpt>
      <trkpt lat="46.331528769806027" lon="8.28017327003181">
        <ele>1814.1500000000001</ele>
        <time>2017-11-26T09:34:22Z</time>
      </trkpt>
      <trkpt lat="46.33154209703207" lon="8.280190033838153">
        <ele>1815.5899999999999</ele>
        <time>2017-11-26T09:34:25Z</time>
      </trkpt>
      <trkpt lat="46.331578055396676" lon="8.280206965282559">
        <ele>1817.03</ele>
        <time>2017-11-26T09:34:30Z</time>
      </trkpt>
      <trkpt lat="46.331585934385657" lon="8.280208222568035">
        <ele>1818.47</ele>
        <time>2017-11-26T09:34:32Z</time>
      </trkpt>
      <trkpt lat="46.331636728718877" lon="8.280202690511942">
        <ele>1818.95</ele>
        <time>2017-11-26T09:34:40Z</time>
      </trkpt>
      <trkpt lat="46.331654498353601" lon="8.280206210911274">
        <ele>1819.9100000000001</ele>
        <time>2017-11-26T09:34:43Z</time>
      </trkpt>
      <trkpt lat="46.331707136705518" lon="8.280183412134647">
        <ele>1821.8399999999999</ele>
        <time>2017-11-26T09:34:53Z</time>
      </trkpt>
      <trkpt lat="46.331763127818704" lon="8.280192296952009">
        <ele>1820.3900000000001</ele>
        <time>2017-11-26T09:35:01Z</time>
      </trkpt>
      <trkpt lat="46.331837140023708" lon="8.280214257538319">
        <ele>1822.8</ele>
        <time>2017-11-26T09:35:12Z</time>
      </trkpt>
      <trkpt lat="46.331895897164941" lon="8.280250383540988">
        <ele>1823.76</ele>
        <time>2017-11-26T09:35:21Z</time>
      </trkpt>
      <trkpt lat="46.331912744790316" lon="8.280277121812105">
        <ele>1823.28</ele>
        <time>2017-11-26T09:35:27Z</time>
      </trkpt>
      <trkpt lat="46.33196622133255" lon="8.280334286391735">
        <ele>1825.2</ele>
        <time>2017-11-26T09:35:36Z</time>
      </trkpt>
      <trkpt lat="46.332026151940227" lon="8.280381141230464">
        <ele>1826.6400000000001</ele>
        <time>2017-11-26T09:35:45Z</time>
      </trkpt>
      <trkpt lat="46.332082813605666" lon="8.280412489548326">
        <ele>1827.5999999999999</ele>
        <time>2017-11-26T09:35:53Z</time>
      </trkpt>
      <trkpt lat="46.332090776413679" lon="8.280421458184719">
        <ele>1827.5999999999999</ele>
        <time>2017-11-26T09:35:55Z</time>
      </trkpt>
      <trkpt lat="46.332164788618684" lon="8.280459176748991">
        <ele>1829.53</ele>
        <time>2017-11-26T09:36:06Z</time>
      </trkpt>
      <trkpt lat="46.332202423363924" lon="8.28048356808722">
        <ele>1830.97</ele>
        <time>2017-11-26T09:36:14Z</time>
      </trkpt>
      <trkpt lat="46.332258246839046" lon="8.280508797615767">
        <ele>1832.4100000000001</ele>
        <time>2017-11-26T09:36:24Z</time>
      </trkpt>
      <trkpt lat="46.332276351749897" lon="8.280552802607417">
        <ele>1833.8499999999999</ele>
        <time>2017-11-26T09:36:32Z</time>
      </trkpt>
      <trkpt lat="46.332301581278443" lon="8.280565543100238">
        <ele>1834.8099999999999</ele>
        <time>2017-11-26T09:36:37Z</time>
      </trkpt>
      <trkpt lat="46.332372492179275" lon="8.280614912509918">
        <ele>1835.29</ele>
        <time>2017-11-26T09:36:47Z</time>
      </trkpt>
      <trkpt lat="46.332421023398638" lon="8.280652379617095">
        <ele>1837.22</ele>
        <time>2017-11-26T09:36:56Z</time>
      </trkpt>
      <trkpt lat="46.332447174936533" lon="8.280681548640132">
        <ele>1837.22</ele>
        <time>2017-11-26T09:37:01Z</time>
      </trkpt>
      <trkpt lat="46.332466118037701" lon="8.280697138980031">
        <ele>1837.22</ele>
        <time>2017-11-26T09:37:04Z</time>
      </trkpt>
      <trkpt lat="46.332538453862071" lon="8.280735444277525">
        <ele>1838.1800000000001</ele>
        <time>2017-11-26T09:37:13Z</time>
      </trkpt>
      <trkpt lat="46.332600899040699" lon="8.280780706554651">
        <ele>1838.1800000000001</ele>
        <time>2017-11-26T09:37:23Z</time>
      </trkpt>
      <trkpt lat="46.332608191296458" lon="8.280783891677856">
        <ele>1838.1800000000001</ele>
        <time>2017-11-26T09:37:24Z</time>
      </trkpt>
      <trkpt lat="46.332641299813986" lon="8.280803337693214">
        <ele>1839.1400000000001</ele>
        <time>2017-11-26T09:37:29Z</time>
      </trkpt>
      <trkpt lat="46.332688573747873" lon="8.280805936083198">
        <ele>1840.0999999999999</ele>
        <time>2017-11-26T09:37:37Z</time>
      </trkpt>
      <trkpt lat="46.332738446071744" lon="8.280815407633781">
        <ele>1841.54</ele>
        <time>2017-11-26T09:37:47Z</time>
      </trkpt>
      <trkpt lat="46.332747582346201" lon="8.280814317986369">
        <ele>1842.5</ele>
        <time>2017-11-26T09:37:48Z</time>
      </trkpt>
      <trkpt lat="46.332809943705797" lon="8.280862681567669">
        <ele>1843.95</ele>
        <time>2017-11-26T09:37:58Z</time>
      </trkpt>
      <trkpt lat="46.332828132435679" lon="8.280859664082527">
        <ele>1845.8699999999999</ele>
        <time>2017-11-26T09:38:03Z</time>
      </trkpt>
      <trkpt lat="46.332860151305795" lon="8.280826220288873">
        <ele>1844.9100000000001</ele>
        <time>2017-11-26T09:38:12Z</time>
      </trkpt>
      <trkpt lat="46.332916058599949" lon="8.280852371826768">
        <ele>1846.8299999999999</ele>
        <time>2017-11-26T09:38:22Z</time>
      </trkpt>
      <trkpt lat="46.332925362512469" lon="8.280879696831107">
        <ele>1849.71</ele>
        <time>2017-11-26T09:38:27Z</time>
      </trkpt>
      <trkpt lat="46.332901138812304" lon="8.280877433717251">
        <ele>1848.27</ele>
        <time>2017-11-26T09:38:39Z</time>
      </trkpt>
      <trkpt lat="46.332903569564223" lon="8.280868967995048">
        <ele>1849.23</ele>
        <time>2017-11-26T09:38:41Z</time>
      </trkpt>
      <trkpt lat="46.332899630069733" lon="8.280874500051141">
        <ele>1847.79</ele>
        <time>2017-11-26T09:38:44Z</time>
      </trkpt>
      <trkpt lat="46.332923686131835" lon="8.280894532799721">
        <ele>1847.79</ele>
        <time>2017-11-26T09:38:49Z</time>
      </trkpt>
      <trkpt lat="46.332918489351869" lon="8.280930239707232">
        <ele>1848.75</ele>
        <time>2017-11-26T09:38:57Z</time>
      </trkpt>
      <trkpt lat="46.332889152690768" lon="8.280914397910237">
        <ele>1848.27</ele>
        <time>2017-11-26T09:39:14Z</time>
      </trkpt>
      <trkpt lat="46.332896696403623" lon="8.280886905267835">
        <ele>1849.23</ele>
        <time>2017-11-26T09:39:28Z</time>
      </trkpt>
      <trkpt lat="46.332954866811633" lon="8.280953457579017">
        <ele>1847.79</ele>
        <time>2017-11-26T09:39:37Z</time>
      </trkpt>
      <trkpt lat="46.333000967279077" lon="8.280999725684524">
        <ele>1848.27</ele>
        <time>2017-11-26T09:39:43Z</time>
      </trkpt>
      <trkpt lat="46.333059724420309" lon="8.281014142557979">
        <ele>1852.1199999999999</ele>
        <time>2017-11-26T09:39:51Z</time>
      </trkpt>
      <trkpt lat="46.333081852644682" lon="8.281041970476508">
        <ele>1853.5599999999999</ele>
        <time>2017-11-26T09:39:58Z</time>
      </trkpt>
      <trkpt lat="46.333115547895432" lon="8.281038114801049">
        <ele>1852.1199999999999</ele>
        <time>2017-11-26T09:40:02Z</time>
      </trkpt>
      <trkpt lat="46.333176484331489" lon="8.281050687655807">
        <ele>1848.75</ele>
        <time>2017-11-26T09:40:08Z</time>
      </trkpt>
      <trkpt lat="46.333221411332488" lon="8.281050939112902">
        <ele>1850.1900000000001</ele>
        <time>2017-11-26T09:40:13Z</time>
      </trkpt>
      <trkpt lat="46.333270948380232" lon="8.281067535281181">
        <ele>1851.1600000000001</ele>
        <time>2017-11-26T09:40:18Z</time>
      </trkpt>
      <trkpt lat="46.333292154595256" lon="8.281084885820746">
        <ele>1851.1600000000001</ele>
        <time>2017-11-26T09:40:21Z</time>
      </trkpt>
      <trkpt lat="46.333322077989578" lon="8.281099973246455">
        <ele>1852.1199999999999</ele>
        <time>2017-11-26T09:40:24Z</time>
      </trkpt>
      <trkpt lat="46.333363903686404" lon="8.281131237745285">
        <ele>1854.04</ele>
        <time>2017-11-26T09:40:28Z</time>
      </trkpt>
      <trkpt lat="46.333447219803929" lon="8.281197203323245">
        <ele>1853.0799999999999</ele>
        <time>2017-11-26T09:40:37Z</time>
      </trkpt>
      <trkpt lat="46.333499271422625" lon="8.281222013756633">
        <ele>1855</ele>
        <time>2017-11-26T09:40:46Z</time>
      </trkpt>
      <trkpt lat="46.333525339141488" lon="8.281218912452459">
        <ele>1855.96</ele>
        <time>2017-11-26T09:40:52Z</time>
      </trkpt>
      <trkpt lat="46.333566829562187" lon="8.281210195273161">
        <ele>1859.3299999999999</ele>
        <time>2017-11-26T09:40:59Z</time>
      </trkpt>
      <trkpt lat="46.333582336083055" lon="8.281198879703879">
        <ele>1859.8099999999999</ele>
        <time>2017-11-26T09:41:01Z</time>
      </trkpt>
      <trkpt lat="46.333613265305758" lon="8.281193599104881">
        <ele>1856.9200000000001</ele>
        <time>2017-11-26T09:41:06Z</time>
      </trkpt>
      <trkpt lat="46.333620976656675" lon="8.281195275485516">
        <ele>1856.9200000000001</ele>
        <time>2017-11-26T09:41:07Z</time>
      </trkpt>
      <trkpt lat="46.333702281117439" lon="8.281198628246784">
        <ele>1857.4000000000001</ele>
        <time>2017-11-26T09:41:17Z</time>
      </trkpt>
      <trkpt lat="46.333766235038638" lon="8.281200053170323">
        <ele>1860.77</ele>
        <time>2017-11-26T09:41:25Z</time>
      </trkpt>
      <trkpt lat="46.333784759044647" lon="8.281197538599372">
        <ele>1864.1300000000001</ele>
        <time>2017-11-26T09:41:27Z</time>
      </trkpt>
      <trkpt lat="46.33379221893847" lon="8.281199801713228">
        <ele>1864.1300000000001</ele>
        <time>2017-11-26T09:41:28Z</time>
      </trkpt>
      <trkpt lat="46.333863465115428" lon="8.281218828633428">
        <ele>1866.0599999999999</ele>
        <time>2017-11-26T09:41:38Z</time>
      </trkpt>
      <trkpt lat="46.333928676322103" lon="8.281240705400705">
        <ele>1863.1700000000001</ele>
        <time>2017-11-26T09:41:45Z</time>
      </trkpt>
      <trkpt lat="46.334008388221264" lon="8.281283956021071">
        <ele>1862.21</ele>
        <time>2017-11-26T09:41:55Z</time>
      </trkpt>
      <trkpt lat="46.334089692682028" lon="8.281306754797697">
        <ele>1861.73</ele>
        <time>2017-11-26T09:42:05Z</time>
      </trkpt>
      <trkpt lat="46.334173260256648" lon="8.281381018459797">
        <ele>1864.6099999999999</ele>
        <time>2017-11-26T09:42:17Z</time>
      </trkpt>
      <trkpt lat="46.334235956892371" lon="8.281423514708877">
        <ele>1865.0899999999999</ele>
        <time>2017-11-26T09:42:25Z</time>
      </trkpt>
      <trkpt lat="46.334312986582518" lon="8.281455282121897">
        <ele>1865.5799999999999</ele>
        <time>2017-11-26T09:42:35Z</time>
      </trkpt>
      <trkpt lat="46.334338802844286" lon="8.281461400911212">
        <ele>1867.02</ele>
        <time>2017-11-26T09:42:44Z</time>
      </trkpt>
      <trkpt lat="46.334385992959142" lon="8.281441787257791">
        <ele>1867.98</ele>
        <time>2017-11-26T09:42:53Z</time>
      </trkpt>
      <trkpt lat="46.334448354318738" lon="8.281429717317224">
        <ele>1869.4200000000001</ele>
        <time>2017-11-26T09:43:02Z</time>
      </trkpt>
      <trkpt lat="46.334491604939103" lon="8.281354615464807">
        <ele>1871.8199999999999</ele>
        <time>2017-11-26T09:43:11Z</time>
      </trkpt>
      <trkpt lat="46.334497388452291" lon="8.281349670141935">
        <ele>1871.8199999999999</ele>
        <time>2017-11-26T09:43:12Z</time>
      </trkpt>
      <trkpt lat="46.334553463384509" lon="8.281321255490184">
        <ele>1873.27</ele>
        <time>2017-11-26T09:43:22Z</time>
      </trkpt>
      <trkpt lat="46.334588164463639" lon="8.281302396208048">
        <ele>1874.23</ele>
        <time>2017-11-26T09:43:28Z</time>
      </trkpt>
      <trkpt lat="46.334680868312716" lon="8.281288566067815">
        <ele>1877.1099999999999</ele>
        <time>2017-11-26T09:43:38Z</time>
      </trkpt>
      <trkpt lat="46.334704756736755" lon="8.281281189993024">
        <ele>1874.71</ele>
        <time>2017-11-26T09:43:41Z</time>
      </trkpt>
      <trkpt lat="46.334728477522731" lon="8.281319998204708">
        <ele>1875.1900000000001</ele>
        <time>2017-11-26T09:43:51Z</time>
      </trkpt>
      <trkpt lat="46.334752282127738" lon="8.281374396756291">
        <ele>1873.75</ele>
        <time>2017-11-26T09:43:56Z</time>
      </trkpt>
      <trkpt lat="46.334766782820225" lon="8.281472716480494">
        <ele>1873.27</ele>
        <time>2017-11-26T09:44:04Z</time>
      </trkpt>
      <trkpt lat="46.334762843325734" lon="8.28146860934794">
        <ele>1875.6700000000001</ele>
        <time>2017-11-26T09:44:13Z</time>
      </trkpt>
      <trkpt lat="46.334767285734415" lon="8.281454527750611">
        <ele>1872.3</ele>
        <time>2017-11-26T09:44:16Z</time>
      </trkpt>
      <trkpt lat="46.334765441715717" lon="8.281452348455787">
        <ele>1871.8199999999999</ele>
        <time>2017-11-26T09:44:17Z</time>
      </trkpt>
      <trkpt lat="46.334765860810876" lon="8.281425777822733">
        <ele>1873.27</ele>
        <time>2017-11-26T09:44:30Z</time>
      </trkpt>
      <trkpt lat="46.334766615182161" lon="8.281521918252111">
        <ele>1870.3800000000001</ele>
        <time>2017-11-26T09:44:43Z</time>
      </trkpt>
      <trkpt lat="46.334781954064965" lon="8.281573383137584">
        <ele>1869.9000000000001</ele>
        <time>2017-11-26T09:44:47Z</time>
      </trkpt>
      <trkpt lat="46.334796790033579" lon="8.281603809446096">
        <ele>1870.3800000000001</ele>
        <time>2017-11-26T09:44:56Z</time>
      </trkpt>
      <trkpt lat="46.334774410352111" lon="8.281583860516548">
        <ele>1872.79</ele>
        <time>2017-11-26T09:45:11Z</time>
      </trkpt>
      <trkpt lat="46.334780277684331" lon="8.281598193570972">
        <ele>1868.9400000000001</ele>
        <time>2017-11-26T09:45:28Z</time>
      </trkpt>
      <trkpt lat="46.334792515262961" lon="8.281624093651772">
        <ele>1870.8599999999999</ele>
        <time>2017-11-26T09:45:34Z</time>
      </trkpt>
      <trkpt lat="46.334793688729405" lon="8.281629960983992">
        <ele>1867.5</ele>
        <time>2017-11-26T09:45:36Z</time>
      </trkpt>
      <trkpt lat="46.334802657365799" lon="8.281620237976313">
        <ele>1870.8599999999999</ele>
        <time>2017-11-26T09:45:41Z</time>
      </trkpt>
      <trkpt lat="46.334803327918053" lon="8.281623087823391">
        <ele>1870.3800000000001</ele>
        <time>2017-11-26T09:45:42Z</time>
      </trkpt>
      <trkpt lat="46.334812883287668" lon="8.281633732840419">
        <ele>1873.75</ele>
        <time>2017-11-26T09:45:50Z</time>
      </trkpt>
      <trkpt lat="46.334813721477985" lon="8.281624261289835">
        <ele>1871.8199999999999</ele>
        <time>2017-11-26T09:45:54Z</time>
      </trkpt>
      <trkpt lat="46.334815230220556" lon="8.281617723405361">
        <ele>1870.8599999999999</ele>
        <time>2017-11-26T09:46:12Z</time>
      </trkpt>
      <trkpt lat="46.334816990420222" lon="8.281607246026397">
        <ele>1871.3399999999999</ele>
        <time>2017-11-26T09:46:29Z</time>
      </trkpt>
      <trkpt lat="46.334806093946099" lon="8.281596684828401">
        <ele>1872.3</ele>
        <time>2017-11-26T09:46:42Z</time>
      </trkpt>
      <trkpt lat="46.334823612123728" lon="8.281601462513208">
        <ele>1873.27</ele>
        <time>2017-11-26T09:46:56Z</time>
      </trkpt>
      <trkpt lat="46.334824534133077" lon="8.281560558825731">
        <ele>1873.27</ele>
        <time>2017-11-26T09:47:15Z</time>
      </trkpt>
      <trkpt lat="46.334813302382827" lon="8.281548572704196">
        <ele>1875.1900000000001</ele>
        <time>2017-11-26T09:47:23Z</time>
      </trkpt>
      <trkpt lat="46.334813302382827" lon="8.281595092266798">
        <ele>1873.75</ele>
        <time>2017-11-26T09:47:35Z</time>
      </trkpt>
      <trkpt lat="46.33484423160553" lon="8.281652173027396">
        <ele>1872.3</ele>
        <time>2017-11-26T09:47:41Z</time>
      </trkpt>
      <trkpt lat="46.334861163049936" lon="8.281727526336908">
        <ele>1870.8599999999999</ele>
        <time>2017-11-26T09:47:46Z</time>
      </trkpt>
      <trkpt lat="46.334875077009201" lon="8.281759042292833">
        <ele>1871.8199999999999</ele>
        <time>2017-11-26T09:47:49Z</time>
      </trkpt>
      <trkpt lat="46.334890332072973" lon="8.281778655946255">
        <ele>1873.27</ele>
        <time>2017-11-26T09:47:52Z</time>
      </trkpt>
      <trkpt lat="46.334913298487663" lon="8.28183313831687">
        <ele>1870.3800000000001</ele>
        <time>2017-11-26T09:47:56Z</time>
      </trkpt>
      <trkpt lat="46.334955878555775" lon="8.28191913664341">
        <ele>1869.9000000000001</ele>
        <time>2017-11-26T09:48:04Z</time>
      </trkpt>
      <trkpt lat="46.33499720133841" lon="8.28200614079833">
        <ele>1869.4200000000001</ele>
        <time>2017-11-26T09:48:12Z</time>
      </trkpt>
      <trkpt lat="46.335022766143084" lon="8.28205693513155">
        <ele>1869.4200000000001</ele>
        <time>2017-11-26T09:48:18Z</time>
      </trkpt>
      <trkpt lat="46.335039949044585" lon="8.282099347561598">
        <ele>1867.5</ele>
        <time>2017-11-26T09:48:21Z</time>
      </trkpt>
      <trkpt lat="46.335083954036236" lon="8.282164391130209">
        <ele>1865.5799999999999</ele>
        <time>2017-11-26T09:48:28Z</time>
      </trkpt>
      <trkpt lat="46.335141202434897" lon="8.282242678105831">
        <ele>1867.02</ele>
        <time>2017-11-26T09:48:38Z</time>
      </trkpt>
      <trkpt lat="46.335140783339739" lon="8.282239576801658">
        <ele>1867.02</ele>
        <time>2017-11-26T09:48:39Z</time>
      </trkpt>
      <trkpt lat="46.335159642621875" lon="8.282281821593642">
        <ele>1865.0899999999999</ele>
        <time>2017-11-26T09:48:43Z</time>
      </trkpt>
      <trkpt lat="46.335159139707685" lon="8.282323395833373">
        <ele>1865.0899999999999</ele>
        <time>2017-11-26T09:48:53Z</time>
      </trkpt>
      <trkpt lat="46.335193421691656" lon="8.28234669752419">
        <ele>1864.6099999999999</ele>
        <time>2017-11-26T09:48:57Z</time>
      </trkpt>
      <trkpt lat="46.335307080298662" lon="8.282407131046057">
        <ele>1865.5799999999999</ele>
        <time>2017-11-26T09:49:09Z</time>
      </trkpt>
      <trkpt lat="46.335387378931046" lon="8.282464630901814">
        <ele>1865.5799999999999</ele>
        <time>2017-11-26T09:49:19Z</time>
      </trkpt>
      <trkpt lat="46.335418978706002" lon="8.282502768561244">
        <ele>1863.1700000000001</ele>
        <time>2017-11-26T09:49:23Z</time>
      </trkpt>
      <trkpt lat="46.335442280396819" lon="8.282519951462746">
        <ele>1865.5799999999999</ele>
        <time>2017-11-26T09:49:26Z</time>
      </trkpt>
      <trkpt lat="46.335489386692643" lon="8.282582648098469">
        <ele>1863.1700000000001</ele>
        <time>2017-11-26T09:49:35Z</time>
      </trkpt>
      <trkpt lat="46.335502713918686" lon="8.282594047486782">
        <ele>1867.5</ele>
        <time>2017-11-26T09:49:39Z</time>
      </trkpt>
      <trkpt lat="46.335493661463261" lon="8.28258222900331">
        <ele>1868.46</ele>
        <time>2017-11-26T09:49:40Z</time>
      </trkpt>
      <trkpt lat="46.335558034479618" lon="8.282553730532527">
        <ele>1869.4200000000001</ele>
        <time>2017-11-26T09:49:50Z</time>
      </trkpt>
      <trkpt lat="46.335566248744726" lon="8.282555658370256">
        <ele>1869.9000000000001</ele>
        <time>2017-11-26T09:49:51Z</time>
      </trkpt>
      <trkpt lat="46.335580246523023" lon="8.282548449933529">
        <ele>1870.3800000000001</ele>
        <time>2017-11-26T09:50:02Z</time>
      </trkpt>
      <trkpt lat="46.335638836026192" lon="8.282582815736532">
        <ele>1868.9400000000001</ele>
        <time>2017-11-26T09:50:12Z</time>
      </trkpt>
      <trkpt lat="46.335723660886288" lon="8.282616762444377">
        <ele>1870.8599999999999</ele>
        <time>2017-11-26T09:50:22Z</time>
      </trkpt>
      <trkpt lat="46.33573355153203" lon="8.282618690282106">
        <ele>1870.8599999999999</ele>
        <time>2017-11-26T09:50:23Z</time>
      </trkpt>
      <trkpt lat="46.335752662271261" lon="8.282641405239701">
        <ele>1870.8599999999999</ele>
        <time>2017-11-26T09:50:25Z</time>
      </trkpt>
      <trkpt lat="46.335812257602811" lon="8.282719943672419">
        <ele>1870.3800000000001</ele>
        <time>2017-11-26T09:50:35Z</time>
      </trkpt>
      <trkpt lat="46.335872272029519" lon="8.282790770754218">
        <ele>1871.3399999999999</ele>
        <time>2017-11-26T09:50:46Z</time>
      </trkpt>
      <trkpt lat="46.335889371111989" lon="8.282791022211313">
        <ele>1871.8199999999999</ele>
        <time>2017-11-26T09:50:48Z</time>
      </trkpt>
      <trkpt lat="46.335947038605809" lon="8.282781047746539">
        <ele>1873.27</ele>
        <time>2017-11-26T09:50:57Z</time>
      </trkpt>
      <trkpt lat="46.33599791675806" lon="8.282832009717822">
        <ele>1873.75</ele>
        <time>2017-11-26T09:51:06Z</time>
      </trkpt>
      <trkpt lat="46.336076371371746" lon="8.282847767695785">
        <ele>1874.71</ele>
        <time>2017-11-26T09:51:16Z</time>
      </trkpt>
      <trkpt lat="46.336104869842529" lon="8.282859167084098">
        <ele>1875.1900000000001</ele>
        <time>2017-11-26T09:51:22Z</time>
      </trkpt>
      <trkpt lat="46.336167063564062" lon="8.28288515098393">
        <ele>1877.1099999999999</ele>
        <time>2017-11-26T09:51:32Z</time>
      </trkpt>
      <trkpt lat="46.33621727116406" lon="8.282935107126832">
        <ele>1875.1900000000001</ele>
        <time>2017-11-26T09:51:41Z</time>
      </trkpt>
      <trkpt lat="46.336243422701955" lon="8.282957151532173">
        <ele>1873.75</ele>
        <time>2017-11-26T09:51:46Z</time>
      </trkpt>
      <trkpt lat="46.336288936436176" lon="8.283020602539182">
        <ele>1875.1900000000001</ele>
        <time>2017-11-26T09:51:56Z</time>
      </trkpt>
      <trkpt lat="46.336265131831169" lon="8.283025464043021">
        <ele>1874.23</ele>
        <time>2017-11-26T09:52:05Z</time>
      </trkpt>
      <trkpt lat="46.336269658058882" lon="8.283007023856044">
        <ele>1875.1900000000001</ele>
        <time>2017-11-26T09:52:19Z</time>
      </trkpt>
      <trkpt lat="46.336265131831169" lon="8.282996546477079">
        <ele>1874.71</ele>
        <time>2017-11-26T09:52:31Z</time>
      </trkpt>
      <trkpt lat="46.336254654452205" lon="8.283007107675076">
        <ele>1873.75</ele>
        <time>2017-11-26T09:52:48Z</time>
      </trkpt>
      <trkpt lat="46.336285499855876" lon="8.283017249777913">
        <ele>1877.1099999999999</ele>
        <time>2017-11-26T09:53:08Z</time>
      </trkpt>
      <trkpt lat="46.33633503690362" lon="8.283010292798281">
        <ele>1876.6300000000001</ele>
        <time>2017-11-26T09:53:18Z</time>
      </trkpt>
      <trkpt lat="46.336386920884252" lon="8.28295798972249">
        <ele>1878.0699999999999</ele>
        <time>2017-11-26T09:53:30Z</time>
      </trkpt>
      <trkpt lat="46.336450036615133" lon="8.283030828461051">
        <ele>1880</ele>
        <time>2017-11-26T09:53:42Z</time>
      </trkpt>
      <trkpt lat="46.336505021899939" lon="8.283096961677074">
        <ele>1880.48</ele>
        <time>2017-11-26T09:53:52Z</time>
      </trkpt>
      <trkpt lat="46.336574926972389" lon="8.283124873414636">
        <ele>1880.96</ele>
        <time>2017-11-26T09:54:03Z</time>
      </trkpt>
      <trkpt lat="46.336631085723639" lon="8.283160496503115">
        <ele>1879.03</ele>
        <time>2017-11-26T09:54:12Z</time>
      </trkpt>
      <trkpt lat="46.336669977754354" lon="8.28316024504602">
        <ele>1880.96</ele>
        <time>2017-11-26T09:54:20Z</time>
      </trkpt>
      <trkpt lat="46.336742900311947" lon="8.283203579485416">
        <ele>1880.96</ele>
        <time>2017-11-26T09:54:31Z</time>
      </trkpt>
      <trkpt lat="46.33681682869792" lon="8.28321791253984">
        <ele>1879.03</ele>
        <time>2017-11-26T09:54:44Z</time>
      </trkpt>
      <trkpt lat="46.336873658001423" lon="8.283236352726817">
        <ele>1880.48</ele>
        <time>2017-11-26T09:54:55Z</time>
      </trkpt>
      <trkpt lat="46.336953369900584" lon="8.283228557556868">
        <ele>1880.96</ele>
        <time>2017-11-26T09:55:05Z</time>
      </trkpt>
      <trkpt lat="46.337012546136975" lon="8.283236436545849">
        <ele>1880.96</ele>
        <time>2017-11-26T09:55:14Z</time>
      </trkpt>
      <trkpt lat="46.337096868082881" lon="8.283216655254364">
        <ele>1880.96</ele>
        <time>2017-11-26T09:55:26Z</time>
      </trkpt>
      <trkpt lat="46.337124528363347" lon="8.28324188478291">
        <ele>1880.48</ele>
        <time>2017-11-26T09:55:30Z</time>
      </trkpt>
      <trkpt lat="46.337193511426449" lon="8.283232916146517">
        <ele>1881.4400000000001</ele>
        <time>2017-11-26T09:55:40Z</time>
      </trkpt>
      <trkpt lat="46.337276743724942" lon="8.283225204795599">
        <ele>1880.96</ele>
        <time>2017-11-26T09:55:51Z</time>
      </trkpt>
      <trkpt lat="46.337325107306242" lon="8.2831871509552">
        <ele>1882.8800000000001</ele>
        <time>2017-11-26T09:56:01Z</time>
      </trkpt>
      <trkpt lat="46.337351677939296" lon="8.283182205632329">
        <ele>1883.8399999999999</ele>
        <time>2017-11-26T09:56:05Z</time>
      </trkpt>
      <trkpt lat="46.337403981015086" lon="8.283140547573566">
        <ele>1883.8399999999999</ele>
        <time>2017-11-26T09:56:15Z</time>
      </trkpt>
      <trkpt lat="46.337430384010077" lon="8.28312948346138">
        <ele>1884.8</ele>
        <time>2017-11-26T09:56:21Z</time>
      </trkpt>
      <trkpt lat="46.337454104796052" lon="8.283130656927824">
        <ele>1883.8399999999999</ele>
        <time>2017-11-26T09:56:24Z</time>
      </trkpt>
      <trkpt lat="46.337457373738289" lon="8.283182624727488">
        <ele>1885.76</ele>
        <time>2017-11-26T09:56:35Z</time>
      </trkpt>
      <trkpt lat="46.337438765913248" lon="8.283192096278071">
        <ele>1885.28</ele>
        <time>2017-11-26T09:56:48Z</time>
      </trkpt>
      <trkpt lat="46.33743348531425" lon="8.283201903104782">
        <ele>1883.8399999999999</ele>
        <time>2017-11-26T09:56:55Z</time>
      </trkpt>
      <trkpt lat="46.337435245513916" lon="8.283203076571226">
        <ele>1886.24</ele>
        <time>2017-11-26T09:56:58Z</time>
      </trkpt>
      <trkpt lat="46.337420996278524" lon="8.283221265301108">
        <ele>1885.76</ele>
        <time>2017-11-26T09:57:13Z</time>
      </trkpt>
      <trkpt lat="46.33742175064981" lon="8.283210620284081">
        <ele>1883.3599999999999</ele>
        <time>2017-11-26T09:57:25Z</time>
      </trkpt>
      <trkpt lat="46.337501630187035" lon="8.283185390755534">
        <ele>1884.3199999999999</ele>
        <time>2017-11-26T09:57:34Z</time>
      </trkpt>
      <trkpt lat="46.337575474753976" lon="8.28317541629076">
        <ele>1883.3599999999999</ele>
        <time>2017-11-26T09:57:46Z</time>
      </trkpt>
      <trkpt lat="46.33764018304646" lon="8.283196790143848">
        <ele>1883.8399999999999</ele>
        <time>2017-11-26T09:57:58Z</time>
      </trkpt>
      <trkpt lat="46.337689552456141" lon="8.283173991367221">
        <ele>1884.3199999999999</ele>
        <time>2017-11-26T09:58:06Z</time>
      </trkpt>
      <trkpt lat="46.337776388972998" lon="8.283227803185582">
        <ele>1886.24</ele>
        <time>2017-11-26T09:58:17Z</time>
      </trkpt>
      <trkpt lat="46.337826261296868" lon="8.283249763771892">
        <ele>1887.6900000000001</ele>
        <time>2017-11-26T09:58:26Z</time>
      </trkpt>
      <trkpt lat="46.337824584916234" lon="8.283260492607951">
        <ele>1882.8800000000001</ele>
        <time>2017-11-26T09:58:36Z</time>
      </trkpt>
      <trkpt lat="46.337825087830424" lon="8.283263426274061">
        <ele>1881.4400000000001</ele>
        <time>2017-11-26T09:58:38Z</time>
      </trkpt>
      <trkpt lat="46.337827350944281" lon="8.283271389082074">
        <ele>1885.28</ele>
        <time>2017-11-26T09:58:39Z</time>
      </trkpt>
      <trkpt lat="46.33781754411757" lon="8.283274574205279">
        <ele>1888.1700000000001</ele>
        <time>2017-11-26T09:58:42Z</time>
      </trkpt>
      <trkpt lat="46.33780287578702" lon="8.28327264636755">
        <ele>1886.72</ele>
        <time>2017-11-26T09:58:45Z</time>
      </trkpt>
      <trkpt lat="46.337796924635768" lon="8.283285973593593">
        <ele>1883.8399999999999</ele>
        <time>2017-11-26T09:58:51Z</time>
      </trkpt>
      <trkpt lat="46.337801367044449" lon="8.283297624439001">
        <ele>1882.8800000000001</ele>
        <time>2017-11-26T09:58:55Z</time>
      </trkpt>
      <trkpt lat="46.337817376479506" lon="8.283304329961538">
        <ele>1884.3199999999999</ele>
        <time>2017-11-26T09:58:58Z</time>
      </trkpt>
      <trkpt lat="46.337816789746284" lon="8.283302821218967">
        <ele>1880</ele>
        <time>2017-11-26T09:58:59Z</time>
      </trkpt>
      <trkpt lat="46.337815532460809" lon="8.283310448750854">
        <ele>1879.51</ele>
        <time>2017-11-26T09:59:01Z</time>
      </trkpt>
      <trkpt lat="46.337810251861811" lon="8.283312376588583">
        <ele>1885.76</ele>
        <time>2017-11-26T09:59:03Z</time>
      </trkpt>
      <trkpt lat="46.337806396186352" lon="8.283301731571555">
        <ele>1885.28</ele>
        <time>2017-11-26T09:59:04Z</time>
      </trkpt>
      <trkpt lat="46.337794912979007" lon="8.283267701044679">
        <ele>1884.3199999999999</ele>
        <time>2017-11-26T09:59:08Z</time>
      </trkpt>
      <trkpt lat="46.337749315425754" lon="8.283234424889088">
        <ele>1881.9200000000001</ele>
        <time>2017-11-26T09:59:19Z</time>
      </trkpt>
      <trkpt lat="46.337700868025422" lon="8.283235095441341">
        <ele>1880.96</ele>
        <time>2017-11-26T09:59:31Z</time>
      </trkpt>
      <trkpt lat="46.337657701224089" lon="8.283208943903446">
        <ele>1880</ele>
        <time>2017-11-26T09:59:41Z</time>
      </trkpt>
      <trkpt lat="46.337653929367661" lon="8.283208524808288">
        <ele>1880</ele>
        <time>2017-11-26T09:59:42Z</time>
      </trkpt>
      <trkpt lat="46.337612019851804" lon="8.283209949731827">
        <ele>1880</ele>
        <time>2017-11-26T09:59:52Z</time>
      </trkpt>
      <trkpt lat="46.337615372613072" lon="8.283229731023312">
        <ele>1882.4000000000001</ele>
        <time>2017-11-26T10:00:03Z</time>
      </trkpt>
      <trkpt lat="46.337612941861153" lon="8.283259235322475">
        <ele>1881.9200000000001</ele>
        <time>2017-11-26T10:00:13Z</time>
      </trkpt>
      <trkpt lat="46.3375483173877" lon="8.283207770437002">
        <ele>1881.9200000000001</ele>
        <time>2017-11-26T10:00:22Z</time>
      </trkpt>
      <trkpt lat="46.337554436177015" lon="8.283204333856702">
        <ele>1880.48</ele>
        <time>2017-11-26T10:00:33Z</time>
      </trkpt>
      <trkpt lat="46.337552759796381" lon="8.28322478570044">
        <ele>1881.9200000000001</ele>
        <time>2017-11-26T10:00:37Z</time>
      </trkpt>
      <trkpt lat="46.337547982111573" lon="8.28321548178792">
        <ele>1878.0699999999999</ele>
        <time>2017-11-26T10:00:44Z</time>
      </trkpt>
      <trkpt lat="46.337531050667167" lon="8.28319838270545">
        <ele>1881.9200000000001</ele>
        <time>2017-11-26T10:00:46Z</time>
      </trkpt>
      <trkpt lat="46.337493415921926" lon="8.283174997195602">
        <ele>1880</ele>
        <time>2017-11-26T10:00:54Z</time>
      </trkpt>
      <trkpt lat="46.337486878037453" lon="8.283183379098773">
        <ele>1878.0699999999999</ele>
        <time>2017-11-26T10:01:02Z</time>
      </trkpt>
      <trkpt lat="46.337440945208073" lon="8.283207602798939">
        <ele>1880</ele>
        <time>2017-11-26T10:01:14Z</time>
      </trkpt>
      <trkpt lat="46.337397526949644" lon="8.283199304714799">
        <ele>1880.48</ele>
        <time>2017-11-26T10:01:23Z</time>
      </trkpt>
      <trkpt lat="46.337373470887542" lon="8.283219337463379">
        <ele>1878.55</ele>
        <time>2017-11-26T10:01:32Z</time>
      </trkpt>
      <trkpt lat="46.337378164753318" lon="8.283212715759873">
        <ele>1880.48</ele>
        <time>2017-11-26T10:01:36Z</time>
      </trkpt>
      <trkpt lat="46.337386211380363" lon="8.283215397968888">
        <ele>1880.48</ele>
        <time>2017-11-26T10:01:48Z</time>
      </trkpt>
      <trkpt lat="46.337364753708243" lon="8.283221265301108">
        <ele>1880.48</ele>
        <time>2017-11-26T10:01:52Z</time>
      </trkpt>
      <trkpt lat="46.337334997951984" lon="8.283221097663045">
        <ele>1880.96</ele>
        <time>2017-11-26T10:01:55Z</time>
      </trkpt>
      <trkpt lat="46.337253609672189" lon="8.283266024664044">
        <ele>1880</ele>
        <time>2017-11-26T10:02:04Z</time>
      </trkpt>
      <trkpt lat="46.337229134514928" lon="8.283269628882408">
        <ele>1880.48</ele>
        <time>2017-11-26T10:02:07Z</time>
      </trkpt>
      <trkpt lat="46.337181273847818" lon="8.283267030492425">
        <ele>1880.48</ele>
        <time>2017-11-26T10:02:12Z</time>
      </trkpt>
      <trkpt lat="46.337103238329291" lon="8.283291924744844">
        <ele>1880.48</ele>
        <time>2017-11-26T10:02:20Z</time>
      </trkpt>
      <trkpt lat="46.337085217237473" lon="8.283265270292759">
        <ele>1880.96</ele>
        <time>2017-11-26T10:02:23Z</time>
      </trkpt>
      <trkpt lat="46.337067196145654" lon="8.283255714923143">
        <ele>1880.48</ele>
        <time>2017-11-26T10:02:25Z</time>
      </trkpt>
      <trkpt lat="46.336963092908263" lon="8.28326920978725">
        <ele>1879.03</ele>
        <time>2017-11-26T10:02:35Z</time>
      </trkpt>
      <trkpt lat="46.336868796497583" lon="8.283261749893427">
        <ele>1879.03</ele>
        <time>2017-11-26T10:02:45Z</time>
      </trkpt>
      <trkpt lat="46.336853122338653" lon="8.283253619447351">
        <ele>1879.03</ele>
        <time>2017-11-26T10:02:47Z</time>
      </trkpt>
      <trkpt lat="46.336757484823465" lon="8.28323601745069">
        <ele>1879.03</ele>
        <time>2017-11-26T10:02:57Z</time>
      </trkpt>
      <trkpt lat="46.336689088493586" lon="8.283206094056368">
        <ele>1878.55</ele>
        <time>2017-11-26T10:03:06Z</time>
      </trkpt>
      <trkpt lat="46.336664697155356" lon="8.283192096278071">
        <ele>1878.0699999999999</ele>
        <time>2017-11-26T10:03:09Z</time>
      </trkpt>
      <trkpt lat="46.336642066016793" lon="8.283179858699441">
        <ele>1878.0699999999999</ele>
        <time>2017-11-26T10:03:12Z</time>
      </trkpt>
      <trkpt lat="46.336552128195763" lon="8.283127890899777">
        <ele>1877.5899999999999</ele>
        <time>2017-11-26T10:03:24Z</time>
      </trkpt>
      <trkpt lat="46.336502088233829" lon="8.28311238437891">
        <ele>1878.0699999999999</ele>
        <time>2017-11-26T10:03:34Z</time>
      </trkpt>
      <trkpt lat="46.336448276415467" lon="8.283061254769564">
        <ele>1877.1099999999999</ele>
        <time>2017-11-26T10:03:42Z</time>
      </trkpt>
      <trkpt lat="46.336405193433166" lon="8.283010460436344">
        <ele>1877.5899999999999</ele>
        <time>2017-11-26T10:03:53Z</time>
      </trkpt>
      <trkpt lat="46.33636437356472" lon="8.283010879531503">
        <ele>1875.6700000000001</ele>
        <time>2017-11-26T10:04:04Z</time>
      </trkpt>
      <trkpt lat="46.336334785446525" lon="8.283024877309799">
        <ele>1873.75</ele>
        <time>2017-11-26T10:04:10Z</time>
      </trkpt>
      <trkpt lat="46.33628667332232" lon="8.283037198707461">
        <ele>1873.75</ele>
        <time>2017-11-26T10:04:14Z</time>
      </trkpt>
      <trkpt lat="46.336244512349367" lon="8.28298975713551">
        <ele>1874.71</ele>
        <time>2017-11-26T10:04:19Z</time>
      </trkpt>
      <trkpt lat="46.336159352213144" lon="8.282918175682426">
        <ele>1872.79</ele>
        <time>2017-11-26T10:04:29Z</time>
      </trkpt>
      <trkpt lat="46.336108976975083" lon="8.282890766859055">
        <ele>1872.79</ele>
        <time>2017-11-26T10:04:36Z</time>
      </trkpt>
      <trkpt lat="46.336067905649543" lon="8.282879954203963">
        <ele>1872.3</ele>
        <time>2017-11-26T10:04:42Z</time>
      </trkpt>
      <trkpt lat="46.33600085042417" lon="8.282847767695785">
        <ele>1870.8599999999999</ele>
        <time>2017-11-26T10:04:51Z</time>
      </trkpt>
      <trkpt lat="46.335926670581102" lon="8.282814575359225">
        <ele>1869.9000000000001</ele>
        <time>2017-11-26T10:05:01Z</time>
      </trkpt>
      <trkpt lat="46.335909571498632" lon="8.282820610329509">
        <ele>1869.4200000000001</ele>
        <time>2017-11-26T10:05:03Z</time>
      </trkpt>
      <trkpt lat="46.335834134370089" lon="8.282781215384603">
        <ele>1869.4200000000001</ele>
        <time>2017-11-26T10:05:11Z</time>
      </trkpt>
      <trkpt lat="46.335761211812496" lon="8.282703263685107">
        <ele>1867.5</ele>
        <time>2017-11-26T10:05:19Z</time>
      </trkpt>
      <trkpt lat="46.335724666714668" lon="8.282646937295795">
        <ele>1867.5</ele>
        <time>2017-11-26T10:05:24Z</time>
      </trkpt>
      <trkpt lat="46.335677728056908" lon="8.282636208459735">
        <ele>1866.54</ele>
        <time>2017-11-26T10:05:35Z</time>
      </trkpt>
      <trkpt lat="46.335636153817177" lon="8.282621037214994">
        <ele>1867.02</ele>
        <time>2017-11-26T10:05:39Z</time>
      </trkpt>
      <trkpt lat="46.335557699203491" lon="8.282562531530857">
        <ele>1866.54</ele>
        <time>2017-11-26T10:05:46Z</time>
      </trkpt>
      <trkpt lat="46.335521405562758" lon="8.282509222626686">
        <ele>1865.5799999999999</ele>
        <time>2017-11-26T10:05:51Z</time>
      </trkpt>
      <trkpt lat="46.33550145663321" lon="8.282494386658073">
        <ele>1865.5799999999999</ele>
        <time>2017-11-26T10:05:53Z</time>
      </trkpt>
      <trkpt lat="46.335426522418857" lon="8.282370083034039">
        <ele>1867.5</ele>
        <time>2017-11-26T10:06:03Z</time>
      </trkpt>
      <trkpt lat="46.33541202172637" lon="8.28234133310616">
        <ele>1866.54</ele>
        <time>2017-11-26T10:06:05Z</time>
      </trkpt>
      <trkpt lat="46.335377991199493" lon="8.282300932332873">
        <ele>1866.0599999999999</ele>
        <time>2017-11-26T10:06:09Z</time>
      </trkpt>
      <trkpt lat="46.335332896560431" lon="8.282266817986965">
        <ele>1866.0599999999999</ele>
        <time>2017-11-26T10:06:19Z</time>
      </trkpt>
      <trkpt lat="46.335311690345407" lon="8.28227293677628">
        <ele>1866.0599999999999</ele>
        <time>2017-11-26T10:06:25Z</time>
      </trkpt>
      <trkpt lat="46.335254274308681" lon="8.282193895429373">
        <ele>1867.02</ele>
        <time>2017-11-26T10:06:35Z</time>
      </trkpt>
      <trkpt lat="46.335173053666949" lon="8.282133629545569">
        <ele>1867.5</ele>
        <time>2017-11-26T10:06:45Z</time>
      </trkpt>
      <trkpt lat="46.335107423365116" lon="8.282095491886139">
        <ele>1868.46</ele>
        <time>2017-11-26T10:06:55Z</time>
      </trkpt>
      <trkpt lat="46.335075488314033" lon="8.282042602077127">
        <ele>1869.9000000000001</ele>
        <time>2017-11-26T10:07:00Z</time>
      </trkpt>
      <trkpt lat="46.335045984014869" lon="8.281972026452422">
        <ele>1871.3399999999999</ele>
        <time>2017-11-26T10:07:09Z</time>
      </trkpt>
      <trkpt lat="46.335034752264619" lon="8.281948305666447">
        <ele>1872.3</ele>
        <time>2017-11-26T10:07:11Z</time>
      </trkpt>
      <trkpt lat="46.334991082549095" lon="8.281849734485149">
        <ele>1869.9000000000001</ele>
        <time>2017-11-26T10:07:19Z</time>
      </trkpt>
      <trkpt lat="46.334943892434239" lon="8.281756695359945">
        <ele>1869.4200000000001</ele>
        <time>2017-11-26T10:07:27Z</time>
      </trkpt>
      <trkpt lat="46.33490432985127" lon="8.28169047832489">
        <ele>1867.98</ele>
        <time>2017-11-26T10:07:34Z</time>
      </trkpt>
      <trkpt lat="46.334854625165462" lon="8.281652424484491">
        <ele>1867.5</ele>
        <time>2017-11-26T10:07:44Z</time>
      </trkpt>
      <trkpt lat="46.334820846095681" lon="8.281618561595678">
        <ele>1867.02</ele>
        <time>2017-11-26T10:07:53Z</time>
      </trkpt>
      <trkpt lat="46.334758484736085" lon="8.28150968067348">
        <ele>1867.98</ele>
        <time>2017-11-26T10:08:03Z</time>
      </trkpt>
      <trkpt lat="46.334738619625568" lon="8.281450001522899">
        <ele>1869.4200000000001</ele>
        <time>2017-11-26T10:08:11Z</time>
      </trkpt>
      <trkpt lat="46.334708025678992" lon="8.281343886628747">
        <ele>1868.9400000000001</ele>
        <time>2017-11-26T10:08:21Z</time>
      </trkpt>
      <trkpt lat="46.334701320156455" lon="8.281332151964307">
        <ele>1869.4200000000001</ele>
        <time>2017-11-26T10:08:31Z</time>
      </trkpt>
      <trkpt lat="46.334707271307707" lon="8.281337767839432">
        <ele>1865.0899999999999</ele>
        <time>2017-11-26T10:08:40Z</time>
      </trkpt>
      <trkpt lat="46.334702828899026" lon="8.281327458098531">
        <ele>1870.8599999999999</ele>
        <time>2017-11-26T10:08:41Z</time>
      </trkpt>
      <trkpt lat="46.334701739251614" lon="8.281314047053456">
        <ele>1867.5</ele>
        <time>2017-11-26T10:08:43Z</time>
      </trkpt>
      <trkpt lat="46.334705427289009" lon="8.281309856101871">
        <ele>1867.5</ele>
        <time>2017-11-26T10:08:44Z</time>
      </trkpt>
      <trkpt lat="46.334670810028911" lon="8.281319327652454">
        <ele>1868.46</ele>
        <time>2017-11-26T10:08:55Z</time>
      </trkpt>
      <trkpt lat="46.334663601592183" lon="8.281333325430751">
        <ele>1868.46</ele>
        <time>2017-11-26T10:08:59Z</time>
      </trkpt>
      <trkpt lat="46.33466687053442" lon="8.28133475035429">
        <ele>1871.8199999999999</ele>
        <time>2017-11-26T10:09:08Z</time>
      </trkpt>
      <trkpt lat="46.334644490852952" lon="8.281328966841102">
        <ele>1867.98</ele>
        <time>2017-11-26T10:09:15Z</time>
      </trkpt>
      <trkpt lat="46.334642646834254" lon="8.281327122822404">
        <ele>1870.8599999999999</ele>
        <time>2017-11-26T10:09:16Z</time>
      </trkpt>
      <trkpt lat="46.334638204425573" lon="8.2813376840204">
        <ele>1867.02</ele>
        <time>2017-11-26T10:09:20Z</time>
      </trkpt>
      <trkpt lat="46.334617333486676" lon="8.281340701505542">
        <ele>1865.0899999999999</ele>
        <time>2017-11-26T10:09:25Z</time>
      </trkpt>
      <trkpt lat="46.334602665156126" lon="8.281349753960967">
        <ele>1867.98</ele>
        <time>2017-11-26T10:09:30Z</time>
      </trkpt>
      <trkpt lat="46.334586823359132" lon="8.28134648501873">
        <ele>1870.8599999999999</ele>
        <time>2017-11-26T10:09:35Z</time>
      </trkpt>
      <trkpt lat="46.334584895521402" lon="8.281350256875157">
        <ele>1867.5</ele>
        <time>2017-11-26T10:09:39Z</time>
      </trkpt>
      <trkpt lat="46.33457500487566" lon="8.281365763396025">
        <ele>1873.75</ele>
        <time>2017-11-26T10:09:43Z</time>
      </trkpt>
      <trkpt lat="46.334573579952121" lon="8.281364841386676">
        <ele>1872.3</ele>
        <time>2017-11-26T10:09:44Z</time>
      </trkpt>
      <trkpt lat="46.33457307703793" lon="8.281364673748612">
        <ele>1870.8599999999999</ele>
        <time>2017-11-26T10:09:46Z</time>
      </trkpt>
      <trkpt lat="46.334554301574826" lon="8.281370121985674">
        <ele>1873.75</ele>
        <time>2017-11-26T10:09:56Z</time>
      </trkpt>
      <trkpt lat="46.334555223584175" lon="8.281373977661133">
        <ele>1873.27</ele>
        <time>2017-11-26T10:09:57Z</time>
      </trkpt>
      <trkpt lat="46.334549859166145" lon="8.281384706497192">
        <ele>1869.4200000000001</ele>
        <time>2017-11-26T10:10:00Z</time>
      </trkpt>
      <trkpt lat="46.334544578567147" lon="8.281386718153954">
        <ele>1869.4200000000001</ele>
        <time>2017-11-26T10:10:01Z</time>
      </trkpt>
      <trkpt lat="46.334528150036931" lon="8.281410103663802">
        <ele>1868.46</ele>
        <time>2017-11-26T10:10:06Z</time>
      </trkpt>
      <trkpt lat="46.334495879709721" lon="8.281432567164302">
        <ele>1871.3399999999999</ele>
        <time>2017-11-26T10:10:13Z</time>
      </trkpt>
      <trkpt lat="46.334470734000206" lon="8.28144664876163">
        <ele>1868.46</ele>
        <time>2017-11-26T10:10:17Z</time>
      </trkpt>
      <trkpt lat="46.334423962980509" lon="8.281468106433749">
        <ele>1865.0899999999999</ele>
        <time>2017-11-26T10:10:26Z</time>
      </trkpt>
      <trkpt lat="46.334365289658308" lon="8.281463831663132">
        <ele>1863.6500000000001</ele>
        <time>2017-11-26T10:10:37Z</time>
      </trkpt>
      <trkpt lat="46.334356991574168" lon="8.281458299607039">
        <ele>1863.6500000000001</ele>
        <time>2017-11-26T10:10:38Z</time>
      </trkpt>
      <trkpt lat="46.334316926077008" lon="8.281443379819393">
        <ele>1862.6900000000001</ele>
        <time>2017-11-26T10:10:43Z</time>
      </trkpt>
      <trkpt lat="46.334204357117414" lon="8.281422173604369">
        <ele>1862.21</ele>
        <time>2017-11-26T10:10:56Z</time>
      </trkpt>
      <trkpt lat="46.334152305498719" lon="8.281397111713886">
        <ele>1861.25</ele>
        <time>2017-11-26T10:11:02Z</time>
      </trkpt>
      <trkpt lat="46.33405608125031" lon="8.281370876356959">
        <ele>1858.8499999999999</ele>
        <time>2017-11-26T10:11:13Z</time>
      </trkpt>
      <trkpt lat="46.333948289975524" lon="8.281284207478166">
        <ele>1857.4000000000001</ele>
        <time>2017-11-26T10:11:24Z</time>
      </trkpt>
      <trkpt lat="46.33390948176384" lon="8.281253697350621">
        <ele>1857.4000000000001</ele>
        <time>2017-11-26T10:11:28Z</time>
      </trkpt>
      <trkpt lat="46.333765313029289" lon="8.281232323497534">
        <ele>1858.3699999999999</ele>
        <time>2017-11-26T10:11:41Z</time>
      </trkpt>
      <trkpt lat="46.333665400743484" lon="8.28125411644578">
        <ele>1855.96</ele>
        <time>2017-11-26T10:11:50Z</time>
      </trkpt>
      <trkpt lat="46.33358895778656" lon="8.281226456165314">
        <ele>1854.52</ele>
        <time>2017-11-26T10:12:03Z</time>
      </trkpt>
      <trkpt lat="46.333489799872041" lon="8.281229389831424">
        <ele>1854.04</ele>
        <time>2017-11-26T10:12:12Z</time>
      </trkpt>
      <trkpt lat="46.333420481532812" lon="8.281222013756633">
        <ele>1850.6800000000001</ele>
        <time>2017-11-26T10:12:18Z</time>
      </trkpt>
      <trkpt lat="46.333406735211611" lon="8.28121698461473">
        <ele>1850.1900000000001</ele>
        <time>2017-11-26T10:12:29Z</time>
      </trkpt>
      <trkpt lat="46.333407405763865" lon="8.281225953251123">
        <ele>1850.1900000000001</ele>
        <time>2017-11-26T10:12:39Z</time>
      </trkpt>
      <trkpt lat="46.333357784897089" lon="8.281167699024081">
        <ele>1850.1900000000001</ele>
        <time>2017-11-26T10:12:46Z</time>
      </trkpt>
      <trkpt lat="46.333324089646339" lon="8.281129980459809">
        <ele>1851.6400000000001</ele>
        <time>2017-11-26T10:12:51Z</time>
      </trkpt>
      <trkpt lat="46.333259800449014" lon="8.281083293259144">
        <ele>1850.6800000000001</ele>
        <time>2017-11-26T10:12:59Z</time>
      </trkpt>
      <trkpt lat="46.333202803507447" lon="8.281069044023752">
        <ele>1849.23</ele>
        <time>2017-11-26T10:13:05Z</time>
      </trkpt>
      <trkpt lat="46.333146225661039" lon="8.281043898314238">
        <ele>1849.23</ele>
        <time>2017-11-26T10:13:12Z</time>
      </trkpt>
      <trkpt lat="46.333100376650691" lon="8.281007520854473">
        <ele>1849.23</ele>
        <time>2017-11-26T10:13:17Z</time>
      </trkpt>
      <trkpt lat="46.333055449649692" lon="8.280993439257145">
        <ele>1847.3099999999999</ele>
        <time>2017-11-26T10:13:24Z</time>
      </trkpt>
      <trkpt lat="46.33302410133183" lon="8.280992014333606">
        <ele>1844.9100000000001</ele>
        <time>2017-11-26T10:13:29Z</time>
      </trkpt>
      <trkpt lat="46.332929385825992" lon="8.280870812013745">
        <ele>1844.4300000000001</ele>
        <time>2017-11-26T10:13:42Z</time>
      </trkpt>
      <trkpt lat="46.332861492410302" lon="8.280822699889541">
        <ele>1842.98</ele>
        <time>2017-11-26T10:13:50Z</time>
      </trkpt>
      <trkpt lat="46.332831485196948" lon="8.280846504494548">
        <ele>1839.6199999999999</ele>
        <time>2017-11-26T10:13:55Z</time>
      </trkpt>
      <trkpt lat="46.332809692248702" lon="8.280891766771674">
        <ele>1841.0599999999999</ele>
        <time>2017-11-26T10:14:08Z</time>
      </trkpt>
      <trkpt lat="46.332808770239353" lon="8.280906518921256">
        <ele>1840.5799999999999</ele>
        <time>2017-11-26T10:14:19Z</time>
      </trkpt>
      <trkpt lat="46.332798209041357" lon="8.280904171988368">
        <ele>1839.6199999999999</ele>
        <time>2017-11-26T10:14:23Z</time>
      </trkpt>
      <trkpt lat="46.332710115239024" lon="8.280874248594046">
        <ele>1838.6600000000001</ele>
        <time>2017-11-26T10:14:36Z</time>
      </trkpt>
      <trkpt lat="46.332592014223337" lon="8.280831417068839">
        <ele>1835.77</ele>
        <time>2017-11-26T10:14:47Z</time>
      </trkpt>
      <trkpt lat="46.332454048097134" lon="8.280744832009077">
        <ele>1834.8099999999999</ele>
        <time>2017-11-26T10:15:01Z</time>
      </trkpt>
      <trkpt lat="46.332337707281113" lon="8.280637878924608">
        <ele>1833.3699999999999</ele>
        <time>2017-11-26T10:15:14Z</time>
      </trkpt>
      <trkpt lat="46.33230434730649" lon="8.280613319948316">
        <ele>1832.4100000000001</ele>
        <time>2017-11-26T10:15:17Z</time>
      </trkpt>
      <trkpt lat="46.332218516618013" lon="8.280542073771358">
        <ele>1830.97</ele>
        <time>2017-11-26T10:15:28Z</time>
      </trkpt>
      <trkpt lat="46.332141235470772" lon="8.280497984960675">
        <ele>1829.05</ele>
        <time>2017-11-26T10:15:39Z</time>
      </trkpt>
      <trkpt lat="46.332106366753578" lon="8.280473593622446">
        <ele>1827.1199999999999</ele>
        <time>2017-11-26T10:15:43Z</time>
      </trkpt>
      <trkpt lat="46.332017183303833" lon="8.280396731570363">
        <ele>1824.72</ele>
        <time>2017-11-26T10:15:55Z</time>
      </trkpt>
      <trkpt lat="46.331914672628045" lon="8.280348032712936">
        <ele>1824.24</ele>
        <time>2017-11-26T10:16:05Z</time>
      </trkpt>
      <trkpt lat="46.331842001527548" lon="8.280245438218117">
        <ele>1822.8</ele>
        <time>2017-11-26T10:16:16Z</time>
      </trkpt>
      <trkpt lat="46.33183429017663" lon="8.280237559229136">
        <ele>1822.8</ele>
        <time>2017-11-26T10:16:17Z</time>
      </trkpt>
      <trkpt lat="46.33173756301403" lon="8.28019673936069">
        <ele>1818.95</ele>
        <time>2017-11-26T10:16:27Z</time>
      </trkpt>
      <trkpt lat="46.331717865541577" lon="8.280191123485565">
        <ele>1817.99</ele>
        <time>2017-11-26T10:16:29Z</time>
      </trkpt>
      <trkpt lat="46.331632286310196" lon="8.280202355235815">
        <ele>1815.1099999999999</ele>
        <time>2017-11-26T10:16:39Z</time>
      </trkpt>
      <trkpt lat="46.331525081768632" lon="8.280169414356351">
        <ele>1812.22</ele>
        <time>2017-11-26T10:16:52Z</time>
      </trkpt>
      <trkpt lat="46.331446375697851" lon="8.280153991654515">
        <ele>1811.26</ele>
        <time>2017-11-26T10:17:02Z</time>
      </trkpt>
      <trkpt lat="46.331360377371311" lon="8.280143514275551">
        <ele>1808.8599999999999</ele>
        <time>2017-11-26T10:17:11Z</time>
      </trkpt>
      <trkpt lat="46.331239426508546" lon="8.280100431293249">
        <ele>1805.49</ele>
        <time>2017-11-26T10:17:22Z</time>
      </trkpt>
      <trkpt lat="46.331106321886182" lon="8.280081069096923">
        <ele>1803.5699999999999</ele>
        <time>2017-11-26T10:17:35Z</time>
      </trkpt>
      <trkpt lat="46.330981347709894" lon="8.280056342482567">
        <ele>1802.6099999999999</ele>
        <time>2017-11-26T10:17:47Z</time>
      </trkpt>
      <trkpt lat="46.330851009115577" lon="8.280010996386409">
        <ele>1800.6900000000001</ele>
        <time>2017-11-26T10:17:59Z</time>
      </trkpt>
      <trkpt lat="46.330801472067833" lon="8.279991718009114">
        <ele>1799.73</ele>
        <time>2017-11-26T10:18:02Z</time>
      </trkpt>
      <trkpt lat="46.330699129030108" lon="8.279931200668216">
        <ele>1796.3599999999999</ele>
        <time>2017-11-26T10:18:12Z</time>
      </trkpt>
      <trkpt lat="46.330666607245803" lon="8.279908569529653">
        <ele>1794.9200000000001</ele>
        <time>2017-11-26T10:18:15Z</time>
      </trkpt>
      <trkpt lat="46.330568958073854" lon="8.279861295595765">
        <ele>1791.55</ele>
        <time>2017-11-26T10:18:24Z</time>
      </trkpt>
      <trkpt lat="46.33043291978538" lon="8.279822152107954">
        <ele>1789.6300000000001</ele>
        <time>2017-11-26T10:18:39Z</time>
      </trkpt>
      <trkpt lat="46.330350777134299" lon="8.279831036925316">
        <ele>1788.6700000000001</ele>
        <time>2017-11-26T10:18:48Z</time>
      </trkpt>
      <trkpt lat="46.330239716917276" lon="8.279790468513966">
        <ele>1787.71</ele>
        <time>2017-11-26T10:18:58Z</time>
      </trkpt>
      <trkpt lat="46.330094207078218" lon="8.279676055535674">
        <ele>1787.23</ele>
        <time>2017-11-26T10:19:12Z</time>
      </trkpt>
      <trkpt lat="46.329959174618125" lon="8.279698435217142">
        <ele>1787.71</ele>
        <time>2017-11-26T10:19:25Z</time>
      </trkpt>
      <trkpt lat="46.329897735267878" lon="8.27972374856472">
        <ele>1786.75</ele>
        <time>2017-11-26T10:19:31Z</time>
      </trkpt>
      <trkpt lat="46.329803522676229" lon="8.279786109924316">
        <ele>1784.8199999999999</ele>
        <time>2017-11-26T10:19:40Z</time>
      </trkpt>
      <trkpt lat="46.329766642302275" lon="8.279797174036503">
        <ele>1784.3399999999999</ele>
        <time>2017-11-26T10:19:44Z</time>
      </trkpt>
      <trkpt lat="46.329638566821814" lon="8.279813854023814">
        <ele>1782.9000000000001</ele>
        <time>2017-11-26T10:19:54Z</time>
      </trkpt>
      <trkpt lat="46.329511161893606" lon="8.279862971976399">
        <ele>1781.46</ele>
        <time>2017-11-26T10:20:05Z</time>
      </trkpt>
      <trkpt lat="46.329432791098952" lon="8.27991234138608">
        <ele>1780.5</ele>
        <time>2017-11-26T10:20:13Z</time>
      </trkpt>
      <trkpt lat="46.329354336485267" lon="8.279940504580736">
        <ele>1780.5</ele>
        <time>2017-11-26T10:20:20Z</time>
      </trkpt>
      <trkpt lat="46.329201031476259" lon="8.279971182346344">
        <ele>1779.0599999999999</ele>
        <time>2017-11-26T10:20:34Z</time>
      </trkpt>
      <trkpt lat="46.32905543781817" lon="8.280013594776392">
        <ele>1778.0999999999999</ele>
        <time>2017-11-26T10:20:47Z</time>
      </trkpt>
      <trkpt lat="46.328925434499979" lon="8.279950814321637">
        <ele>1777.1300000000001</ele>
        <time>2017-11-26T10:20:59Z</time>
      </trkpt>
      <trkpt lat="46.32880037650466" lon="8.279858194291592">
        <ele>1776.6500000000001</ele>
        <time>2017-11-26T10:21:12Z</time>
      </trkpt>
      <trkpt lat="46.328754862770438" lon="8.279811758548021">
        <ele>1776.6500000000001</ele>
        <time>2017-11-26T10:21:17Z</time>
      </trkpt>
      <trkpt lat="46.328643634915352" lon="8.279696926474571">
        <ele>1775.6900000000001</ele>
        <time>2017-11-26T10:21:29Z</time>
      </trkpt>
      <trkpt lat="46.328532239422202" lon="8.279593829065561">
        <ele>1775.6900000000001</ele>
        <time>2017-11-26T10:21:42Z</time>
      </trkpt>
      <trkpt lat="46.328405505046248" lon="8.279522582888603">
        <ele>1774.73</ele>
        <time>2017-11-26T10:21:55Z</time>
      </trkpt>
      <trkpt lat="46.32827072404325" lon="8.279477404430509">
        <ele>1773.77</ele>
        <time>2017-11-26T10:22:08Z</time>
      </trkpt>
      <trkpt lat="46.328161088749766" lon="8.279446559026837">
        <ele>1773.77</ele>
        <time>2017-11-26T10:22:18Z</time>
      </trkpt>
      <trkpt lat="46.328022787347436" lon="8.279408672824502">
        <ele>1773.77</ele>
        <time>2017-11-26T10:22:31Z</time>
      </trkpt>
      <trkpt lat="46.327977189794183" lon="8.279369277879596">
        <ele>1773.29</ele>
        <time>2017-11-26T10:22:40Z</time>
      </trkpt>
      <trkpt lat="46.32796143181622" lon="8.279362237080932">
        <ele>1773.29</ele>
        <time>2017-11-26T10:22:42Z</time>
      </trkpt>
      <trkpt lat="46.327887251973152" lon="8.279245225712657">
        <ele>1771.8499999999999</ele>
        <time>2017-11-26T10:22:52Z</time>
      </trkpt>
      <trkpt lat="46.327840648591518" lon="8.279118072241545">
        <ele>1771.3699999999999</ele>
        <time>2017-11-26T10:23:02Z</time>
      </trkpt>
      <trkpt lat="46.327793626114726" lon="8.278996618464589">
        <ele>1771.3699999999999</ele>
        <time>2017-11-26T10:23:12Z</time>
      </trkpt>
      <trkpt lat="46.32777476683259" lon="8.278872817754746">
        <ele>1771.3699999999999</ele>
        <time>2017-11-26T10:23:22Z</time>
      </trkpt>
      <trkpt lat="46.327725229784846" lon="8.278768882155418">
        <ele>1771.8499999999999</ele>
        <time>2017-11-26T10:23:32Z</time>
      </trkpt>
      <trkpt lat="46.327657168731093" lon="8.278685985133052">
        <ele>1772.8099999999999</ele>
        <time>2017-11-26T10:23:42Z</time>
      </trkpt>
      <trkpt lat="46.3275773730129" lon="8.278595628216863">
        <ele>1772.3299999999999</ele>
        <time>2017-11-26T10:23:52Z</time>
      </trkpt>
      <trkpt lat="46.327532948926091" lon="8.278475264087319">
        <ele>1772.3299999999999</ele>
        <time>2017-11-26T10:24:02Z</time>
      </trkpt>
      <trkpt lat="46.32752263918519" lon="8.278392953798175">
        <ele>1771.8499999999999</ele>
        <time>2017-11-26T10:24:09Z</time>
      </trkpt>
      <trkpt lat="46.327477125450969" lon="8.278291113674641">
        <ele>1771.8499999999999</ele>
        <time>2017-11-26T10:24:18Z</time>
      </trkpt>
      <trkpt lat="46.327391546219587" lon="8.278159014880657">
        <ele>1771.8499999999999</ele>
        <time>2017-11-26T10:24:30Z</time>
      </trkpt>
      <trkpt lat="46.327348798513412" lon="8.278039656579495">
        <ele>1771.8499999999999</ele>
        <time>2017-11-26T10:24:39Z</time>
      </trkpt>
      <trkpt lat="46.327346619218588" lon="8.278023647144437">
        <ele>1771.8499999999999</ele>
        <time>2017-11-26T10:24:40Z</time>
      </trkpt>
      <trkpt lat="46.327360114082694" lon="8.277878891676664">
        <ele>1772.3299999999999</ele>
        <time>2017-11-26T10:24:51Z</time>
      </trkpt>
      <trkpt lat="46.327368328347802" lon="8.277756180614233">
        <ele>1771.8499999999999</ele>
        <time>2017-11-26T10:25:00Z</time>
      </trkpt>
      <trkpt lat="46.327379308640957" lon="8.277628608047962">
        <ele>1772.3299999999999</ele>
        <time>2017-11-26T10:25:10Z</time>
      </trkpt>
      <trkpt lat="46.327381236478686" lon="8.277598517015576">
        <ele>1772.3299999999999</ele>
        <time>2017-11-26T10:25:12Z</time>
      </trkpt>
      <trkpt lat="46.327410321682692" lon="8.277503047138453">
        <ele>1772.8099999999999</ele>
        <time>2017-11-26T10:25:21Z</time>
      </trkpt>
      <trkpt lat="46.327422978356481" lon="8.277418641373515">
        <ele>1774.25</ele>
        <time>2017-11-26T10:25:30Z</time>
      </trkpt>
      <trkpt lat="46.327433120459318" lon="8.277347479015589">
        <ele>1775.21</ele>
        <time>2017-11-26T10:25:38Z</time>
      </trkpt>
      <trkpt lat="46.327435802668333" lon="8.277291655540466">
        <ele>1775.6900000000001</ele>
        <time>2017-11-26T10:25:43Z</time>
      </trkpt>
      <trkpt lat="46.327432617545128" lon="8.277164334431291">
        <ele>1777.6099999999999</ele>
        <time>2017-11-26T10:25:53Z</time>
      </trkpt>
      <trkpt lat="46.32745373994112" lon="8.277061739936471">
        <ele>1777.6099999999999</ele>
        <time>2017-11-26T10:26:02Z</time>
      </trkpt>
      <trkpt lat="46.327485758811235" lon="8.276976244524121">
        <ele>1778.5799999999999</ele>
        <time>2017-11-26T10:26:12Z</time>
      </trkpt>
      <trkpt lat="46.327553987503052" lon="8.276967443525791">
        <ele>1779.0599999999999</ele>
        <time>2017-11-26T10:26:21Z</time>
      </trkpt>
      <trkpt lat="46.327585252001882" lon="8.27691899612546">
        <ele>1781.46</ele>
        <time>2017-11-26T10:26:30Z</time>
      </trkpt>
      <trkpt lat="46.327623641118407" lon="8.276890581473708">
        <ele>1781.46</ele>
        <time>2017-11-26T10:26:37Z</time>
      </trkpt>
      <trkpt lat="46.327639985829592" lon="8.276879014447331">
        <ele>1781.46</ele>
        <time>2017-11-26T10:26:46Z</time>
      </trkpt>
      <trkpt lat="46.327645936980844" lon="8.276847247034311">
        <ele>1781.46</ele>
        <time>2017-11-26T10:26:49Z</time>
      </trkpt>
      <trkpt lat="46.327697401866317" lon="8.276716154068708">
        <ele>1780.98</ele>
        <time>2017-11-26T10:26:59Z</time>
      </trkpt>
      <trkpt lat="46.32771366275847" lon="8.27668103389442">
        <ele>1780.02</ele>
        <time>2017-11-26T10:27:03Z</time>
      </trkpt>
      <trkpt lat="46.327702095732093" lon="8.27653787098825">
        <ele>1778.5799999999999</ele>
        <time>2017-11-26T10:27:14Z</time>
      </trkpt>
      <trkpt lat="46.327686086297035" lon="8.276471737772226">
        <ele>1777.6099999999999</ele>
        <time>2017-11-26T10:27:20Z</time>
      </trkpt>
      <trkpt lat="46.327654737979174" lon="8.276387834921479">
        <ele>1776.6500000000001</ele>
        <time>2017-11-26T10:27:28Z</time>
      </trkpt>
      <trkpt lat="46.327650463208556" lon="8.276339387521148">
        <ele>1775.21</ele>
        <time>2017-11-26T10:27:31Z</time>
      </trkpt>
      <trkpt lat="46.327623641118407" lon="8.276166385039687">
        <ele>1775.21</ele>
        <time>2017-11-26T10:27:45Z</time>
      </trkpt>
      <trkpt lat="46.327592460438609" lon="8.276081895455718">
        <ele>1775.21</ele>
        <time>2017-11-26T10:27:55Z</time>
      </trkpt>
      <trkpt lat="46.327551640570164" lon="8.276039650663734">
        <ele>1775.21</ele>
        <time>2017-11-26T10:28:00Z</time>
      </trkpt>
      <trkpt lat="46.327545186504722" lon="8.27601358294487">
        <ele>1775.21</ele>
        <time>2017-11-26T10:28:02Z</time>
      </trkpt>
      <trkpt lat="46.327538397163153" lon="8.275894224643707">
        <ele>1775.21</ele>
        <time>2017-11-26T10:28:11Z</time>
      </trkpt>
      <trkpt lat="46.327547784894705" lon="8.275777800008655">
        <ele>1774.73</ele>
        <time>2017-11-26T10:28:20Z</time>
      </trkpt>
      <trkpt lat="46.327572176232934" lon="8.275733292102814">
        <ele>1776.1700000000001</ele>
        <time>2017-11-26T10:28:30Z</time>
      </trkpt>
      <trkpt lat="46.327585419639945" lon="8.275693897157908">
        <ele>1776.1700000000001</ele>
        <time>2017-11-26T10:28:37Z</time>
      </trkpt>
      <trkpt lat="46.327690947800875" lon="8.275634553283453">
        <ele>1776.1700000000001</ele>
        <time>2017-11-26T10:28:48Z</time>
      </trkpt>
      <trkpt lat="46.327732857316732" lon="8.275575041770935">
        <ele>1776.6500000000001</ele>
        <time>2017-11-26T10:28:56Z</time>
      </trkpt>
      <trkpt lat="46.327746938914061" lon="8.275547632947564">
        <ele>1777.1300000000001</ele>
        <time>2017-11-26T10:29:06Z</time>
      </trkpt>
      <trkpt lat="46.327745513990521" lon="8.275555428117514">
        <ele>1777.1300000000001</ele>
        <time>2017-11-26T10:29:18Z</time>
      </trkpt>
      <trkpt lat="46.327721122652292" lon="8.275511423125863">
        <ele>1776.6500000000001</ele>
        <time>2017-11-26T10:29:30Z</time>
      </trkpt>
      <trkpt lat="46.327705699950457" lon="8.275494575500488">
        <ele>1776.6500000000001</ele>
        <time>2017-11-26T10:29:37Z</time>
      </trkpt>
      <trkpt lat="46.327709807083011" lon="8.275494491681457">
        <ele>1776.1700000000001</ele>
        <time>2017-11-26T10:29:47Z</time>
      </trkpt>
      <trkpt lat="46.327712405472994" lon="8.275506813079119">
        <ele>1776.1700000000001</ele>
        <time>2017-11-26T10:29:58Z</time>
      </trkpt>
      <trkpt lat="46.327622467651963" lon="8.275544280186296">
        <ele>1776.1700000000001</ele>
        <time>2017-11-26T10:30:08Z</time>
      </trkpt>
      <trkpt lat="46.327609894797206" lon="8.275533970445395">
        <ele>1776.1700000000001</ele>
        <time>2017-11-26T10:30:16Z</time>
      </trkpt>
      <trkpt lat="46.327605284750462" lon="8.275501532480121">
        <ele>1776.1700000000001</ele>
        <time>2017-11-26T10:30:20Z</time>
      </trkpt>
      <trkpt lat="46.327579384669662" lon="8.275476302951574">
        <ele>1776.1700000000001</ele>
        <time>2017-11-26T10:30:23Z</time>
      </trkpt>
      <trkpt lat="46.327567817643285" lon="8.275454929098487">
        <ele>1776.1700000000001</ele>
        <time>2017-11-26T10:30:25Z</time>
      </trkpt>
      <trkpt lat="46.327511658892035" lon="8.275337079539895">
        <ele>1776.1700000000001</ele>
        <time>2017-11-26T10:30:36Z</time>
      </trkpt>
      <trkpt lat="46.327507216483355" lon="8.275291314348579">
        <ele>1776.1700000000001</ele>
        <time>2017-11-26T10:30:40Z</time>
      </trkpt>
      <trkpt lat="46.327520124614239" lon="8.275282513350248">
        <ele>1776.6500000000001</ele>
        <time>2017-11-26T10:30:51Z</time>
      </trkpt>
      <trkpt lat="46.327531691640615" lon="8.275308916345239">
        <ele>1776.1700000000001</ele>
        <time>2017-11-26T10:31:04Z</time>
      </trkpt>
      <trkpt lat="46.327529931440949" lon="8.275311682373285">
        <ele>1776.1700000000001</ele>
        <time>2017-11-26T10:31:21Z</time>
      </trkpt>
      <trkpt lat="46.327527081593871" lon="8.275294499471784">
        <ele>1776.1700000000001</ele>
        <time>2017-11-26T10:31:30Z</time>
      </trkpt>
      <trkpt lat="46.327502271160483" lon="8.275153348222375">
        <ele>1776.1700000000001</ele>
        <time>2017-11-26T10:31:41Z</time>
      </trkpt>
      <trkpt lat="46.327498247846961" lon="8.275144044309855">
        <ele>1776.1700000000001</ele>
        <time>2017-11-26T10:31:42Z</time>
      </trkpt>
      <trkpt lat="46.327469581738114" lon="8.275068774819374">
        <ele>1775.6900000000001</ele>
        <time>2017-11-26T10:31:49Z</time>
      </trkpt>
      <trkpt lat="46.327487602829933" lon="8.275010269135237">
        <ele>1775.6900000000001</ele>
        <time>2017-11-26T10:31:55Z</time>
      </trkpt>
      <trkpt lat="46.3274737726897" lon="8.274954110383987">
        <ele>1775.6900000000001</ele>
        <time>2017-11-26T10:32:00Z</time>
      </trkpt>
      <trkpt lat="46.327472683042288" lon="8.274891749024391">
        <ele>1775.6900000000001</ele>
        <time>2017-11-26T10:32:11Z</time>
      </trkpt>
      <trkpt lat="46.32747083902359" lon="8.274900130927563">
        <ele>1775.21</ele>
        <time>2017-11-26T10:32:24Z</time>
      </trkpt>
      <trkpt lat="46.327471090480685" lon="8.274902645498514">
        <ele>1775.21</ele>
        <time>2017-11-26T10:32:38Z</time>
      </trkpt>
      <trkpt lat="46.327480059117079" lon="8.274885965511203">
        <ele>1774.73</ele>
        <time>2017-11-26T10:32:49Z</time>
      </trkpt>
      <trkpt lat="46.327471006661654" lon="8.274884289130569">
        <ele>1774.73</ele>
        <time>2017-11-26T10:33:05Z</time>
      </trkpt>
      <trkpt lat="46.327489279210567" lon="8.274914715439081">
        <ele>1775.21</ele>
        <time>2017-11-26T10:33:18Z</time>
      </trkpt>
      <trkpt lat="46.327494224533439" lon="8.27492049895227">
        <ele>1775.6900000000001</ele>
        <time>2017-11-26T10:33:31Z</time>
      </trkpt>
      <trkpt lat="46.327502522617579" lon="8.274946147575975">
        <ele>1776.1700000000001</ele>
        <time>2017-11-26T10:33:35Z</time>
      </trkpt>
      <trkpt lat="46.327509982511401" lon="8.275037342682481">
        <ele>1775.6900000000001</ele>
        <time>2017-11-26T10:33:41Z</time>
      </trkpt>
      <trkpt lat="46.327528255060315" lon="8.275165082886815">
        <ele>1776.1700000000001</ele>
        <time>2017-11-26T10:33:52Z</time>
      </trkpt>
      <trkpt lat="46.327549125999212" lon="8.275228617712855">
        <ele>1777.1300000000001</ele>
        <time>2017-11-26T10:34:04Z</time>
      </trkpt>
      <trkpt lat="46.327545270323753" lon="8.275232892483473">
        <ele>1778.5799999999999</ele>
        <time>2017-11-26T10:34:18Z</time>
      </trkpt>
      <trkpt lat="46.327552897855639" lon="8.275251919403672">
        <ele>1779.0599999999999</ele>
        <time>2017-11-26T10:34:41Z</time>
      </trkpt>
      <trkpt lat="46.327555999159813" lon="8.275262145325542">
        <ele>1777.1300000000001</ele>
        <time>2017-11-26T10:35:05Z</time>
      </trkpt>
      <trkpt lat="46.327549042180181" lon="8.275244627147913">
        <ele>1777.1300000000001</ele>
        <time>2017-11-26T10:35:29Z</time>
      </trkpt>
      <trkpt lat="46.327532362192869" lon="8.275254350155592">
        <ele>1777.1300000000001</ele>
        <time>2017-11-26T10:35:43Z</time>
      </trkpt>
      <trkpt lat="46.327531524002552" lon="8.275249237194657">
        <ele>1776.6500000000001</ele>
        <time>2017-11-26T10:35:55Z</time>
      </trkpt>
      <trkpt lat="46.327524064108729" lon="8.275231970474124">
        <ele>1776.1700000000001</ele>
        <time>2017-11-26T10:36:09Z</time>
      </trkpt>
      <trkpt lat="46.327533284202218" lon="8.275246135890484">
        <ele>1775.6900000000001</ele>
        <time>2017-11-26T10:36:27Z</time>
      </trkpt>
      <trkpt lat="46.327534541487694" lon="8.275216463953257">
        <ele>1776.6500000000001</ele>
        <time>2017-11-26T10:36:41Z</time>
      </trkpt>
      <trkpt lat="46.327522974461317" lon="8.275231551378965">
        <ele>1776.6500000000001</ele>
        <time>2017-11-26T10:36:52Z</time>
      </trkpt>
      <trkpt lat="46.327512245625257" lon="8.275222415104508">
        <ele>1778.0999999999999</ele>
        <time>2017-11-26T10:37:09Z</time>
      </trkpt>
      <trkpt lat="46.327513502910733" lon="8.275220403447747">
        <ele>1777.6099999999999</ele>
        <time>2017-11-26T10:37:23Z</time>
      </trkpt>
      <trkpt lat="46.327508809044957" lon="8.275203052908182">
        <ele>1777.6099999999999</ele>
        <time>2017-11-26T10:37:40Z</time>
      </trkpt>
      <trkpt lat="46.327514592558146" lon="8.275223169475794">
        <ele>1776.6500000000001</ele>
        <time>2017-11-26T10:37:55Z</time>
      </trkpt>
      <trkpt lat="46.327512832358479" lon="8.275207746773958">
        <ele>1777.6099999999999</ele>
        <time>2017-11-26T10:38:10Z</time>
      </trkpt>
      <trkpt lat="46.327507803216577" lon="8.275183942168951">
        <ele>1777.6099999999999</ele>
        <time>2017-11-26T10:38:23Z</time>
      </trkpt>
      <trkpt lat="46.32750260643661" lon="8.275195844471455">
        <ele>1777.1300000000001</ele>
        <time>2017-11-26T10:38:42Z</time>
      </trkpt>
      <trkpt lat="46.327537894248962" lon="8.275218643248081">
        <ele>1776.1700000000001</ele>
        <time>2017-11-26T10:39:01Z</time>
      </trkpt>
      <trkpt lat="46.327542336657643" lon="8.275230545550585">
        <ele>1777.1300000000001</ele>
        <time>2017-11-26T10:39:11Z</time>
      </trkpt>
      <trkpt lat="46.327535547316074" lon="8.275243705138564">
        <ele>1777.1300000000001</ele>
        <time>2017-11-26T10:39:22Z</time>
      </trkpt>
      <trkpt lat="46.327530099079013" lon="8.275275472551584">
        <ele>1777.1300000000001</ele>
        <time>2017-11-26T10:39:34Z</time>
      </trkpt>
      <trkpt lat="46.327525908127427" lon="8.275286704301834">
        <ele>1776.6500000000001</ele>
        <time>2017-11-26T10:39:49Z</time>
      </trkpt>
      <trkpt lat="46.327532278373837" lon="8.275269186124206">
        <ele>1776.6500000000001</ele>
        <time>2017-11-26T10:40:00Z</time>
      </trkpt>
      <trkpt lat="46.327551808208227" lon="8.275321153923869">
        <ele>1776.1700000000001</ele>
        <time>2017-11-26T10:40:09Z</time>
      </trkpt>
      <trkpt lat="46.327563542872667" lon="8.275335570797324">
        <ele>1776.1700000000001</ele>
        <time>2017-11-26T10:40:18Z</time>
      </trkpt>
      <trkpt lat="46.327570835128427" lon="8.275345964357257">
        <ele>1777.6099999999999</ele>
        <time>2017-11-26T10:40:26Z</time>
      </trkpt>
      <trkpt lat="46.327586006373167" lon="8.275323919951916">
        <ele>1778.5799999999999</ele>
        <time>2017-11-26T10:40:39Z</time>
      </trkpt>
      <trkpt lat="46.32759103551507" lon="8.275332637131214">
        <ele>1779.54</ele>
        <time>2017-11-26T10:40:44Z</time>
      </trkpt>
      <trkpt lat="46.327584413811564" lon="8.27533045783639">
        <ele>1778.0999999999999</ele>
        <time>2017-11-26T10:40:54Z</time>
      </trkpt>
      <trkpt lat="46.327586341649294" lon="8.275334816426039">
        <ele>1778.0999999999999</ele>
        <time>2017-11-26T10:41:11Z</time>
      </trkpt>
      <trkpt lat="46.327606290578842" lon="8.275427604094148">
        <ele>1776.6500000000001</ele>
        <time>2017-11-26T10:41:18Z</time>
      </trkpt>
      <trkpt lat="46.327617187052965" lon="8.275500694289804">
        <ele>1777.6099999999999</ele>
        <time>2017-11-26T10:41:26Z</time>
      </trkpt>
      <trkpt lat="46.327677452936769" lon="8.275571940466762">
        <ele>1777.6099999999999</ele>
        <time>2017-11-26T10:41:38Z</time>
      </trkpt>
      <trkpt lat="46.327693462371826" lon="8.275634134188294">
        <ele>1777.1300000000001</ele>
        <time>2017-11-26T10:41:47Z</time>
      </trkpt>
      <trkpt lat="46.327657671645284" lon="8.275715438649058">
        <ele>1778.0999999999999</ele>
        <time>2017-11-26T10:41:57Z</time>
      </trkpt>
      <trkpt lat="46.327624982222915" lon="8.275722479447722">
        <ele>1778.5799999999999</ele>
        <time>2017-11-26T10:42:00Z</time>
      </trkpt>
      <trkpt lat="46.32760570384562" lon="8.275730274617672">
        <ele>1778.0999999999999</ele>
        <time>2017-11-26T10:42:02Z</time>
      </trkpt>
      <trkpt lat="46.327559184283018" lon="8.275778889656067">
        <ele>1778.0999999999999</ele>
        <time>2017-11-26T10:42:14Z</time>
      </trkpt>
      <trkpt lat="46.327536972239614" lon="8.275727760046721">
        <ele>1778.5799999999999</ele>
        <time>2017-11-26T10:42:23Z</time>
      </trkpt>
      <trkpt lat="46.327508138492703" lon="8.275738237425685">
        <ele>1779.54</ele>
        <time>2017-11-26T10:42:33Z</time>
      </trkpt>
      <trkpt lat="46.327516688033938" lon="8.275694819167256">
        <ele>1780.5</ele>
        <time>2017-11-26T10:42:43Z</time>
      </trkpt>
      <trkpt lat="46.327504450455308" lon="8.275688951835036">
        <ele>1780.98</ele>
        <time>2017-11-26T10:42:55Z</time>
      </trkpt>
      <trkpt lat="46.327461199834943" lon="8.275674786418676">
        <ele>1782.9000000000001</ele>
        <time>2017-11-26T10:43:03Z</time>
      </trkpt>
      <trkpt lat="46.327423481270671" lon="8.275693394243717">
        <ele>1783.3800000000001</ele>
        <time>2017-11-26T10:43:13Z</time>
      </trkpt>
      <trkpt lat="46.327395150437951" lon="8.275714013725519">
        <ele>1784.8199999999999</ele>
        <time>2017-11-26T10:43:21Z</time>
      </trkpt>
      <trkpt lat="46.32736187428236" lon="8.275693394243717">
        <ele>1786.27</ele>
        <time>2017-11-26T10:43:30Z</time>
      </trkpt>
      <trkpt lat="46.327351732179523" lon="8.275625668466091">
        <ele>1786.75</ele>
        <time>2017-11-26T10:43:38Z</time>
      </trkpt>
      <trkpt lat="46.327344523742795" lon="8.275577891618013">
        <ele>1786.27</ele>
        <time>2017-11-26T10:43:50Z</time>
      </trkpt>
      <trkpt lat="46.327302865684032" lon="8.275605384260416">
        <ele>1786.75</ele>
        <time>2017-11-26T10:44:01Z</time>
      </trkpt>
      <trkpt lat="46.327263470739126" lon="8.275534640997648">
        <ele>1788.1900000000001</ele>
        <time>2017-11-26T10:44:12Z</time>
      </trkpt>
      <trkpt lat="46.327254083007574" lon="8.275481164455414">
        <ele>1789.1500000000001</ele>
        <time>2017-11-26T10:44:23Z</time>
      </trkpt>
      <trkpt lat="46.327256178483367" lon="8.275483762845397">
        <ele>1789.1500000000001</ele>
        <time>2017-11-26T10:44:34Z</time>
      </trkpt>
      <trkpt lat="46.327240839600563" lon="8.275458365678787">
        <ele>1789.6300000000001</ele>
        <time>2017-11-26T10:44:45Z</time>
      </trkpt>
      <trkpt lat="46.327230110764503" lon="8.275416204705834">
        <ele>1790.1099999999999</ele>
        <time>2017-11-26T10:44:53Z</time>
      </trkpt>
      <trkpt lat="46.327235391363502" lon="8.275371361523867">
        <ele>1790.1099999999999</ele>
        <time>2017-11-26T10:45:05Z</time>
      </trkpt>
      <trkpt lat="46.327223321422935" lon="8.275331044569612">
        <ele>1789.6300000000001</ele>
        <time>2017-11-26T10:45:17Z</time>
      </trkpt>
      <trkpt lat="46.327225165441632" lon="8.275310257449746">
        <ele>1789.6300000000001</ele>
        <time>2017-11-26T10:45:29Z</time>
      </trkpt>
      <trkpt lat="46.327212676405907" lon="8.275319393724203">
        <ele>1789.6300000000001</ele>
        <time>2017-11-26T10:45:40Z</time>
      </trkpt>
      <trkpt lat="46.32719473913312" lon="8.275308413431048">
        <ele>1790.1099999999999</ele>
        <time>2017-11-26T10:45:52Z</time>
      </trkpt>
      <trkpt lat="46.327167497947812" lon="8.275315286591649">
        <ele>1791.0699999999999</ele>
        <time>2017-11-26T10:46:02Z</time>
      </trkpt>
      <trkpt lat="46.327117709442973" lon="8.275319561362267">
        <ele>1793</ele>
        <time>2017-11-26T10:46:13Z</time>
      </trkpt>
      <trkpt lat="46.327113267034292" lon="8.275328781455755">
        <ele>1792.52</ele>
        <time>2017-11-26T10:46:25Z</time>
      </trkpt>
      <trkpt lat="46.327098431065679" lon="8.275290727615356">
        <ele>1792.52</ele>
        <time>2017-11-26T10:46:30Z</time>
      </trkpt>
      <trkpt lat="46.327086864039302" lon="8.275230964645743">
        <ele>1792.52</ele>
        <time>2017-11-26T10:46:40Z</time>
      </trkpt>
      <trkpt lat="46.327110501006246" lon="8.275284692645073">
        <ele>1792.52</ele>
        <time>2017-11-26T10:46:50Z</time>
      </trkpt>
      <trkpt lat="46.327090468257666" lon="8.275317465886474">
        <ele>1791.55</ele>
        <time>2017-11-26T10:46:59Z</time>
      </trkpt>
      <trkpt lat="46.327046044170856" lon="8.275313610211015">
        <ele>1791.0699999999999</ele>
        <time>2017-11-26T10:47:07Z</time>
      </trkpt>
      <trkpt lat="46.327034225687385" lon="8.275286788120866">
        <ele>1791.0699999999999</ele>
        <time>2017-11-26T10:47:21Z</time>
      </trkpt>
      <trkpt lat="46.32703254930675" lon="8.275259714573622">
        <ele>1791.55</ele>
        <time>2017-11-26T10:47:34Z</time>
      </trkpt>
      <trkpt lat="46.32700857706368" lon="8.275201208889484">
        <ele>1790.5899999999999</ele>
        <time>2017-11-26T10:47:45Z</time>
      </trkpt>
      <trkpt lat="46.327013354748487" lon="8.27513842843473">
        <ele>1790.1099999999999</ele>
        <time>2017-11-26T10:47:54Z</time>
      </trkpt>
      <trkpt lat="46.32700421847403" lon="8.27509299851954">
        <ele>1787.71</ele>
        <time>2017-11-26T10:48:04Z</time>
      </trkpt>
      <trkpt lat="46.326989214867353" lon="8.275014795362949">
        <ele>1784.8199999999999</ele>
        <time>2017-11-26T10:48:15Z</time>
      </trkpt>
      <trkpt lat="46.326992735266685" lon="8.275007084012032">
        <ele>1783.8599999999999</ele>
        <time>2017-11-26T10:48:25Z</time>
      </trkpt>
      <trkpt lat="46.326988795772195" lon="8.275017309933901">
        <ele>1784.8199999999999</ele>
        <time>2017-11-26T10:48:40Z</time>
      </trkpt>
      <trkpt lat="46.326979910954833" lon="8.275021584704518">
        <ele>1784.8199999999999</ele>
        <time>2017-11-26T10:48:55Z</time>
      </trkpt>
      <trkpt lat="46.326980330049992" lon="8.275009095668793">
        <ele>1784.8199999999999</ele>
        <time>2017-11-26T10:49:09Z</time>
      </trkpt>
      <trkpt lat="46.326910676434636" lon="8.274967353790999">
        <ele>1783.3800000000001</ele>
        <time>2017-11-26T10:49:19Z</time>
      </trkpt>
      <trkpt lat="46.326878992840648" lon="8.274941118434072">
        <ele>1782.9000000000001</ele>
        <time>2017-11-26T10:49:29Z</time>
      </trkpt>
      <trkpt lat="46.326908580958843" lon="8.274918319657445">
        <ele>1783.8599999999999</ele>
        <time>2017-11-26T10:49:50Z</time>
      </trkpt>
      <trkpt lat="46.326917130500078" lon="8.274923600256443">
        <ele>1783.8599999999999</ele>
        <time>2017-11-26T10:50:11Z</time>
      </trkpt>
      <trkpt lat="46.326867006719112" lon="8.274873560294509">
        <ele>1783.3800000000001</ele>
        <time>2017-11-26T10:50:28Z</time>
      </trkpt>
      <trkpt lat="46.326837921515107" lon="8.274806337431073">
        <ele>1780.98</ele>
        <time>2017-11-26T10:50:39Z</time>
      </trkpt>
      <trkpt lat="46.326782517135143" lon="8.274747664108872">
        <ele>1781.46</ele>
        <time>2017-11-26T10:50:47Z</time>
      </trkpt>
      <trkpt lat="46.326734237372875" lon="8.274633167311549">
        <ele>1780.98</ele>
        <time>2017-11-26T10:50:59Z</time>
      </trkpt>
      <trkpt lat="46.32671638391912" lon="8.274604836478829">
        <ele>1780.98</ele>
        <time>2017-11-26T10:51:09Z</time>
      </trkpt>
      <trkpt lat="46.326698530465364" lon="8.27460584230721">
        <ele>1781.46</ele>
        <time>2017-11-26T10:51:12Z</time>
      </trkpt>
      <trkpt lat="46.326712276786566" lon="8.274613888934255">
        <ele>1782.4200000000001</ele>
        <time>2017-11-26T10:51:23Z</time>
      </trkpt>
      <trkpt lat="46.326653771102428" lon="8.27454817481339">
        <ele>1783.3800000000001</ele>
        <time>2017-11-26T10:51:34Z</time>
      </trkpt>
      <trkpt lat="46.326627284288406" lon="8.274470893666148">
        <ele>1782.4200000000001</ele>
        <time>2017-11-26T10:51:41Z</time>
      </trkpt>
      <trkpt lat="46.326644383370876" lon="8.274374501779676">
        <ele>1780.98</ele>
        <time>2017-11-26T10:51:47Z</time>
      </trkpt>
      <trkpt lat="46.326719736680388" lon="8.274369556456804">
        <ele>1778.0999999999999</ele>
        <time>2017-11-26T10:51:59Z</time>
      </trkpt>
      <trkpt lat="46.32676625624299" lon="8.274423200637102">
        <ele>1777.1300000000001</ele>
        <time>2017-11-26T10:52:10Z</time>
      </trkpt>
      <trkpt lat="46.326769189909101" lon="8.274436611682177">
        <ele>1779.0599999999999</ele>
        <time>2017-11-26T10:52:24Z</time>
      </trkpt>
      <trkpt lat="46.326729375869036" lon="8.274410711601377">
        <ele>1780.02</ele>
        <time>2017-11-26T10:52:32Z</time>
      </trkpt>
      <trkpt lat="46.326723843812943" lon="8.274402832612395">
        <ele>1778.5799999999999</ele>
        <time>2017-11-26T10:52:46Z</time>
      </trkpt>
      <trkpt lat="46.326706912368536" lon="8.274391852319241">
        <ele>1779.0599999999999</ele>
        <time>2017-11-26T10:53:00Z</time>
      </trkpt>
      <trkpt lat="46.326704984530807" lon="8.274382799863815">
        <ele>1778.5799999999999</ele>
        <time>2017-11-26T10:53:13Z</time>
      </trkpt>
      <trkpt lat="46.326714875176549" lon="8.274389002472162">
        <ele>1778.0999999999999</ele>
        <time>2017-11-26T10:53:31Z</time>
      </trkpt>
      <trkpt lat="46.326718898490071" lon="8.27439034357667">
        <ele>1778.0999999999999</ele>
        <time>2017-11-26T10:53:53Z</time>
      </trkpt>
      <trkpt lat="46.326715964823961" lon="8.274397552013397">
        <ele>1777.6099999999999</ele>
        <time>2017-11-26T10:54:13Z</time>
      </trkpt>
      <trkpt lat="46.326715042814612" lon="8.274436695501208">
        <ele>1778.0999999999999</ele>
        <time>2017-11-26T10:54:33Z</time>
      </trkpt>
      <trkpt lat="46.326709343120456" lon="8.274423368275166">
        <ele>1777.6099999999999</ele>
        <time>2017-11-26T10:54:45Z</time>
      </trkpt>
      <trkpt lat="46.326683275401592" lon="8.274331418797374">
        <ele>1777.6099999999999</ele>
        <time>2017-11-26T10:54:58Z</time>
      </trkpt>
      <trkpt lat="46.326672798022628" lon="8.27427844516933">
        <ele>1777.6099999999999</ele>
        <time>2017-11-26T10:55:01Z</time>
      </trkpt>
      <trkpt lat="46.326625104993582" lon="8.274194207042456">
        <ele>1778.0999999999999</ele>
        <time>2017-11-26T10:55:11Z</time>
      </trkpt>
      <trkpt lat="46.326599707826972" lon="8.274183981120586">
        <ele>1778.0999999999999</ele>
        <time>2017-11-26T10:55:14Z</time>
      </trkpt>
      <trkpt lat="46.326576573774219" lon="8.274153470993042">
        <ele>1777.6099999999999</ele>
        <time>2017-11-26T10:55:17Z</time>
      </trkpt>
      <trkpt lat="46.32655025459826" lon="8.274131510406733">
        <ele>1778.0999999999999</ele>
        <time>2017-11-26T10:55:20Z</time>
      </trkpt>
      <trkpt lat="46.326519073918462" lon="8.273970913141966">
        <ele>1778.0999999999999</ele>
        <time>2017-11-26T10:55:32Z</time>
      </trkpt>
      <trkpt lat="46.326511446386576" lon="8.273964039981365">
        <ele>1778.0999999999999</ele>
        <time>2017-11-26T10:55:33Z</time>
      </trkpt>
      <trkpt lat="46.326483031734824" lon="8.273955658078194">
        <ele>1778.0999999999999</ele>
        <time>2017-11-26T10:55:36Z</time>
      </trkpt>
      <trkpt lat="46.326397368684411" lon="8.273897571489215">
        <ele>1778.0999999999999</ele>
        <time>2017-11-26T10:55:45Z</time>
      </trkpt>
      <trkpt lat="46.326356045901775" lon="8.273796234279871">
        <ele>1778.0999999999999</ele>
        <time>2017-11-26T10:55:55Z</time>
      </trkpt>
      <trkpt lat="46.326310196891427" lon="8.273770669475198">
        <ele>1779.54</ele>
        <time>2017-11-26T10:56:04Z</time>
      </trkpt>
      <trkpt lat="46.326250014826655" lon="8.273766562342644">
        <ele>1779.54</ele>
        <time>2017-11-26T10:56:14Z</time>
      </trkpt>
      <trkpt lat="46.326176505535841" lon="8.273789193481207">
        <ele>1780.98</ele>
        <time>2017-11-26T10:56:25Z</time>
      </trkpt>
      <trkpt lat="46.326106851920485" lon="8.273712918162346">
        <ele>1780.98</ele>
        <time>2017-11-26T10:56:34Z</time>
      </trkpt>
      <trkpt lat="46.326037952676415" lon="8.27363152988255">
        <ele>1781.46</ele>
        <time>2017-11-26T10:56:44Z</time>
      </trkpt>
      <trkpt lat="46.32599126547575" lon="8.273557182401419">
        <ele>1782.9000000000001</ele>
        <time>2017-11-26T10:56:54Z</time>
      </trkpt>
      <trkpt lat="46.325994450598955" lon="8.273449810221791">
        <ele>1784.8199999999999</ele>
        <time>2017-11-26T10:57:04Z</time>
      </trkpt>
      <trkpt lat="46.325962012633681" lon="8.273411672562361">
        <ele>1785.3099999999999</ele>
        <time>2017-11-26T10:57:12Z</time>
      </trkpt>
      <trkpt lat="46.325942566618323" lon="8.273405805230141">
        <ele>1785.3099999999999</ele>
        <time>2017-11-26T10:57:14Z</time>
      </trkpt>
      <trkpt lat="46.325906272977591" lon="8.273414690047503">
        <ele>1784.8199999999999</ele>
        <time>2017-11-26T10:57:24Z</time>
      </trkpt>
      <trkpt lat="46.325888419523835" lon="8.273406475782394">
        <ele>1785.3099999999999</ele>
        <time>2017-11-26T10:57:26Z</time>
      </trkpt>
      <trkpt lat="46.325812144204974" lon="8.273395411670208">
        <ele>1785.79</ele>
        <time>2017-11-26T10:57:36Z</time>
      </trkpt>
      <trkpt lat="46.325741820037365" lon="8.273339085280895">
        <ele>1787.23</ele>
        <time>2017-11-26T10:57:46Z</time>
      </trkpt>
      <trkpt lat="46.325644925236702" lon="8.273318046703935">
        <ele>1788.6700000000001</ele>
        <time>2017-11-26T10:57:59Z</time>
      </trkpt>
      <trkpt lat="46.325601674616337" lon="8.273296672850847">
        <ele>1789.6300000000001</ele>
        <time>2017-11-26T10:58:07Z</time>
      </trkpt>
      <trkpt lat="46.32553244009614" lon="8.273236742243171">
        <ele>1789.6300000000001</ele>
        <time>2017-11-26T10:58:17Z</time>
      </trkpt>
      <trkpt lat="46.325461277738214" lon="8.273157700896263">
        <ele>1788.1900000000001</ele>
        <time>2017-11-26T10:58:28Z</time>
      </trkpt>
      <trkpt lat="46.325443424284458" lon="8.273170441389084">
        <ele>1786.75</ele>
        <time>2017-11-26T10:58:36Z</time>
      </trkpt>
      <trkpt lat="46.325429175049067" lon="8.273135321214795">
        <ele>1785.79</ele>
        <time>2017-11-26T10:58:47Z</time>
      </trkpt>
      <trkpt lat="46.325457002967596" lon="8.2731609698385">
        <ele>1785.79</ele>
        <time>2017-11-26T10:58:56Z</time>
      </trkpt>
      <trkpt lat="46.325471252202988" lon="8.273176057264209">
        <ele>1785.79</ele>
        <time>2017-11-26T10:59:06Z</time>
      </trkpt>
      <trkpt lat="46.325470497831702" lon="8.273181337863207">
        <ele>1785.79</ele>
        <time>2017-11-26T10:59:16Z</time>
      </trkpt>
      <trkpt lat="46.325482483953238" lon="8.273184606805444">
        <ele>1785.79</ele>
        <time>2017-11-26T10:59:27Z</time>
      </trkpt>
      <trkpt lat="46.325501259416342" lon="8.27318737283349">
        <ele>1784.8199999999999</ele>
        <time>2017-11-26T10:59:45Z</time>
      </trkpt>
      <trkpt lat="46.325483238324523" lon="8.273194581270218">
        <ele>1785.3099999999999</ele>
        <time>2017-11-26T11:00:07Z</time>
      </trkpt>
      <trkpt lat="46.325470833107829" lon="8.273185025900602">
        <ele>1785.79</ele>
        <time>2017-11-26T11:00:21Z</time>
      </trkpt>
      <trkpt lat="46.325487932190299" lon="8.273171614855528">
        <ele>1785.79</ele>
        <time>2017-11-26T11:00:34Z</time>
      </trkpt>
      <trkpt lat="46.32549187168479" lon="8.273172955960035">
        <ele>1786.75</ele>
        <time>2017-11-26T11:00:51Z</time>
      </trkpt>
      <trkpt lat="46.325491117313504" lon="8.273190725594759">
        <ele>1786.27</ele>
        <time>2017-11-26T11:01:08Z</time>
      </trkpt>
      <trkpt lat="46.325481310486794" lon="8.273183098062873">
        <ele>1786.27</ele>
        <time>2017-11-26T11:01:22Z</time>
      </trkpt>
      <trkpt lat="46.325487764552236" lon="8.27318636700511">
        <ele>1785.79</ele>
        <time>2017-11-26T11:01:37Z</time>
      </trkpt>
      <trkpt lat="46.325468821451068" lon="8.27317756600678">
        <ele>1785.79</ele>
        <time>2017-11-26T11:01:54Z</time>
      </trkpt>
      <trkpt lat="46.325441831722856" lon="8.273144206032157">
        <ele>1784.8199999999999</ele>
        <time>2017-11-26T11:02:02Z</time>
      </trkpt>
      <trkpt lat="46.325433366000652" lon="8.273072624579072">
        <ele>1784.3399999999999</ele>
        <time>2017-11-26T11:02:14Z</time>
      </trkpt>
      <trkpt lat="46.325424397364259" lon="8.273046975955367">
        <ele>1783.3800000000001</ele>
        <time>2017-11-26T11:02:28Z</time>
      </trkpt>
      <trkpt lat="46.32540687918663" lon="8.273023003712297">
        <ele>1782.9000000000001</ele>
        <time>2017-11-26T11:02:40Z</time>
      </trkpt>
      <trkpt lat="46.325376955792308" lon="8.272987129166722">
        <ele>1780.98</ele>
        <time>2017-11-26T11:02:52Z</time>
      </trkpt>
      <trkpt lat="46.325353737920523" lon="8.272919403389096">
        <ele>1779.0599999999999</ele>
        <time>2017-11-26T11:03:06Z</time>
      </trkpt>
      <trkpt lat="46.325326412916183" lon="8.272836590185762">
        <ele>1777.1300000000001</ele>
        <time>2017-11-26T11:03:18Z</time>
      </trkpt>
      <trkpt lat="46.325317192822695" lon="8.272789902985096">
        <ele>1777.1300000000001</ele>
        <time>2017-11-26T11:03:27Z</time>
      </trkpt>
      <trkpt lat="46.32527737878263" lon="8.272715220227838">
        <ele>1774.25</ele>
        <time>2017-11-26T11:03:37Z</time>
      </trkpt>
      <trkpt lat="46.325264722108841" lon="8.272709017619491">
        <ele>1774.25</ele>
        <time>2017-11-26T11:03:40Z</time>
      </trkpt>
      <trkpt lat="46.32523094303906" lon="8.272630060091615">
        <ele>1773.29</ele>
        <time>2017-11-26T11:03:49Z</time>
      </trkpt>
      <trkpt lat="46.325221052393317" lon="8.272540960460901">
        <ele>1773.29</ele>
        <time>2017-11-26T11:03:56Z</time>
      </trkpt>
      <trkpt lat="46.325220046564937" lon="8.272336693480611">
        <ele>1772.8099999999999</ele>
        <time>2017-11-26T11:04:09Z</time>
      </trkpt>
      <trkpt lat="46.325228428468108" lon="8.272310122847557">
        <ele>1772.8099999999999</ele>
        <time>2017-11-26T11:04:11Z</time>
      </trkpt>
      <trkpt lat="46.325275115668774" lon="8.272200068458915">
        <ele>1772.3299999999999</ele>
        <time>2017-11-26T11:04:21Z</time>
      </trkpt>
      <trkpt lat="46.32528961636126" lon="8.272105772048235">
        <ele>1770.4100000000001</ele>
        <time>2017-11-26T11:04:27Z</time>
      </trkpt>
      <trkpt lat="46.325290538370609" lon="8.271971074864268">
        <ele>1768.96</ele>
        <time>2017-11-26T11:04:37Z</time>
      </trkpt>
      <trkpt lat="46.325302356854081" lon="8.271869486197829">
        <ele>1766.5599999999999</ele>
        <time>2017-11-26T11:04:47Z</time>
      </trkpt>
      <trkpt lat="46.325306966900826" lon="8.271815087646246">
        <ele>1765.1199999999999</ele>
        <time>2017-11-26T11:04:50Z</time>
      </trkpt>
      <trkpt lat="46.325285173952579" lon="8.271679636090994">
        <ele>1762.71</ele>
        <time>2017-11-26T11:05:02Z</time>
      </trkpt>
      <trkpt lat="46.325268996879458" lon="8.271554494276643">
        <ele>1759.8299999999999</ele>
        <time>2017-11-26T11:05:12Z</time>
      </trkpt>
      <trkpt lat="46.325269499793649" lon="8.271526163443923">
        <ele>1759.3499999999999</ele>
        <time>2017-11-26T11:05:14Z</time>
      </trkpt>
      <trkpt lat="46.325288023799658" lon="8.271353160962462">
        <ele>1757.4300000000001</ele>
        <time>2017-11-26T11:05:26Z</time>
      </trkpt>
      <trkpt lat="46.325320629402995" lon="8.271138919517398">
        <ele>1755.5</ele>
        <time>2017-11-26T11:05:41Z</time>
      </trkpt>
      <trkpt lat="46.325335465371609" lon="8.271021824330092">
        <ele>1754.54</ele>
        <time>2017-11-26T11:05:51Z</time>
      </trkpt>
      <trkpt lat="46.325296992436051" lon="8.270926019176841">
        <ele>1754.54</ele>
        <time>2017-11-26T11:06:02Z</time>
      </trkpt>
      <trkpt lat="46.325295316055417" lon="8.270895844325423">
        <ele>1754.54</ele>
        <time>2017-11-26T11:06:04Z</time>
      </trkpt>
      <trkpt lat="46.325300931930542" lon="8.270738013088703">
        <ele>1754.0599999999999</ele>
        <time>2017-11-26T11:06:15Z</time>
      </trkpt>
      <trkpt lat="46.32530327886343" lon="8.270584456622601">
        <ele>1753.5799999999999</ele>
        <time>2017-11-26T11:06:26Z</time>
      </trkpt>
      <trkpt lat="46.325291376560926" lon="8.270422099158168">
        <ele>1753.5799999999999</ele>
        <time>2017-11-26T11:06:39Z</time>
      </trkpt>
      <trkpt lat="46.32525147870183" lon="8.270302824676037">
        <ele>1753.0999999999999</ele>
        <time>2017-11-26T11:06:50Z</time>
      </trkpt>
      <trkpt lat="46.32523488253355" lon="8.270164523273706">
        <ele>1753.0999999999999</ele>
        <time>2017-11-26T11:07:02Z</time>
      </trkpt>
      <trkpt lat="46.325239408761263" lon="8.27003275975585">
        <ele>1751.6600000000001</ele>
        <time>2017-11-26T11:07:13Z</time>
      </trkpt>
      <trkpt lat="46.325235972180963" lon="8.269958663731813">
        <ele>1751.1800000000001</ele>
        <time>2017-11-26T11:07:19Z</time>
      </trkpt>
      <trkpt lat="46.325213173404336" lon="8.269828492775559">
        <ele>1750.7</ele>
        <time>2017-11-26T11:07:29Z</time>
      </trkpt>
      <trkpt lat="46.32520018145442" lon="8.269657082855701">
        <ele>1749.74</ele>
        <time>2017-11-26T11:07:43Z</time>
      </trkpt>
      <trkpt lat="46.32519674487412" lon="8.269645180553198">
        <ele>1749.74</ele>
        <time>2017-11-26T11:07:44Z</time>
      </trkpt>
      <trkpt lat="46.325201019644737" lon="8.269480308517814">
        <ele>1749.26</ele>
        <time>2017-11-26T11:07:56Z</time>
      </trkpt>
      <trkpt lat="46.325163803994656" lon="8.269345862790942">
        <ele>1749.74</ele>
        <time>2017-11-26T11:08:08Z</time>
      </trkpt>
      <trkpt lat="46.325137317180634" lon="8.269215943291783">
        <ele>1749.26</ele>
        <time>2017-11-26T11:08:20Z</time>
      </trkpt>
      <trkpt lat="46.325113093480468" lon="8.26906188391149">
        <ele>1747.8099999999999</ele>
        <time>2017-11-26T11:08:32Z</time>
      </trkpt>
      <trkpt lat="46.325069842860103" lon="8.268942274153233">
        <ele>1746.3699999999999</ele>
        <time>2017-11-26T11:08:44Z</time>
      </trkpt>
      <trkpt lat="46.32503991946578" lon="8.268878655508161">
        <ele>1746.8499999999999</ele>
        <time>2017-11-26T11:08:51Z</time>
      </trkpt>
      <trkpt lat="46.32496171630919" lon="8.268750915303826">
        <ele>1746.3699999999999</ele>
        <time>2017-11-26T11:09:04Z</time>
      </trkpt>
      <trkpt lat="46.324899522587657" lon="8.268620744347572">
        <ele>1745.4100000000001</ele>
        <time>2017-11-26T11:09:16Z</time>
      </trkpt>
      <trkpt lat="46.324874963611364" lon="8.268513958901167">
        <ele>1744.9300000000001</ele>
        <time>2017-11-26T11:09:24Z</time>
      </trkpt>
      <trkpt lat="46.324809333309531" lon="8.268400132656097">
        <ele>1743.97</ele>
        <time>2017-11-26T11:09:37Z</time>
      </trkpt>
      <trkpt lat="46.324767591431737" lon="8.268267866224051">
        <ele>1743.97</ele>
        <time>2017-11-26T11:09:47Z</time>
      </trkpt>
      <trkpt lat="46.324749402701855" lon="8.268138198181987">
        <ele>1743.49</ele>
        <time>2017-11-26T11:09:58Z</time>
      </trkpt>
      <trkpt lat="46.324743703007698" lon="8.268112968653441">
        <ele>1743.49</ele>
        <time>2017-11-26T11:10:00Z</time>
      </trkpt>
      <trkpt lat="46.324628116562963" lon="8.26796586625278">
        <ele>1741.0799999999999</ele>
        <time>2017-11-26T11:10:16Z</time>
      </trkpt>
      <trkpt lat="46.324552008882165" lon="8.26785983517766">
        <ele>1740.1199999999999</ele>
        <time>2017-11-26T11:10:26Z</time>
      </trkpt>
      <trkpt lat="46.324536921456456" lon="8.267839467152953">
        <ele>1739.6400000000001</ele>
        <time>2017-11-26T11:10:28Z</time>
      </trkpt>
      <trkpt lat="46.324471207335591" lon="8.267737459391356">
        <ele>1740.1199999999999</ele>
        <time>2017-11-26T11:10:39Z</time>
      </trkpt>
      <trkpt lat="46.324386801570654" lon="8.267663782462478">
        <ele>1740.1199999999999</ele>
        <time>2017-11-26T11:10:49Z</time>
      </trkpt>
      <trkpt lat="46.324263168498874" lon="8.267542915418744">
        <ele>1740.5999999999999</ele>
        <time>2017-11-26T11:11:04Z</time>
      </trkpt>
      <trkpt lat="46.324186222627759" lon="8.267431519925594">
        <ele>1738.6800000000001</ele>
        <time>2017-11-26T11:11:15Z</time>
      </trkpt>
      <trkpt lat="46.324089411646128" lon="8.2673086412251">
        <ele>1737.72</ele>
        <time>2017-11-26T11:11:28Z</time>
      </trkpt>
      <trkpt lat="46.323998216539621" lon="8.267205376178026">
        <ele>1736.76</ele>
        <time>2017-11-26T11:11:39Z</time>
      </trkpt>
      <trkpt lat="46.323960665613413" lon="8.267020219936967">
        <ele>1735.8</ele>
        <time>2017-11-26T11:11:52Z</time>
      </trkpt>
      <trkpt lat="46.323929987847805" lon="8.266863562166691">
        <ele>1735.3199999999999</ele>
        <time>2017-11-26T11:12:04Z</time>
      </trkpt>
      <trkpt lat="46.323878103867173" lon="8.266737163066864">
        <ele>1734.8399999999999</ele>
        <time>2017-11-26T11:12:15Z</time>
      </trkpt>
      <trkpt lat="46.323822615668178" lon="8.266613278537989">
        <ele>1733.8800000000001</ele>
        <time>2017-11-26T11:12:25Z</time>
      </trkpt>
      <trkpt lat="46.323794117197394" lon="8.26648729853332">
        <ele>1732.9100000000001</ele>
        <time>2017-11-26T11:12:35Z</time>
      </trkpt>
      <trkpt lat="46.323719602078199" lon="8.266367185860872">
        <ele>1731.95</ele>
        <time>2017-11-26T11:12:47Z</time>
      </trkpt>
      <trkpt lat="46.323677022010088" lon="8.266203906387091">
        <ele>1731.95</ele>
        <time>2017-11-26T11:12:59Z</time>
      </trkpt>
      <trkpt lat="46.323599154129624" lon="8.266085805371404">
        <ele>1730.51</ele>
        <time>2017-11-26T11:13:11Z</time>
      </trkpt>
      <trkpt lat="46.323513323441148" lon="8.265940127894282">
        <ele>1729.55</ele>
        <time>2017-11-26T11:13:25Z</time>
      </trkpt>
      <trkpt lat="46.323424642905593" lon="8.265827726572752">
        <ele>1729.55</ele>
        <time>2017-11-26T11:13:38Z</time>
      </trkpt>
      <trkpt lat="46.323405532166362" lon="8.265798138454557">
        <ele>1729.0699999999999</ele>
        <time>2017-11-26T11:13:41Z</time>
      </trkpt>
      <trkpt lat="46.323328837752342" lon="8.265654724091291">
        <ele>1728.1099999999999</ele>
        <time>2017-11-26T11:13:54Z</time>
      </trkpt>
      <trkpt lat="46.323249377310276" lon="8.265551626682282">
        <ele>1725.7</ele>
        <time>2017-11-26T11:14:07Z</time>
      </trkpt>
      <trkpt lat="46.323164971545339" lon="8.265403602272272">
        <ele>1725.22</ele>
        <time>2017-11-26T11:14:20Z</time>
      </trkpt>
      <trkpt lat="46.323132198303938" lon="8.265258427709341">
        <ele>1724.74</ele>
        <time>2017-11-26T11:14:32Z</time>
      </trkpt>
      <trkpt lat="46.323132114484906" lon="8.265243675559759">
        <ele>1724.74</ele>
        <time>2017-11-26T11:14:33Z</time>
      </trkpt>
      <trkpt lat="46.323129013180733" lon="8.265099255368114">
        <ele>1723.78</ele>
        <time>2017-11-26T11:14:44Z</time>
      </trkpt>
      <trkpt lat="46.323124403133988" lon="8.26498375274241">
        <ele>1722.8199999999999</ele>
        <time>2017-11-26T11:14:53Z</time>
      </trkpt>
      <trkpt lat="46.323143597692251" lon="8.264964558184147">
        <ele>1722.8199999999999</ele>
        <time>2017-11-26T11:15:01Z</time>
      </trkpt>
      <trkpt lat="46.323156673461199" lon="8.264976544305682">
        <ele>1722.3399999999999</ele>
        <time>2017-11-26T11:15:12Z</time>
      </trkpt>
      <trkpt lat="46.323154997080564" lon="8.264976125210524">
        <ele>1722.8199999999999</ele>
        <time>2017-11-26T11:15:21Z</time>
      </trkpt>
      <trkpt lat="46.323139490559697" lon="8.264876045286655">
        <ele>1722.3399999999999</ele>
        <time>2017-11-26T11:15:35Z</time>
      </trkpt>
      <trkpt lat="46.323116021230817" lon="8.264751406386495">
        <ele>1720.4200000000001</ele>
        <time>2017-11-26T11:15:47Z</time>
      </trkpt>
      <trkpt lat="46.323117613792419" lon="8.264713771641254">
        <ele>1720.4200000000001</ele>
        <time>2017-11-26T11:15:55Z</time>
      </trkpt>
      <trkpt lat="46.323105124756694" lon="8.264698768034577">
        <ele>1720.4200000000001</ele>
        <time>2017-11-26T11:16:04Z</time>
      </trkpt>
      <trkpt lat="46.323085427284241" lon="8.264656523242593">
        <ele>1719.9400000000001</ele>
        <time>2017-11-26T11:16:13Z</time>
      </trkpt>
      <trkpt lat="46.322996327653527" lon="8.264505732804537">
        <ele>1716.5699999999999</ele>
        <time>2017-11-26T11:16:26Z</time>
      </trkpt>
      <trkpt lat="46.322940923273563" lon="8.264410179108381">
        <ele>1715.1300000000001</ele>
        <time>2017-11-26T11:16:35Z</time>
      </trkpt>
      <trkpt lat="46.322926171123981" lon="8.264398025348783">
        <ele>1715.1300000000001</ele>
        <time>2017-11-26T11:16:37Z</time>
      </trkpt>
      <trkpt lat="46.322815110906959" lon="8.264371203258634">
        <ele>1712.73</ele>
        <time>2017-11-26T11:16:50Z</time>
      </trkpt>
      <trkpt lat="46.322755264118314" lon="8.264338597655296">
        <ele>1710.8</ele>
        <time>2017-11-26T11:16:56Z</time>
      </trkpt>
      <trkpt lat="46.322712851688266" lon="8.264289479702711">
        <ele>1709.8399999999999</ele>
        <time>2017-11-26T11:17:00Z</time>
      </trkpt>
      <trkpt lat="46.32261629216373" lon="8.264215551316738">
        <ele>1707.4400000000001</ele>
        <time>2017-11-26T11:17:10Z</time>
      </trkpt>
      <trkpt lat="46.322586201131344" lon="8.26416433788836">
        <ele>1706.48</ele>
        <time>2017-11-26T11:17:15Z</time>
      </trkpt>
      <trkpt lat="46.322518894448876" lon="8.264074986800551">
        <ele>1703.5899999999999</ele>
        <time>2017-11-26T11:17:27Z</time>
      </trkpt>
      <trkpt lat="46.32246776483953" lon="8.264026874676347">
        <ele>1701.1900000000001</ele>
        <time>2017-11-26T11:17:38Z</time>
      </trkpt>
      <trkpt lat="46.322397775948048" lon="8.263965267688036">
        <ele>1698.79</ele>
        <time>2017-11-26T11:17:49Z</time>
      </trkpt>
      <trkpt lat="46.322391154244542" lon="8.263959735631943">
        <ele>1698.3099999999999</ele>
        <time>2017-11-26T11:17:50Z</time>
      </trkpt>
      <trkpt lat="46.322311526164412" lon="8.263872899115086">
        <ele>1695.4200000000001</ele>
        <time>2017-11-26T11:18:02Z</time>
      </trkpt>
      <trkpt lat="46.322251679375768" lon="8.263828307390213">
        <ele>1693.02</ele>
        <time>2017-11-26T11:18:11Z</time>
      </trkpt>
      <trkpt lat="46.322250422090292" lon="8.263767790049315">
        <ele>1692.0599999999999</ele>
        <time>2017-11-26T11:18:17Z</time>
      </trkpt>
      <trkpt lat="46.322291325777769" lon="8.263671481981874">
        <ele>1690.1400000000001</ele>
        <time>2017-11-26T11:18:25Z</time>
      </trkpt>
      <trkpt lat="46.322257798165083" lon="8.263626135885716">
        <ele>1687.25</ele>
        <time>2017-11-26T11:18:34Z</time>
      </trkpt>
      <trkpt lat="46.322184037417173" lon="8.263591350987554">
        <ele>1684.8499999999999</ele>
        <time>2017-11-26T11:18:44Z</time>
      </trkpt>
      <trkpt lat="46.322193006053567" lon="8.263540975749493">
        <ele>1684.8499999999999</ele>
        <time>2017-11-26T11:18:47Z</time>
      </trkpt>
      <trkpt lat="46.32226157002151" lon="8.26342404820025">
        <ele>1681.96</ele>
        <time>2017-11-26T11:18:58Z</time>
      </trkpt>
      <trkpt lat="46.322266347706318" lon="8.263349197804928">
        <ele>1680.52</ele>
        <time>2017-11-26T11:19:04Z</time>
      </trkpt>
      <trkpt lat="46.322219325229526" lon="8.26330192387104">
        <ele>1678.5999999999999</ele>
        <time>2017-11-26T11:19:10Z</time>
      </trkpt>
      <trkpt lat="46.322171716019511" lon="8.263159431517124">
        <ele>1675.23</ele>
        <time>2017-11-26T11:19:20Z</time>
      </trkpt>
      <trkpt lat="46.32213014177978" lon="8.263012832030654">
        <ele>1673.3099999999999</ele>
        <time>2017-11-26T11:19:30Z</time>
      </trkpt>
      <trkpt lat="46.322045149281621" lon="8.262956505641341">
        <ele>1673.79</ele>
        <time>2017-11-26T11:19:41Z</time>
      </trkpt>
      <trkpt lat="46.321962922811508" lon="8.262950638309121">
        <ele>1672.3499999999999</ele>
        <time>2017-11-26T11:19:49Z</time>
      </trkpt>
      <trkpt lat="46.321863597258925" lon="8.26295206323266">
        <ele>1669.95</ele>
        <time>2017-11-26T11:19:59Z</time>
      </trkpt>
      <trkpt lat="46.321806265041232" lon="8.262938736006618">
        <ele>1668.51</ele>
        <time>2017-11-26T11:20:04Z</time>
      </trkpt>
      <trkpt lat="46.321693360805511" lon="8.262945525348187">
        <ele>1665.6199999999999</ele>
        <time>2017-11-26T11:20:16Z</time>
      </trkpt>
      <trkpt lat="46.321619348600507" lon="8.26295206323266">
        <ele>1663.7</ele>
        <time>2017-11-26T11:20:24Z</time>
      </trkpt>
      <trkpt lat="46.321476604789495" lon="8.262987518683076">
        <ele>1660.8099999999999</ele>
        <time>2017-11-26T11:20:37Z</time>
      </trkpt>
      <trkpt lat="46.321344925090671" lon="8.262963211163878">
        <ele>1657.9300000000001</ele>
        <time>2017-11-26T11:20:49Z</time>
      </trkpt>
      <trkpt lat="46.321192374452949" lon="8.262893138453364">
        <ele>1655.53</ele>
        <time>2017-11-26T11:21:03Z</time>
      </trkpt>
      <trkpt lat="46.321091456338763" lon="8.262860532850027">
        <ele>1654.0899999999999</ele>
        <time>2017-11-26T11:21:12Z</time>
      </trkpt>
      <trkpt lat="46.320967571809888" lon="8.262865645810962">
        <ele>1652.6400000000001</ele>
        <time>2017-11-26T11:21:25Z</time>
      </trkpt>
      <trkpt lat="46.320965141057968" lon="8.262870674952865">
        <ele>1653.1199999999999</ele>
        <time>2017-11-26T11:21:28Z</time>
      </trkpt>
      <trkpt lat="46.320954663679004" lon="8.262855419889092">
        <ele>1652.6400000000001</ele>
        <time>2017-11-26T11:21:30Z</time>
      </trkpt>
      <trkpt lat="46.320824325084686" lon="8.262787442654371">
        <ele>1650.72</ele>
        <time>2017-11-26T11:21:43Z</time>
      </trkpt>
      <trkpt lat="46.320777134969831" lon="8.262766487896442">
        <ele>1649.76</ele>
        <time>2017-11-26T11:21:48Z</time>
      </trkpt>
      <trkpt lat="46.320628272369504" lon="8.262663641944528">
        <ele>1647.8399999999999</ele>
        <time>2017-11-26T11:22:04Z</time>
      </trkpt>
      <trkpt lat="46.320572448894382" lon="8.262619050219655">
        <ele>1646.8800000000001</ele>
        <time>2017-11-26T11:22:13Z</time>
      </trkpt>
      <trkpt lat="46.320429285988212" lon="8.262525675818324">
        <ele>1643.99</ele>
        <time>2017-11-26T11:22:28Z</time>
      </trkpt>
      <trkpt lat="46.320344712585211" lon="8.262398354709148">
        <ele>1642.55</ele>
        <time>2017-11-26T11:22:40Z</time>
      </trkpt>
      <trkpt lat="46.32027723826468" lon="8.262295173481107">
        <ele>1641.5899999999999</ele>
        <time>2017-11-26T11:22:51Z</time>
      </trkpt>
      <trkpt lat="46.32027086801827" lon="8.262302298098803">
        <ele>1640.1500000000001</ele>
        <time>2017-11-26T11:23:00Z</time>
      </trkpt>
      <trkpt lat="46.320295007899404" lon="8.262262232601643">
        <ele>1641.1099999999999</ele>
        <time>2017-11-26T11:23:13Z</time>
      </trkpt>
      <trkpt lat="46.320287380367517" lon="8.262227363884449">
        <ele>1640.6300000000001</ele>
        <time>2017-11-26T11:23:21Z</time>
      </trkpt>
      <trkpt lat="46.320287212729454" lon="8.262229291722179">
        <ele>1641.1099999999999</ele>
        <time>2017-11-26T11:23:35Z</time>
      </trkpt>
      <trkpt lat="46.320300539955497" lon="8.262231387197971">
        <ele>1640.1500000000001</ele>
        <time>2017-11-26T11:23:45Z</time>
      </trkpt>
      <trkpt lat="46.320273885503411" lon="8.26223960146308">
        <ele>1641.1099999999999</ele>
        <time>2017-11-26T11:23:54Z</time>
      </trkpt>
      <trkpt lat="46.320281848311424" lon="8.262214623391628">
        <ele>1641.1099999999999</ele>
        <time>2017-11-26T11:24:05Z</time>
      </trkpt>
      <trkpt lat="46.320271790027618" lon="8.262210348621011">
        <ele>1640.6300000000001</ele>
        <time>2017-11-26T11:24:17Z</time>
      </trkpt>
      <trkpt lat="46.32027430459857" lon="8.262213366106153">
        <ele>1639.6700000000001</ele>
        <time>2017-11-26T11:24:32Z</time>
      </trkpt>
      <trkpt lat="46.320268018171191" lon="8.262211186811328">
        <ele>1641.1099999999999</ele>
        <time>2017-11-26T11:24:46Z</time>
      </trkpt>
      <trkpt lat="46.320284027606249" lon="8.26215997338295">
        <ele>1640.1500000000001</ele>
        <time>2017-11-26T11:25:01Z</time>
      </trkpt>
      <trkpt lat="46.320281010121107" lon="8.262164918705821">
        <ele>1641.5899999999999</ele>
        <time>2017-11-26T11:25:11Z</time>
      </trkpt>
      <trkpt lat="46.320277908816934" lon="8.262133738026023">
        <ele>1640.1500000000001</ele>
        <time>2017-11-26T11:25:27Z</time>
      </trkpt>
      <trkpt lat="46.320283692330122" lon="8.262083698064089">
        <ele>1639.6700000000001</ele>
        <time>2017-11-26T11:25:32Z</time>
      </trkpt>
      <trkpt lat="46.320284530520439" lon="8.262018403038383">
        <ele>1640.1500000000001</ele>
        <time>2017-11-26T11:25:37Z</time>
      </trkpt>
      <trkpt lat="46.320283021777868" lon="8.261865768581629">
        <ele>1640.6300000000001</ele>
        <time>2017-11-26T11:25:48Z</time>
      </trkpt>
      <trkpt lat="46.320282854139805" lon="8.261809274554253">
        <ele>1641.1099999999999</ele>
        <time>2017-11-26T11:25:56Z</time>
      </trkpt>
      <trkpt lat="46.320238430052996" lon="8.261708356440067">
        <ele>1640.6300000000001</ele>
        <time>2017-11-26T11:26:05Z</time>
      </trkpt>
      <trkpt lat="46.320206997916102" lon="8.261500485241413">
        <ele>1640.1500000000001</ele>
        <time>2017-11-26T11:26:20Z</time>
      </trkpt>
      <trkpt lat="46.320204734802246" lon="8.26131365261972">
        <ele>1640.1500000000001</ele>
        <time>2017-11-26T11:26:32Z</time>
      </trkpt>
      <trkpt lat="46.320221750065684" lon="8.261204017326236">
        <ele>1640.6300000000001</ele>
        <time>2017-11-26T11:26:39Z</time>
      </trkpt>
      <trkpt lat="46.320219738408923" lon="8.261046102270484">
        <ele>1642.0699999999999</ele>
        <time>2017-11-26T11:26:50Z</time>
      </trkpt>
      <trkpt lat="46.320211607962847" lon="8.260968737304211">
        <ele>1642.55</ele>
        <time>2017-11-26T11:26:56Z</time>
      </trkpt>
      <trkpt lat="46.320191659033298" lon="8.260862287133932">
        <ele>1641.5899999999999</ele>
        <time>2017-11-26T11:27:05Z</time>
      </trkpt>
      <trkpt lat="46.320173973217607" lon="8.260714765638113">
        <ele>1641.5899999999999</ele>
        <time>2017-11-26T11:27:16Z</time>
      </trkpt>
      <trkpt lat="46.320193503051996" lon="8.260653242468834">
        <ele>1641.5899999999999</ele>
        <time>2017-11-26T11:27:20Z</time>
      </trkpt>
      <trkpt lat="46.320261815562844" lon="8.260512007400394">
        <ele>1642.0699999999999</ele>
        <time>2017-11-26T11:27:31Z</time>
      </trkpt>
      <trkpt lat="46.320312861353159" lon="8.260343782603741">
        <ele>1641.5899999999999</ele>
        <time>2017-11-26T11:27:42Z</time>
      </trkpt>
      <trkpt lat="46.32032023742795" lon="8.260161727666855">
        <ele>1641.5899999999999</ele>
        <time>2017-11-26T11:27:53Z</time>
      </trkpt>
      <trkpt lat="46.320312945172191" lon="8.260127864778042">
        <ele>1641.1099999999999</ele>
        <time>2017-11-26T11:27:56Z</time>
      </trkpt>
      <trkpt lat="46.320320488885045" lon="8.260006997734308">
        <ele>1641.5899999999999</ele>
        <time>2017-11-26T11:28:03Z</time>
      </trkpt>
      <trkpt lat="46.320413444191217" lon="8.259884873405099">
        <ele>1641.1099999999999</ele>
        <time>2017-11-26T11:28:13Z</time>
      </trkpt>
      <trkpt lat="46.320451330393553" lon="8.25978915207088">
        <ele>1639.6700000000001</ele>
        <time>2017-11-26T11:28:21Z</time>
      </trkpt>
      <trkpt lat="46.320454096421599" lon="8.259760150685906">
        <ele>1639.6700000000001</ele>
        <time>2017-11-26T11:28:23Z</time>
      </trkpt>
      <trkpt lat="46.3204644061625" lon="8.259689910337329">
        <ele>1641.5899999999999</ele>
        <time>2017-11-26T11:28:28Z</time>
      </trkpt>
      <trkpt lat="46.320472285151482" lon="8.259655879810453">
        <ele>1641.1099999999999</ele>
        <time>2017-11-26T11:28:30Z</time>
      </trkpt>
      <trkpt lat="46.320502376183867" lon="8.259593937546015">
        <ele>1640.1500000000001</ele>
        <time>2017-11-26T11:28:34Z</time>
      </trkpt>
      <trkpt lat="46.320562474429607" lon="8.259392604231834">
        <ele>1639.1900000000001</ele>
        <time>2017-11-26T11:28:50Z</time>
      </trkpt>
      <trkpt lat="46.320568006485701" lon="8.259364943951368">
        <ele>1640.6300000000001</ele>
        <time>2017-11-26T11:28:53Z</time>
      </trkpt>
      <trkpt lat="46.320586781948805" lon="8.259257907047868">
        <ele>1641.5899999999999</ele>
        <time>2017-11-26T11:29:01Z</time>
      </trkpt>
      <trkpt lat="46.320593152195215" lon="8.259230246767402">
        <ele>1641.5899999999999</ele>
        <time>2017-11-26T11:29:03Z</time>
      </trkpt>
      <trkpt lat="46.320576807484031" lon="8.259112061932683">
        <ele>1644.95</ele>
        <time>2017-11-26T11:29:13Z</time>
      </trkpt>
      <trkpt lat="46.320475805550814" lon="8.259016927331686">
        <ele>1642.55</ele>
        <time>2017-11-26T11:29:25Z</time>
      </trkpt>
      <trkpt lat="46.320472285151482" lon="8.259010557085276">
        <ele>1643.51</ele>
        <time>2017-11-26T11:29:29Z</time>
      </trkpt>
      <trkpt lat="46.320401960983872" lon="8.258964875712991">
        <ele>1642.0699999999999</ele>
        <time>2017-11-26T11:29:41Z</time>
      </trkpt>
      <trkpt lat="46.320314956828952" lon="8.258893294259906">
        <ele>1641.1099999999999</ele>
        <time>2017-11-26T11:29:51Z</time>
      </trkpt>
      <trkpt lat="46.320217475295067" lon="8.258717441931367">
        <ele>1642.0699999999999</ele>
        <time>2017-11-26T11:30:06Z</time>
      </trkpt>
      <trkpt lat="46.320167686790228" lon="8.258583331480622">
        <ele>1642.55</ele>
        <time>2017-11-26T11:30:16Z</time>
      </trkpt>
      <trkpt lat="46.320133656263351" lon="8.258469589054585">
        <ele>1643.03</ele>
        <time>2017-11-26T11:30:25Z</time>
      </trkpt>
      <trkpt lat="46.320108259096742" lon="8.258343357592821">
        <ele>1643.03</ele>
        <time>2017-11-26T11:30:34Z</time>
      </trkpt>
      <trkpt lat="46.320096775889397" lon="8.258150154724717">
        <ele>1643.03</ele>
        <time>2017-11-26T11:30:47Z</time>
      </trkpt>
      <trkpt lat="46.320098955184221" lon="8.258108664304018">
        <ele>1643.03</ele>
        <time>2017-11-26T11:30:50Z</time>
      </trkpt>
      <trkpt lat="46.320095015689731" lon="8.258079830557108">
        <ele>1643.03</ele>
        <time>2017-11-26T11:30:52Z</time>
      </trkpt>
      <trkpt lat="46.320100044831634" lon="8.257966507226229">
        <ele>1643.03</ele>
        <time>2017-11-26T11:31:00Z</time>
      </trkpt>
      <trkpt lat="46.320094428956509" lon="8.257804485037923">
        <ele>1642.55</ele>
        <time>2017-11-26T11:31:12Z</time>
      </trkpt>
      <trkpt lat="46.320092584937811" lon="8.257644725963473">
        <ele>1642.55</ele>
        <time>2017-11-26T11:31:23Z</time>
      </trkpt>
      <trkpt lat="46.32008864544332" lon="8.257467364892364">
        <ele>1643.03</ele>
        <time>2017-11-26T11:31:36Z</time>
      </trkpt>
      <trkpt lat="46.320090992376208" lon="8.257264858111739">
        <ele>1643.03</ele>
        <time>2017-11-26T11:31:50Z</time>
      </trkpt>
      <trkpt lat="46.320094848051667" lon="8.257118090987206">
        <ele>1643.51</ele>
        <time>2017-11-26T11:32:00Z</time>
      </trkpt>
      <trkpt lat="46.320095518603921" lon="8.256984315812588">
        <ele>1644.47</ele>
        <time>2017-11-26T11:32:10Z</time>
      </trkpt>
      <trkpt lat="46.320152515545487" lon="8.256908459588885">
        <ele>1644.47</ele>
        <time>2017-11-26T11:32:20Z</time>
      </trkpt>
      <trkpt lat="46.320159556344151" lon="8.256833693012595">
        <ele>1644.47</ele>
        <time>2017-11-26T11:32:26Z</time>
      </trkpt>
      <trkpt lat="46.320219235494733" lon="8.256692960858345">
        <ele>1644.95</ele>
        <time>2017-11-26T11:32:37Z</time>
      </trkpt>
      <trkpt lat="46.32030313834548" lon="8.256599251180887">
        <ele>1645.4300000000001</ele>
        <time>2017-11-26T11:32:49Z</time>
      </trkpt>
      <trkpt lat="46.320388801395893" lon="8.256530938670039">
        <ele>1645.4300000000001</ele>
        <time>2017-11-26T11:33:00Z</time>
      </trkpt>
      <trkpt lat="46.320461891591549" lon="8.25645818375051">
        <ele>1644.95</ele>
        <time>2017-11-26T11:33:10Z</time>
      </trkpt>
      <trkpt lat="46.320569682866335" lon="8.2563741132617">
        <ele>1644.95</ele>
        <time>2017-11-26T11:33:22Z</time>
      </trkpt>
      <trkpt lat="46.320612849667668" lon="8.256328264251351">
        <ele>1645.4300000000001</ele>
        <time>2017-11-26T11:33:28Z</time>
      </trkpt>
      <trkpt lat="46.320668002590537" lon="8.256202703341842">
        <ele>1645.4300000000001</ele>
        <time>2017-11-26T11:33:39Z</time>
      </trkpt>
      <trkpt lat="46.320690801367164" lon="8.256065407767892">
        <ele>1645.4300000000001</ele>
        <time>2017-11-26T11:33:49Z</time>
      </trkpt>
      <trkpt lat="46.320681078359485" lon="8.256017044186592">
        <ele>1646.4000000000001</ele>
        <time>2017-11-26T11:33:53Z</time>
      </trkpt>
      <trkpt lat="46.320671271532774" lon="8.255974045023322">
        <ele>1646.4000000000001</ele>
        <time>2017-11-26T11:33:56Z</time>
      </trkpt>
      <trkpt lat="46.320643946528435" lon="8.255845550447702">
        <ele>1646.8800000000001</ele>
        <time>2017-11-26T11:34:07Z</time>
      </trkpt>
      <trkpt lat="46.320642689242959" lon="8.255696520209312">
        <ele>1646.8800000000001</ele>
        <time>2017-11-26T11:34:18Z</time>
      </trkpt>
      <trkpt lat="46.320633050054312" lon="8.255612282082439">
        <ele>1646.8800000000001</ele>
        <time>2017-11-26T11:34:25Z</time>
      </trkpt>
      <trkpt lat="46.320526516065001" lon="8.255511866882443">
        <ele>1645.4300000000001</ele>
        <time>2017-11-26T11:34:38Z</time>
      </trkpt>
      <trkpt lat="46.320430124178529" lon="8.255466856062412">
        <ele>1645.4300000000001</ele>
        <time>2017-11-26T11:34:49Z</time>
      </trkpt>
      <trkpt lat="46.320299617946148" lon="8.255394352599978">
        <ele>1644.95</ele>
        <time>2017-11-26T11:35:02Z</time>
      </trkpt>
      <trkpt lat="46.320168441161513" lon="8.255364261567593">
        <ele>1644.47</ele>
        <time>2017-11-26T11:35:14Z</time>
      </trkpt>
      <trkpt lat="46.320048160851002" lon="8.255325285717845">
        <ele>1644.95</ele>
        <time>2017-11-26T11:35:26Z</time>
      </trkpt>
      <trkpt lat="46.319932322949171" lon="8.255278514698148">
        <ele>1644.95</ele>
        <time>2017-11-26T11:35:36Z</time>
      </trkpt>
      <trkpt lat="46.319804834201932" lon="8.255245992913842">
        <ele>1644.95</ele>
        <time>2017-11-26T11:35:47Z</time>
      </trkpt>
      <trkpt lat="46.319716405123472" lon="8.255215985700488">
        <ele>1644.95</ele>
        <time>2017-11-26T11:35:56Z</time>
      </trkpt>
      <trkpt lat="46.319622360169888" lon="8.255179692059755">
        <ele>1644.95</ele>
        <time>2017-11-26T11:36:05Z</time>
      </trkpt>
      <trkpt lat="46.319489423185587" lon="8.255146332085133">
        <ele>1644.47</ele>
        <time>2017-11-26T11:36:17Z</time>
      </trkpt>
      <trkpt lat="46.319368807598948" lon="8.255086066201329">
        <ele>1644.47</ele>
        <time>2017-11-26T11:36:28Z</time>
      </trkpt>
      <trkpt lat="46.319263698533177" lon="8.254941897466779">
        <ele>1643.99</ele>
        <time>2017-11-26T11:36:41Z</time>
      </trkpt>
      <trkpt lat="46.319206198677421" lon="8.254785826429725">
        <ele>1644.47</ele>
        <time>2017-11-26T11:36:52Z</time>
      </trkpt>
      <trkpt lat="46.319176107645035" lon="8.254679962992668">
        <ele>1644.47</ele>
        <time>2017-11-26T11:37:00Z</time>
      </trkpt>
      <trkpt lat="46.319115674123168" lon="8.254544595256448">
        <ele>1644.95</ele>
        <time>2017-11-26T11:37:11Z</time>
      </trkpt>
      <trkpt lat="46.319025652483106" lon="8.254367401823402">
        <ele>1644.95</ele>
        <time>2017-11-26T11:37:25Z</time>
      </trkpt>
      <trkpt lat="46.318959938362241" lon="8.254229854792357">
        <ele>1644.47</ele>
        <time>2017-11-26T11:37:36Z</time>
      </trkpt>
      <trkpt lat="46.31893546320498" lon="8.25418652035296">
        <ele>1644.95</ele>
        <time>2017-11-26T11:37:40Z</time>
      </trkpt>
      <trkpt lat="46.318920459598303" lon="8.25409222394228">
        <ele>1644.47</ele>
        <time>2017-11-26T11:37:46Z</time>
      </trkpt>
      <trkpt lat="46.31888072937727" lon="8.253909582272172">
        <ele>1644.95</ele>
        <time>2017-11-26T11:37:58Z</time>
      </trkpt>
      <trkpt lat="46.318819709122181" lon="8.253766587004066">
        <ele>1644.95</ele>
        <time>2017-11-26T11:38:09Z</time>
      </trkpt>
      <trkpt lat="46.31873270496726" lon="8.253583023324609">
        <ele>1644.95</ele>
        <time>2017-11-26T11:38:23Z</time>
      </trkpt>
      <trkpt lat="46.318683754652739" lon="8.253415385261178">
        <ele>1643.99</ele>
        <time>2017-11-26T11:38:34Z</time>
      </trkpt>
      <trkpt lat="46.318639162927866" lon="8.25322444550693">
        <ele>1643.99</ele>
        <time>2017-11-26T11:38:46Z</time>
      </trkpt>
      <trkpt lat="46.318535646423697" lon="8.25305244885385">
        <ele>1643.51</ele>
        <time>2017-11-26T11:38:59Z</time>
      </trkpt>
      <trkpt lat="46.318391477689147" lon="8.252950944006443">
        <ele>1642.55</ele>
        <time>2017-11-26T11:39:13Z</time>
      </trkpt>
      <trkpt lat="46.318309083580971" lon="8.252916326746345">
        <ele>1642.55</ele>
        <time>2017-11-26T11:39:20Z</time>
      </trkpt>
      <trkpt lat="46.31817564368248" lon="8.252877769991756">
        <ele>1641.5899999999999</ele>
        <time>2017-11-26T11:39:33Z</time>
      </trkpt>
      <trkpt lat="46.318148989230394" lon="8.252867376431823">
        <ele>1641.5899999999999</ele>
        <time>2017-11-26T11:39:36Z</time>
      </trkpt>
      <trkpt lat="46.318097105249763" lon="8.252847762778401">
        <ele>1642.55</ele>
        <time>2017-11-26T11:39:41Z</time>
      </trkpt>
      <trkpt lat="46.317980596795678" lon="8.252809625118971">
        <ele>1641.1099999999999</ele>
        <time>2017-11-26T11:39:52Z</time>
      </trkpt>
      <trkpt lat="46.317878421396017" lon="8.252778612077236">
        <ele>1641.1099999999999</ele>
        <time>2017-11-26T11:40:02Z</time>
      </trkpt>
      <trkpt lat="46.317770797759295" lon="8.252722453325987">
        <ele>1640.1500000000001</ele>
        <time>2017-11-26T11:40:12Z</time>
      </trkpt>
      <trkpt lat="46.317663677036762" lon="8.252668725326657">
        <ele>1640.1500000000001</ele>
        <time>2017-11-26T11:40:22Z</time>
      </trkpt>
      <trkpt lat="46.317582875490189" lon="8.252630084753037">
        <ele>1640.1500000000001</ele>
        <time>2017-11-26T11:40:29Z</time>
      </trkpt>
      <trkpt lat="46.317562088370323" lon="8.25261021964252">
        <ele>1640.6300000000001</ele>
        <time>2017-11-26T11:40:32Z</time>
      </trkpt>
      <trkpt lat="46.31747298873961" lon="8.252579038962722">
        <ele>1640.6300000000001</ele>
        <time>2017-11-26T11:40:41Z</time>
      </trkpt>
      <trkpt lat="46.317362599074841" lon="8.252535285428166">
        <ele>1640.6300000000001</ele>
        <time>2017-11-26T11:40:52Z</time>
      </trkpt>
      <trkpt lat="46.317313984036446" lon="8.252517431974411">
        <ele>1640.6300000000001</ele>
        <time>2017-11-26T11:40:57Z</time>
      </trkpt>
      <trkpt lat="46.317280121147633" lon="8.252497566863895">
        <ele>1641.1099999999999</ele>
        <time>2017-11-26T11:41:00Z</time>
      </trkpt>
      <trkpt lat="46.317186495289207" lon="8.252465296536684">
        <ele>1641.1099999999999</ele>
        <time>2017-11-26T11:41:10Z</time>
      </trkpt>
      <trkpt lat="46.317089349031448" lon="8.25242749415338">
        <ele>1642.0699999999999</ele>
        <time>2017-11-26T11:41:20Z</time>
      </trkpt>
      <trkpt lat="46.317001925781369" lon="8.25238935649395">
        <ele>1641.5899999999999</ele>
        <time>2017-11-26T11:41:29Z</time>
      </trkpt>
      <trkpt lat="46.31687929853797" lon="8.252369491383433">
        <ele>1641.5899999999999</ele>
        <time>2017-11-26T11:41:41Z</time>
      </trkpt>
      <trkpt lat="46.316767735406756" lon="8.252388183027506">
        <ele>1641.5899999999999</ele>
        <time>2017-11-26T11:41:52Z</time>
      </trkpt>
      <trkpt lat="46.316691627725959" lon="8.252414921298623">
        <ele>1642.55</ele>
        <time>2017-11-26T11:42:01Z</time>
      </trkpt>
      <trkpt lat="46.316630356013775" lon="8.252454735338688">
        <ele>1642.0699999999999</ele>
        <time>2017-11-26T11:42:08Z</time>
      </trkpt>
      <trkpt lat="46.31649624556303" lon="8.252533609047532">
        <ele>1642.55</ele>
        <time>2017-11-26T11:42:21Z</time>
      </trkpt>
      <trkpt lat="46.316406223922968" lon="8.252577362582088">
        <ele>1643.51</ele>
        <time>2017-11-26T11:42:31Z</time>
      </trkpt>
      <trkpt lat="46.316326512023807" lon="8.252630587667227">
        <ele>1643.99</ele>
        <time>2017-11-26T11:42:41Z</time>
      </trkpt>
      <trkpt lat="46.316272029653192" lon="8.252662606537342">
        <ele>1643.99</ele>
        <time>2017-11-26T11:42:48Z</time>
      </trkpt>
      <trkpt lat="46.31620354950428" lon="8.252706024795771">
        <ele>1644.95</ele>
        <time>2017-11-26T11:42:58Z</time>
      </trkpt>
      <trkpt lat="46.316202292218804" lon="8.252710718661547">
        <ele>1644.95</ele>
        <time>2017-11-26T11:42:59Z</time>
      </trkpt>
      <trkpt lat="46.316090729087591" lon="8.252796046435833">
        <ele>1644.47</ele>
        <time>2017-11-26T11:43:11Z</time>
      </trkpt>
      <trkpt lat="46.316026691347361" lon="8.252858826890588">
        <ele>1645.4300000000001</ele>
        <time>2017-11-26T11:43:19Z</time>
      </trkpt>
      <trkpt lat="46.315967431291938" lon="8.253003749996424">
        <ele>1645.9100000000001</ele>
        <time>2017-11-26T11:43:31Z</time>
      </trkpt>
      <trkpt lat="46.315940609201789" lon="8.253079270943999">
        <ele>1645.9100000000001</ele>
        <time>2017-11-26T11:43:36Z</time>
      </trkpt>
      <trkpt lat="46.3159089256078" lon="8.253206424415112">
        <ele>1644.95</ele>
        <time>2017-11-26T11:43:45Z</time>
      </trkpt>
      <trkpt lat="46.315890569239855" lon="8.253276078030467">
        <ele>1645.9100000000001</ele>
        <time>2017-11-26T11:43:51Z</time>
      </trkpt>
      <trkpt lat="46.315885037183762" lon="8.253300301730633">
        <ele>1645.9100000000001</ele>
        <time>2017-11-26T11:43:53Z</time>
      </trkpt>
      <trkpt lat="46.315846648067236" lon="8.253431059420109">
        <ele>1644.95</ele>
        <time>2017-11-26T11:44:03Z</time>
      </trkpt>
      <trkpt lat="46.315838433802128" lon="8.253459054976702">
        <ele>1644.47</ele>
        <time>2017-11-26T11:44:05Z</time>
      </trkpt>
      <trkpt lat="46.315777748823166" lon="8.253614204004407">
        <ele>1644.47</ele>
        <time>2017-11-26T11:44:16Z</time>
      </trkpt>
      <trkpt lat="46.315763248130679" lon="8.253674050793052">
        <ele>1644.47</ele>
        <time>2017-11-26T11:44:20Z</time>
      </trkpt>
      <trkpt lat="46.315685380250216" lon="8.253822578117251">
        <ele>1644.47</ele>
        <time>2017-11-26T11:44:31Z</time>
      </trkpt>
      <trkpt lat="46.315627377480268" lon="8.253907235339284">
        <ele>1643.99</ele>
        <time>2017-11-26T11:44:38Z</time>
      </trkpt>
      <trkpt lat="46.315534003078938" lon="8.254052074626088">
        <ele>1643.99</ele>
        <time>2017-11-26T11:44:50Z</time>
      </trkpt>
      <trkpt lat="46.315436018630862" lon="8.254159865900874">
        <ele>1643.99</ele>
        <time>2017-11-26T11:45:01Z</time>
      </trkpt>
      <trkpt lat="46.315408106893301" lon="8.254190795123577">
        <ele>1644.47</ele>
        <time>2017-11-26T11:45:05Z</time>
      </trkpt>
      <trkpt lat="46.315331412479281" lon="8.254283415153623">
        <ele>1644.47</ele>
        <time>2017-11-26T11:45:14Z</time>
      </trkpt>
      <trkpt lat="46.31527223624289" lon="8.25441031716764">
        <ele>1644.47</ele>
        <time>2017-11-26T11:45:26Z</time>
      </trkpt>
      <trkpt lat="46.315266536548734" lon="8.254530178382993">
        <ele>1645.9100000000001</ele>
        <time>2017-11-26T11:45:35Z</time>
      </trkpt>
      <trkpt lat="46.315267793834209" lon="8.254540571942926">
        <ele>1642.0699999999999</ele>
        <time>2017-11-26T11:45:36Z</time>
      </trkpt>
      <trkpt lat="46.315264189615846" lon="8.25454467907548">
        <ele>1650.72</ele>
        <time>2017-11-26T11:45:37Z</time>
      </trkpt>
      <trkpt lat="46.315264189615846" lon="8.254553060978651">
        <ele>1649.76</ele>
        <time>2017-11-26T11:45:38Z</time>
      </trkpt>
      <trkpt lat="46.315250359475613" lon="8.254596563056111">
        <ele>1646.4000000000001</ele>
        <time>2017-11-26T11:45:42Z</time>
      </trkpt>
      <trkpt lat="46.315249018371105" lon="8.254607375711203">
        <ele>1645.9100000000001</ele>
        <time>2017-11-26T11:45:43Z</time>
      </trkpt>
      <trkpt lat="46.315250024199486" lon="8.254617853090167">
        <ele>1645.9100000000001</ele>
        <time>2017-11-26T11:45:44Z</time>
      </trkpt>
      <trkpt lat="46.315284306183457" lon="8.254819689318538">
        <ele>1643.51</ele>
        <time>2017-11-26T11:45:57Z</time>
      </trkpt>
      <trkpt lat="46.315304255113006" lon="8.254986824467778">
        <ele>1642.55</ele>
        <time>2017-11-26T11:46:07Z</time>
      </trkpt>
      <trkpt lat="46.315319761633873" lon="8.255165191367269">
        <ele>1641.1099999999999</ele>
        <time>2017-11-26T11:46:18Z</time>
      </trkpt>
      <trkpt lat="46.315339710563421" lon="8.255356969311833">
        <ele>1638.22</ele>
        <time>2017-11-26T11:46:30Z</time>
      </trkpt>
      <trkpt lat="46.31534549407661" lon="8.25543207116425">
        <ele>1642.55</ele>
        <time>2017-11-26T11:46:35Z</time>
      </trkpt>
      <trkpt lat="46.3153459969908" lon="8.255447912961245">
        <ele>1641.5899999999999</ele>
        <time>2017-11-26T11:46:36Z</time>
      </trkpt>
      <trkpt lat="46.315340800210834" lon="8.255506083369255">
        <ele>1642.55</ele>
        <time>2017-11-26T11:46:40Z</time>
      </trkpt>
      <trkpt lat="46.315327137708664" lon="8.25563139282167">
        <ele>1642.55</ele>
        <time>2017-11-26T11:46:48Z</time>
      </trkpt>
      <trkpt lat="46.315327724441886" lon="8.255658550187945">
        <ele>1642.55</ele>
        <time>2017-11-26T11:46:50Z</time>
      </trkpt>
      <trkpt lat="46.315305763855577" lon="8.255845215171576">
        <ele>1642.0699999999999</ele>
        <time>2017-11-26T11:47:02Z</time>
      </trkpt>
      <trkpt lat="46.315292520448565" lon="8.256046632304788">
        <ele>1642.0699999999999</ele>
        <time>2017-11-26T11:47:15Z</time>
      </trkpt>
      <trkpt lat="46.315292939543724" lon="8.256141263991594">
        <ele>1641.5899999999999</ele>
        <time>2017-11-26T11:47:21Z</time>
      </trkpt>
      <trkpt lat="46.315298806875944" lon="8.256270680576563">
        <ele>1640.6300000000001</ele>
        <time>2017-11-26T11:47:29Z</time>
      </trkpt>
      <trkpt lat="46.315300818532705" lon="8.256324157118797">
        <ele>1640.6300000000001</ele>
        <time>2017-11-26T11:47:33Z</time>
      </trkpt>
      <trkpt lat="46.315314061939716" lon="8.256519623100758">
        <ele>1639.6700000000001</ele>
        <time>2017-11-26T11:47:45Z</time>
      </trkpt>
      <trkpt lat="46.315320935100317" lon="8.256532028317452">
        <ele>1639.6700000000001</ele>
        <time>2017-11-26T11:47:46Z</time>
      </trkpt>
      <trkpt lat="46.315347924828529" lon="8.256639149039984">
        <ele>1639.6700000000001</ele>
        <time>2017-11-26T11:47:53Z</time>
      </trkpt>
      <trkpt lat="46.315393270924687" lon="8.256778959184885">
        <ele>1639.1900000000001</ele>
        <time>2017-11-26T11:48:02Z</time>
      </trkpt>
      <trkpt lat="46.315419003367424" lon="8.256883816793561">
        <ele>1640.1500000000001</ele>
        <time>2017-11-26T11:48:09Z</time>
      </trkpt>
      <trkpt lat="46.315432582050562" lon="8.257012479007244">
        <ele>1640.6300000000001</ele>
        <time>2017-11-26T11:48:17Z</time>
      </trkpt>
      <trkpt lat="46.315440544858575" lon="8.25709923170507">
        <ele>1642.0699999999999</ele>
        <time>2017-11-26T11:48:23Z</time>
      </trkpt>
      <trkpt lat="46.315455129370093" lon="8.257249854505062">
        <ele>1640.1500000000001</ele>
        <time>2017-11-26T11:48:32Z</time>
      </trkpt>
      <trkpt lat="46.31545739248395" lon="8.257407601922751">
        <ele>1640.1500000000001</ele>
        <time>2017-11-26T11:48:42Z</time>
      </trkpt>
      <trkpt lat="46.315425122156739" lon="8.25746132992208">
        <ele>1639.6700000000001</ele>
        <time>2017-11-26T11:48:46Z</time>
      </trkpt>
      <trkpt lat="46.315291095525026" lon="8.257509609684348">
        <ele>1640.6300000000001</ele>
        <time>2017-11-26T11:48:57Z</time>
      </trkpt>
      <trkpt lat="46.315169390290976" lon="8.25755269266665">
        <ele>1639.6700000000001</ele>
        <time>2017-11-26T11:49:08Z</time>
      </trkpt>
      <trkpt lat="46.315065706148744" lon="8.257615892216563">
        <ele>1638.22</ele>
        <time>2017-11-26T11:49:19Z</time>
      </trkpt>
      <trkpt lat="46.314984066411853" lon="8.257672386243939">
        <ele>1638.7</ele>
        <time>2017-11-26T11:49:30Z</time>
      </trkpt>
      <trkpt lat="46.314949952065945" lon="8.257680097594857">
        <ele>1640.1500000000001</ele>
        <time>2017-11-26T11:49:34Z</time>
      </trkpt>
      <trkpt lat="46.314895134419203" lon="8.257600050419569">
        <ele>1640.1500000000001</ele>
        <time>2017-11-26T11:49:44Z</time>
      </trkpt>
      <trkpt lat="46.314943665638566" lon="8.257588064298034">
        <ele>1640.1500000000001</ele>
        <time>2017-11-26T11:49:52Z</time>
      </trkpt>
      <trkpt lat="46.314957998692989" lon="8.257588148117065">
        <ele>1640.1500000000001</ele>
        <time>2017-11-26T11:50:01Z</time>
      </trkpt>
      <trkpt lat="46.31496973335743" lon="8.257596949115396">
        <ele>1639.1900000000001</ele>
        <time>2017-11-26T11:50:04Z</time>
      </trkpt>
      <trkpt lat="46.314986916258931" lon="8.257617736235261">
        <ele>1637.26</ele>
        <time>2017-11-26T11:50:09Z</time>
      </trkpt>
      <trkpt lat="46.314985491335392" lon="8.257650509476662">
        <ele>1640.1500000000001</ele>
        <time>2017-11-26T11:50:23Z</time>
      </trkpt>
      <trkpt lat="46.314944503828883" lon="8.257662747055292">
        <ele>1642.55</ele>
        <time>2017-11-26T11:50:34Z</time>
      </trkpt>
      <trkpt lat="46.314953891560435" lon="8.257562667131424">
        <ele>1643.51</ele>
        <time>2017-11-26T11:50:51Z</time>
      </trkpt>
      <trkpt lat="46.314971325919032" lon="8.257336774840951">
        <ele>1643.99</ele>
        <time>2017-11-26T11:51:09Z</time>
      </trkpt>
      <trkpt lat="46.314876610413194" lon="8.257324285805225">
        <ele>1645.4300000000001</ele>
        <time>2017-11-26T11:51:27Z</time>
      </trkpt>
      <trkpt lat="46.314916340634227" lon="8.257283885031939">
        <ele>1644.95</ele>
        <time>2017-11-26T11:51:40Z</time>
      </trkpt>
      <trkpt lat="46.314850710332394" lon="8.257268546149135">
        <ele>1644.95</ele>
        <time>2017-11-26T11:52:04Z</time>
      </trkpt>
      <trkpt lat="46.314893122762442" lon="8.257257817313075">
        <ele>1644.47</ele>
        <time>2017-11-26T11:52:32Z</time>
      </trkpt>
      <trkpt lat="46.314871832728386" lon="8.257255470380187">
        <ele>1645.4300000000001</ele>
        <time>2017-11-26T11:52:49Z</time>
      </trkpt>
    </trkseg>
  </trk>

</gpx>